<?xml version="1.0" encoding="UTF-8" standalone="no" ?>
<gpx xmlns="http://www.topografix.com/GPX/1/1" xmlns:xsi="http://www.w3.org/2001/XMLSchema-instance" xsi:schemaLocation="http://www.topografix.com/GPX/1/1 http://www.topografix.com/GPX/1/1/gpx.xsd" version="1.1" creator="VisuGPX - https://www.visugpx.com">
  <metadata>
    <name>Randonnée Breitenau</name>
    <desc><![CDATA[  Breitenau- Roche des Fées- Frankenbourg- - Col de Altenberg]]></desc>
  </metadata>
  <trk>
    <name><![CDATA[2016-08-21 16:08:08]]></name>
    <trkseg>
      <trkpt lat="48.3133" lon="7.29019">
        <ele>391.96</ele>
        <time>2016-08-21T07:03:48Z</time>
      </trkpt>
      <trkpt lat="48.3133" lon="7.29019">
        <ele>391.96</ele>
        <time>2016-08-21T07:03:49Z</time>
      </trkpt>
      <trkpt lat="48.31329" lon="7.29017">
        <ele>391.42</ele>
        <time>2016-08-21T07:04:17Z</time>
      </trkpt>
      <trkpt lat="48.3133" lon="7.29013">
        <ele>389.81</ele>
        <time>2016-08-21T07:04:46Z</time>
      </trkpt>
      <trkpt lat="48.31332" lon="7.29013">
        <ele>390.5</ele>
        <time>2016-08-21T07:05:08Z</time>
      </trkpt>
      <trkpt lat="48.31336" lon="7.29011">
        <ele>390.79</ele>
        <time>2016-08-21T07:05:34Z</time>
      </trkpt>
      <trkpt lat="48.31338" lon="7.29009">
        <ele>391.34</ele>
        <time>2016-08-21T07:05:58Z</time>
      </trkpt>
      <trkpt lat="48.31334" lon="7.29009">
        <ele>392.04</ele>
        <time>2016-08-21T07:06:17Z</time>
      </trkpt>
      <trkpt lat="48.31332" lon="7.29007">
        <ele>385.9</ele>
        <time>2016-08-21T07:06:40Z</time>
      </trkpt>
      <trkpt lat="48.31332" lon="7.29007">
        <ele>390.55</ele>
        <time>2016-08-21T07:06:41Z</time>
      </trkpt>
      <trkpt lat="48.31333" lon="7.29007">
        <ele>395.18</ele>
        <time>2016-08-21T07:06:43Z</time>
      </trkpt>
      <trkpt lat="48.31332" lon="7.29007">
        <ele>392.06</ele>
        <time>2016-08-21T07:06:44Z</time>
      </trkpt>
      <trkpt lat="48.31331" lon="7.29005">
        <ele>391.28</ele>
        <time>2016-08-21T07:07:08Z</time>
      </trkpt>
      <trkpt lat="48.3133" lon="7.29004">
        <ele>385.52</ele>
        <time>2016-08-21T07:07:19Z</time>
      </trkpt>
      <trkpt lat="48.3133" lon="7.29004">
        <ele>398.12</ele>
        <time>2016-08-21T07:07:20Z</time>
      </trkpt>
      <trkpt lat="48.3133" lon="7.29005">
        <ele>391.91</ele>
        <time>2016-08-21T07:07:21Z</time>
      </trkpt>
      <trkpt lat="48.31329" lon="7.28997">
        <ele>391.67</ele>
        <time>2016-08-21T07:07:40Z</time>
      </trkpt>
      <trkpt lat="48.31328" lon="7.28996">
        <ele>390.95</ele>
        <time>2016-08-21T07:08:03Z</time>
      </trkpt>
      <trkpt lat="48.31311" lon="7.28983">
        <ele>391.73</ele>
        <time>2016-08-21T07:08:26Z</time>
      </trkpt>
      <trkpt lat="48.31305" lon="7.28976">
        <ele>391.59</ele>
        <time>2016-08-21T07:08:33Z</time>
      </trkpt>
      <trkpt lat="48.31299" lon="7.28968">
        <ele>391.76</ele>
        <time>2016-08-21T07:08:39Z</time>
      </trkpt>
      <trkpt lat="48.31277" lon="7.28943">
        <ele>395.04</ele>
        <time>2016-08-21T07:09:03Z</time>
      </trkpt>
      <trkpt lat="48.31271" lon="7.28937">
        <ele>395.14</ele>
        <time>2016-08-21T07:09:09Z</time>
      </trkpt>
      <trkpt lat="48.31255" lon="7.28919">
        <ele>396.52</ele>
        <time>2016-08-21T07:09:28Z</time>
      </trkpt>
      <trkpt lat="48.31249" lon="7.28915">
        <ele>397.13</ele>
        <time>2016-08-21T07:09:35Z</time>
      </trkpt>
      <trkpt lat="48.31242" lon="7.28905">
        <ele>397.22</ele>
        <time>2016-08-21T07:09:45Z</time>
      </trkpt>
      <trkpt lat="48.31236" lon="7.28898">
        <ele>399.1</ele>
        <time>2016-08-21T07:09:55Z</time>
      </trkpt>
      <trkpt lat="48.31236" lon="7.28891">
        <ele>399.25</ele>
        <time>2016-08-21T07:09:57Z</time>
      </trkpt>
      <trkpt lat="48.31223" lon="7.28869">
        <ele>400.17</ele>
        <time>2016-08-21T07:10:15Z</time>
      </trkpt>
      <trkpt lat="48.31215" lon="7.28862">
        <ele>400.31</ele>
        <time>2016-08-21T07:10:24Z</time>
      </trkpt>
      <trkpt lat="48.31208" lon="7.28857">
        <ele>402.15</ele>
        <time>2016-08-21T07:10:31Z</time>
      </trkpt>
      <trkpt lat="48.31208" lon="7.28855">
        <ele>401.65</ele>
        <time>2016-08-21T07:10:33Z</time>
      </trkpt>
      <trkpt lat="48.31204" lon="7.2885">
        <ele>402.37</ele>
        <time>2016-08-21T07:10:37Z</time>
      </trkpt>
      <trkpt lat="48.31196" lon="7.28839">
        <ele>402.87</ele>
        <time>2016-08-21T07:10:47Z</time>
      </trkpt>
      <trkpt lat="48.31193" lon="7.28834">
        <ele>403.59</ele>
        <time>2016-08-21T07:10:51Z</time>
      </trkpt>
      <trkpt lat="48.31191" lon="7.28832">
        <ele>403.51</ele>
        <time>2016-08-21T07:10:54Z</time>
      </trkpt>
      <trkpt lat="48.3119" lon="7.28825">
        <ele>405.18</ele>
        <time>2016-08-21T07:10:56Z</time>
      </trkpt>
      <trkpt lat="48.31189" lon="7.28823">
        <ele>404.56</ele>
        <time>2016-08-21T07:10:57Z</time>
      </trkpt>
      <trkpt lat="48.31184" lon="7.28815">
        <ele>404.47</ele>
        <time>2016-08-21T07:11:03Z</time>
      </trkpt>
      <trkpt lat="48.3118" lon="7.28811">
        <ele>405.54</ele>
        <time>2016-08-21T07:11:09Z</time>
      </trkpt>
      <trkpt lat="48.31175" lon="7.28782">
        <ele>407.42</ele>
        <time>2016-08-21T07:11:23Z</time>
      </trkpt>
      <trkpt lat="48.3117" lon="7.28764">
        <ele>407.87</ele>
        <time>2016-08-21T07:11:32Z</time>
      </trkpt>
      <trkpt lat="48.31167" lon="7.28758">
        <ele>409.45</ele>
        <time>2016-08-21T07:11:38Z</time>
      </trkpt>
      <trkpt lat="48.31164" lon="7.28746">
        <ele>409.79</ele>
        <time>2016-08-21T07:11:47Z</time>
      </trkpt>
      <trkpt lat="48.31163" lon="7.28744">
        <ele>408.88</ele>
        <time>2016-08-21T07:11:49Z</time>
      </trkpt>
      <trkpt lat="48.31161" lon="7.28731">
        <ele>410.53</ele>
        <time>2016-08-21T07:11:56Z</time>
      </trkpt>
      <trkpt lat="48.3116" lon="7.28728">
        <ele>409.52</ele>
        <time>2016-08-21T07:11:58Z</time>
      </trkpt>
      <trkpt lat="48.3116" lon="7.28723">
        <ele>409.88</ele>
        <time>2016-08-21T07:12:01Z</time>
      </trkpt>
      <trkpt lat="48.31158" lon="7.2872">
        <ele>410.8</ele>
        <time>2016-08-21T07:12:04Z</time>
      </trkpt>
      <trkpt lat="48.31155" lon="7.28716">
        <ele>410.39</ele>
        <time>2016-08-21T07:12:09Z</time>
      </trkpt>
      <trkpt lat="48.31148" lon="7.2871">
        <ele>412.32</ele>
        <time>2016-08-21T07:12:19Z</time>
      </trkpt>
      <trkpt lat="48.31146" lon="7.28708">
        <ele>412.94</ele>
        <time>2016-08-21T07:12:21Z</time>
      </trkpt>
      <trkpt lat="48.31143" lon="7.28705">
        <ele>412.76</ele>
        <time>2016-08-21T07:12:26Z</time>
      </trkpt>
      <trkpt lat="48.3114" lon="7.28706">
        <ele>412.79</ele>
        <time>2016-08-21T07:12:29Z</time>
      </trkpt>
      <trkpt lat="48.31131" lon="7.28683">
        <ele>413.73</ele>
        <time>2016-08-21T07:12:48Z</time>
      </trkpt>
      <trkpt lat="48.31129" lon="7.28673">
        <ele>414.97</ele>
        <time>2016-08-21T07:12:54Z</time>
      </trkpt>
      <trkpt lat="48.31123" lon="7.28656">
        <ele>414.87</ele>
        <time>2016-08-21T07:13:03Z</time>
      </trkpt>
      <trkpt lat="48.3112" lon="7.28651">
        <ele>414.75</ele>
        <time>2016-08-21T07:13:06Z</time>
      </trkpt>
      <trkpt lat="48.31116" lon="7.28649">
        <ele>415.26</ele>
        <time>2016-08-21T07:13:10Z</time>
      </trkpt>
      <trkpt lat="48.31113" lon="7.28645">
        <ele>416.04</ele>
        <time>2016-08-21T07:13:13Z</time>
      </trkpt>
      <trkpt lat="48.31102" lon="7.28621">
        <ele>416.29</ele>
        <time>2016-08-21T07:13:27Z</time>
      </trkpt>
      <trkpt lat="48.31099" lon="7.28619">
        <ele>416.95</ele>
        <time>2016-08-21T07:13:31Z</time>
      </trkpt>
      <trkpt lat="48.31096" lon="7.28608">
        <ele>417.35</ele>
        <time>2016-08-21T07:13:38Z</time>
      </trkpt>
      <trkpt lat="48.31094" lon="7.28587">
        <ele>417.58</ele>
        <time>2016-08-21T07:13:45Z</time>
      </trkpt>
      <trkpt lat="48.31082" lon="7.28572">
        <ele>418.8</ele>
        <time>2016-08-21T07:13:58Z</time>
      </trkpt>
      <trkpt lat="48.3108" lon="7.28571">
        <ele>418.4</ele>
        <time>2016-08-21T07:14:01Z</time>
      </trkpt>
      <trkpt lat="48.31078" lon="7.28565">
        <ele>418.24</ele>
        <time>2016-08-21T07:14:05Z</time>
      </trkpt>
      <trkpt lat="48.31072" lon="7.28567">
        <ele>418.79</ele>
        <time>2016-08-21T07:14:08Z</time>
      </trkpt>
      <trkpt lat="48.31068" lon="7.28563">
        <ele>419.29</ele>
        <time>2016-08-21T07:14:13Z</time>
      </trkpt>
      <trkpt lat="48.31067" lon="7.28558">
        <ele>419.83</ele>
        <time>2016-08-21T07:14:17Z</time>
      </trkpt>
      <trkpt lat="48.31064" lon="7.28552">
        <ele>420.42</ele>
        <time>2016-08-21T07:14:24Z</time>
      </trkpt>
      <trkpt lat="48.3106" lon="7.2854">
        <ele>420.75</ele>
        <time>2016-08-21T07:14:30Z</time>
      </trkpt>
      <trkpt lat="48.31052" lon="7.28527">
        <ele>420.55</ele>
        <time>2016-08-21T07:14:45Z</time>
      </trkpt>
      <trkpt lat="48.31048" lon="7.28509">
        <ele>421.43</ele>
        <time>2016-08-21T07:14:53Z</time>
      </trkpt>
      <trkpt lat="48.31045" lon="7.28501">
        <ele>421.39</ele>
        <time>2016-08-21T07:14:57Z</time>
      </trkpt>
      <trkpt lat="48.31041" lon="7.28489">
        <ele>421.5</ele>
        <time>2016-08-21T07:15:05Z</time>
      </trkpt>
      <trkpt lat="48.31039" lon="7.28482">
        <ele>421.5</ele>
        <time>2016-08-21T07:15:20Z</time>
      </trkpt>
      <trkpt lat="48.31037" lon="7.28484">
        <ele>419.38</ele>
        <time>2016-08-21T07:15:24Z</time>
      </trkpt>
      <trkpt lat="48.31027" lon="7.28489">
        <ele>420.43</ele>
        <time>2016-08-21T07:15:31Z</time>
      </trkpt>
      <trkpt lat="48.31026" lon="7.28497">
        <ele>419.95</ele>
        <time>2016-08-21T07:15:37Z</time>
      </trkpt>
      <trkpt lat="48.31026" lon="7.28497">
        <ele>420.27</ele>
        <time>2016-08-21T07:15:45Z</time>
      </trkpt>
      <trkpt lat="48.31037" lon="7.28493">
        <ele>418.64</ele>
        <time>2016-08-21T07:16:06Z</time>
      </trkpt>
      <trkpt lat="48.31042" lon="7.28499">
        <ele>415.53</ele>
        <time>2016-08-21T07:16:27Z</time>
      </trkpt>
      <trkpt lat="48.31042" lon="7.28499">
        <ele>419.74</ele>
        <time>2016-08-21T07:16:28Z</time>
      </trkpt>
      <trkpt lat="48.31041" lon="7.285">
        <ele>417.07</ele>
        <time>2016-08-21T07:16:44Z</time>
      </trkpt>
      <trkpt lat="48.31035" lon="7.28504">
        <ele>416.9</ele>
        <time>2016-08-21T07:16:49Z</time>
      </trkpt>
      <trkpt lat="48.31035" lon="7.28505">
        <ele>416.64</ele>
        <time>2016-08-21T07:16:53Z</time>
      </trkpt>
      <trkpt lat="48.31029" lon="7.28509">
        <ele>415.67</ele>
        <time>2016-08-21T07:17:24Z</time>
      </trkpt>
      <trkpt lat="48.31024" lon="7.28512">
        <ele>415.6</ele>
        <time>2016-08-21T07:17:36Z</time>
      </trkpt>
      <trkpt lat="48.31025" lon="7.28514">
        <ele>415.32</ele>
        <time>2016-08-21T07:17:46Z</time>
      </trkpt>
      <trkpt lat="48.31037" lon="7.28517">
        <ele>414.68</ele>
        <time>2016-08-21T07:18:03Z</time>
      </trkpt>
      <trkpt lat="48.31041" lon="7.28512">
        <ele>414.08</ele>
        <time>2016-08-21T07:18:21Z</time>
      </trkpt>
      <trkpt lat="48.31038" lon="7.2852">
        <ele>414.04</ele>
        <time>2016-08-21T07:18:45Z</time>
      </trkpt>
      <trkpt lat="48.31034" lon="7.28511">
        <ele>412.98</ele>
        <time>2016-08-21T07:19:10Z</time>
      </trkpt>
      <trkpt lat="48.31035" lon="7.2851">
        <ele>412.87</ele>
        <time>2016-08-21T07:19:11Z</time>
      </trkpt>
      <trkpt lat="48.31041" lon="7.28513">
        <ele>412.91</ele>
        <time>2016-08-21T07:19:34Z</time>
      </trkpt>
      <trkpt lat="48.31042" lon="7.2851">
        <ele>412.58</ele>
        <time>2016-08-21T07:19:40Z</time>
      </trkpt>
      <trkpt lat="48.31044" lon="7.28505">
        <ele>412.6</ele>
        <time>2016-08-21T07:19:43Z</time>
      </trkpt>
      <trkpt lat="48.31044" lon="7.28505">
        <ele>412.65</ele>
        <time>2016-08-21T07:19:45Z</time>
      </trkpt>
      <trkpt lat="48.31045" lon="7.28507">
        <ele>412.48</ele>
        <time>2016-08-21T07:20:05Z</time>
      </trkpt>
      <trkpt lat="48.31021" lon="7.28542">
        <ele>411.64</ele>
        <time>2016-08-21T07:20:34Z</time>
      </trkpt>
      <trkpt lat="48.31019" lon="7.28539">
        <ele>410.91</ele>
        <time>2016-08-21T07:20:59Z</time>
      </trkpt>
      <trkpt lat="48.31021" lon="7.28532">
        <ele>412.72</ele>
        <time>2016-08-21T07:21:17Z</time>
      </trkpt>
      <trkpt lat="48.31015" lon="7.28526">
        <ele>411.9</ele>
        <time>2016-08-21T07:21:29Z</time>
      </trkpt>
      <trkpt lat="48.31007" lon="7.28505">
        <ele>415.51</ele>
        <time>2016-08-21T07:21:43Z</time>
      </trkpt>
      <trkpt lat="48.30992" lon="7.2848">
        <ele>418.03</ele>
        <time>2016-08-21T07:22:04Z</time>
      </trkpt>
      <trkpt lat="48.30987" lon="7.28474">
        <ele>418.07</ele>
        <time>2016-08-21T07:22:10Z</time>
      </trkpt>
      <trkpt lat="48.30985" lon="7.28471">
        <ele>419.11</ele>
        <time>2016-08-21T07:22:12Z</time>
      </trkpt>
      <trkpt lat="48.30981" lon="7.28467">
        <ele>419.54</ele>
        <time>2016-08-21T07:22:17Z</time>
      </trkpt>
      <trkpt lat="48.30976" lon="7.28463">
        <ele>419.11</ele>
        <time>2016-08-21T07:22:22Z</time>
      </trkpt>
      <trkpt lat="48.30973" lon="7.28463">
        <ele>420.66</ele>
        <time>2016-08-21T07:22:24Z</time>
      </trkpt>
      <trkpt lat="48.30971" lon="7.28459">
        <ele>421.63</ele>
        <time>2016-08-21T07:22:28Z</time>
      </trkpt>
      <trkpt lat="48.30969" lon="7.28456">
        <ele>421.11</ele>
        <time>2016-08-21T07:22:30Z</time>
      </trkpt>
      <trkpt lat="48.30965" lon="7.28447">
        <ele>422.26</ele>
        <time>2016-08-21T07:22:37Z</time>
      </trkpt>
      <trkpt lat="48.30964" lon="7.28444">
        <ele>422.95</ele>
        <time>2016-08-21T07:22:40Z</time>
      </trkpt>
      <trkpt lat="48.30963" lon="7.28444">
        <ele>422.34</ele>
        <time>2016-08-21T07:22:42Z</time>
      </trkpt>
      <trkpt lat="48.30961" lon="7.28443">
        <ele>423.71</ele>
        <time>2016-08-21T07:22:44Z</time>
      </trkpt>
      <trkpt lat="48.30959" lon="7.28442">
        <ele>422.96</ele>
        <time>2016-08-21T07:22:46Z</time>
      </trkpt>
      <trkpt lat="48.30957" lon="7.28441">
        <ele>424.69</ele>
        <time>2016-08-21T07:22:48Z</time>
      </trkpt>
      <trkpt lat="48.30954" lon="7.28433">
        <ele>424.98</ele>
        <time>2016-08-21T07:22:55Z</time>
      </trkpt>
      <trkpt lat="48.30948" lon="7.28421">
        <ele>426.57</ele>
        <time>2016-08-21T07:23:04Z</time>
      </trkpt>
      <trkpt lat="48.30945" lon="7.2841">
        <ele>427.25</ele>
        <time>2016-08-21T07:23:11Z</time>
      </trkpt>
      <trkpt lat="48.30944" lon="7.28409">
        <ele>428.68</ele>
        <time>2016-08-21T07:23:13Z</time>
      </trkpt>
      <trkpt lat="48.30931" lon="7.28402">
        <ele>429.02</ele>
        <time>2016-08-21T07:23:22Z</time>
      </trkpt>
      <trkpt lat="48.30925" lon="7.28398">
        <ele>430.71</ele>
        <time>2016-08-21T07:23:29Z</time>
      </trkpt>
      <trkpt lat="48.3092" lon="7.28396">
        <ele>432.01</ele>
        <time>2016-08-21T07:23:33Z</time>
      </trkpt>
      <trkpt lat="48.3091" lon="7.28381">
        <ele>431.8</ele>
        <time>2016-08-21T07:23:45Z</time>
      </trkpt>
      <trkpt lat="48.30909" lon="7.2838">
        <ele>433.49</ele>
        <time>2016-08-21T07:23:47Z</time>
      </trkpt>
      <trkpt lat="48.30903" lon="7.28376">
        <ele>434.54</ele>
        <time>2016-08-21T07:23:57Z</time>
      </trkpt>
      <trkpt lat="48.30902" lon="7.28371">
        <ele>433.46</ele>
        <time>2016-08-21T07:24:00Z</time>
      </trkpt>
      <trkpt lat="48.30898" lon="7.2836">
        <ele>435.43</ele>
        <time>2016-08-21T07:24:08Z</time>
      </trkpt>
      <trkpt lat="48.30894" lon="7.28357">
        <ele>436.84</ele>
        <time>2016-08-21T07:24:12Z</time>
      </trkpt>
      <trkpt lat="48.30888" lon="7.28352">
        <ele>437.79</ele>
        <time>2016-08-21T07:24:21Z</time>
      </trkpt>
      <trkpt lat="48.30883" lon="7.28349">
        <ele>437.82</ele>
        <time>2016-08-21T07:24:28Z</time>
      </trkpt>
      <trkpt lat="48.30876" lon="7.28335">
        <ele>440.79</ele>
        <time>2016-08-21T07:24:36Z</time>
      </trkpt>
      <trkpt lat="48.30873" lon="7.28328">
        <ele>440.32</ele>
        <time>2016-08-21T07:24:39Z</time>
      </trkpt>
      <trkpt lat="48.3087" lon="7.28323">
        <ele>441.39</ele>
        <time>2016-08-21T07:24:42Z</time>
      </trkpt>
      <trkpt lat="48.3087" lon="7.28319">
        <ele>440.14</ele>
        <time>2016-08-21T07:24:44Z</time>
      </trkpt>
      <trkpt lat="48.30871" lon="7.28313">
        <ele>441.89</ele>
        <time>2016-08-21T07:24:47Z</time>
      </trkpt>
      <trkpt lat="48.30871" lon="7.28308">
        <ele>441.28</ele>
        <time>2016-08-21T07:24:49Z</time>
      </trkpt>
      <trkpt lat="48.30871" lon="7.28305">
        <ele>442.78</ele>
        <time>2016-08-21T07:24:51Z</time>
      </trkpt>
      <trkpt lat="48.30871" lon="7.28304">
        <ele>441.18</ele>
        <time>2016-08-21T07:24:52Z</time>
      </trkpt>
      <trkpt lat="48.30864" lon="7.28304">
        <ele>444.07</ele>
        <time>2016-08-21T07:25:02Z</time>
      </trkpt>
      <trkpt lat="48.30859" lon="7.28307">
        <ele>444.36</ele>
        <time>2016-08-21T07:25:05Z</time>
      </trkpt>
      <trkpt lat="48.30846" lon="7.2831">
        <ele>445.55</ele>
        <time>2016-08-21T07:25:12Z</time>
      </trkpt>
      <trkpt lat="48.3084" lon="7.28312">
        <ele>445.8</ele>
        <time>2016-08-21T07:25:18Z</time>
      </trkpt>
      <trkpt lat="48.30835" lon="7.28314">
        <ele>446.36</ele>
        <time>2016-08-21T07:25:21Z</time>
      </trkpt>
      <trkpt lat="48.30828" lon="7.28318">
        <ele>447.69</ele>
        <time>2016-08-21T07:25:25Z</time>
      </trkpt>
      <trkpt lat="48.30823" lon="7.28322">
        <ele>447.46</ele>
        <time>2016-08-21T07:25:29Z</time>
      </trkpt>
      <trkpt lat="48.3082" lon="7.28322">
        <ele>448.11</ele>
        <time>2016-08-21T07:25:32Z</time>
      </trkpt>
      <trkpt lat="48.30811" lon="7.28326">
        <ele>448.87</ele>
        <time>2016-08-21T07:25:42Z</time>
      </trkpt>
      <trkpt lat="48.30809" lon="7.28322">
        <ele>450.19</ele>
        <time>2016-08-21T07:25:47Z</time>
      </trkpt>
      <trkpt lat="48.30807" lon="7.2832">
        <ele>449.79</ele>
        <time>2016-08-21T07:25:51Z</time>
      </trkpt>
      <trkpt lat="48.30807" lon="7.28316">
        <ele>451.2</ele>
        <time>2016-08-21T07:25:53Z</time>
      </trkpt>
      <trkpt lat="48.30798" lon="7.28314">
        <ele>452.61</ele>
        <time>2016-08-21T07:26:04Z</time>
      </trkpt>
      <trkpt lat="48.30796" lon="7.28312">
        <ele>452.7</ele>
        <time>2016-08-21T07:26:07Z</time>
      </trkpt>
      <trkpt lat="48.30794" lon="7.28308">
        <ele>453.95</ele>
        <time>2016-08-21T07:26:11Z</time>
      </trkpt>
      <trkpt lat="48.30791" lon="7.28303">
        <ele>453.66</ele>
        <time>2016-08-21T07:26:15Z</time>
      </trkpt>
      <trkpt lat="48.30784" lon="7.28303">
        <ele>454.27</ele>
        <time>2016-08-21T07:26:19Z</time>
      </trkpt>
      <trkpt lat="48.30782" lon="7.28303">
        <ele>454.7</ele>
        <time>2016-08-21T07:26:21Z</time>
      </trkpt>
      <trkpt lat="48.30773" lon="7.28301">
        <ele>455.78</ele>
        <time>2016-08-21T07:26:30Z</time>
      </trkpt>
      <trkpt lat="48.30768" lon="7.28298">
        <ele>456.19</ele>
        <time>2016-08-21T07:26:34Z</time>
      </trkpt>
      <trkpt lat="48.30766" lon="7.28291">
        <ele>456.96</ele>
        <time>2016-08-21T07:26:38Z</time>
      </trkpt>
      <trkpt lat="48.30763" lon="7.2829">
        <ele>456.07</ele>
        <time>2016-08-21T07:26:40Z</time>
      </trkpt>
      <trkpt lat="48.30761" lon="7.28284">
        <ele>456.83</ele>
        <time>2016-08-21T07:26:43Z</time>
      </trkpt>
      <trkpt lat="48.30754" lon="7.28278">
        <ele>459.21</ele>
        <time>2016-08-21T07:26:51Z</time>
      </trkpt>
      <trkpt lat="48.30749" lon="7.28274">
        <ele>460.14</ele>
        <time>2016-08-21T07:26:58Z</time>
      </trkpt>
      <trkpt lat="48.30741" lon="7.28275">
        <ele>461.09</ele>
        <time>2016-08-21T07:27:07Z</time>
      </trkpt>
      <trkpt lat="48.30735" lon="7.28275">
        <ele>462.69</ele>
        <time>2016-08-21T07:27:13Z</time>
      </trkpt>
      <trkpt lat="48.30731" lon="7.28268">
        <ele>463.47</ele>
        <time>2016-08-21T07:27:20Z</time>
      </trkpt>
      <trkpt lat="48.30729" lon="7.28267">
        <ele>462.72</ele>
        <time>2016-08-21T07:27:22Z</time>
      </trkpt>
      <trkpt lat="48.30726" lon="7.28268">
        <ele>463.21</ele>
        <time>2016-08-21T07:27:25Z</time>
      </trkpt>
      <trkpt lat="48.30723" lon="7.28261">
        <ele>463.88</ele>
        <time>2016-08-21T07:27:30Z</time>
      </trkpt>
      <trkpt lat="48.30722" lon="7.28258">
        <ele>464.11</ele>
        <time>2016-08-21T07:27:32Z</time>
      </trkpt>
      <trkpt lat="48.3072" lon="7.28254">
        <ele>465.42</ele>
        <time>2016-08-21T07:27:35Z</time>
      </trkpt>
      <trkpt lat="48.30708" lon="7.28255">
        <ele>466.22</ele>
        <time>2016-08-21T07:27:43Z</time>
      </trkpt>
      <trkpt lat="48.30703" lon="7.28252">
        <ele>466.51</ele>
        <time>2016-08-21T07:27:47Z</time>
      </trkpt>
      <trkpt lat="48.30701" lon="7.28247">
        <ele>467.01</ele>
        <time>2016-08-21T07:27:50Z</time>
      </trkpt>
      <trkpt lat="48.30697" lon="7.28245">
        <ele>468.23</ele>
        <time>2016-08-21T07:27:54Z</time>
      </trkpt>
      <trkpt lat="48.30677" lon="7.28265">
        <ele>468.8</ele>
        <time>2016-08-21T07:28:06Z</time>
      </trkpt>
      <trkpt lat="48.30673" lon="7.28275">
        <ele>469.19</ele>
        <time>2016-08-21T07:28:34Z</time>
      </trkpt>
      <trkpt lat="48.30668" lon="7.28269">
        <ele>469.41</ele>
        <time>2016-08-21T07:28:55Z</time>
      </trkpt>
      <trkpt lat="48.30661" lon="7.28266">
        <ele>471.8</ele>
        <time>2016-08-21T07:29:07Z</time>
      </trkpt>
      <trkpt lat="48.3066" lon="7.28266">
        <ele>471.2</ele>
        <time>2016-08-21T07:29:08Z</time>
      </trkpt>
      <trkpt lat="48.30649" lon="7.28265">
        <ele>474.54</ele>
        <time>2016-08-21T07:29:17Z</time>
      </trkpt>
      <trkpt lat="48.30648" lon="7.28264">
        <ele>472.85</ele>
        <time>2016-08-21T07:29:19Z</time>
      </trkpt>
      <trkpt lat="48.30639" lon="7.28264">
        <ele>474.99</ele>
        <time>2016-08-21T07:29:28Z</time>
      </trkpt>
      <trkpt lat="48.30635" lon="7.28257">
        <ele>476.76</ele>
        <time>2016-08-21T07:29:33Z</time>
      </trkpt>
      <trkpt lat="48.30631" lon="7.28255">
        <ele>477.46</ele>
        <time>2016-08-21T07:29:36Z</time>
      </trkpt>
      <trkpt lat="48.30629" lon="7.28253">
        <ele>476.82</ele>
        <time>2016-08-21T07:29:39Z</time>
      </trkpt>
      <trkpt lat="48.30625" lon="7.28248">
        <ele>478.25</ele>
        <time>2016-08-21T07:29:46Z</time>
      </trkpt>
      <trkpt lat="48.30623" lon="7.28244">
        <ele>479.48</ele>
        <time>2016-08-21T07:29:49Z</time>
      </trkpt>
      <trkpt lat="48.30619" lon="7.28242">
        <ele>479.86</ele>
        <time>2016-08-21T07:29:53Z</time>
      </trkpt>
      <trkpt lat="48.30616" lon="7.28239">
        <ele>480.46</ele>
        <time>2016-08-21T07:29:57Z</time>
      </trkpt>
      <trkpt lat="48.30614" lon="7.28237">
        <ele>481.73</ele>
        <time>2016-08-21T07:30:00Z</time>
      </trkpt>
      <trkpt lat="48.30606" lon="7.28235">
        <ele>482.27</ele>
        <time>2016-08-21T07:30:08Z</time>
      </trkpt>
      <trkpt lat="48.30603" lon="7.28233">
        <ele>484.1</ele>
        <time>2016-08-21T07:30:12Z</time>
      </trkpt>
      <trkpt lat="48.30594" lon="7.28232">
        <ele>485.71</ele>
        <time>2016-08-21T07:30:19Z</time>
      </trkpt>
      <trkpt lat="48.30584" lon="7.28231">
        <ele>485.78</ele>
        <time>2016-08-21T07:30:30Z</time>
      </trkpt>
      <trkpt lat="48.30583" lon="7.28229">
        <ele>487.43</ele>
        <time>2016-08-21T07:30:32Z</time>
      </trkpt>
      <trkpt lat="48.30581" lon="7.28227">
        <ele>488.49</ele>
        <time>2016-08-21T07:30:34Z</time>
      </trkpt>
      <trkpt lat="48.30576" lon="7.28226">
        <ele>488.9</ele>
        <time>2016-08-21T07:30:41Z</time>
      </trkpt>
      <trkpt lat="48.30574" lon="7.28221">
        <ele>488.74</ele>
        <time>2016-08-21T07:30:46Z</time>
      </trkpt>
      <trkpt lat="48.30574" lon="7.28217">
        <ele>489.19</ele>
        <time>2016-08-21T07:30:49Z</time>
      </trkpt>
      <trkpt lat="48.30571" lon="7.28213">
        <ele>489.07</ele>
        <time>2016-08-21T07:30:53Z</time>
      </trkpt>
      <trkpt lat="48.30567" lon="7.28211">
        <ele>491.4</ele>
        <time>2016-08-21T07:30:58Z</time>
      </trkpt>
      <trkpt lat="48.30561" lon="7.28213">
        <ele>492.09</ele>
        <time>2016-08-21T07:31:05Z</time>
      </trkpt>
      <trkpt lat="48.3056" lon="7.28214">
        <ele>492.04</ele>
        <time>2016-08-21T07:31:07Z</time>
      </trkpt>
      <trkpt lat="48.30555" lon="7.28217">
        <ele>492.2</ele>
        <time>2016-08-21T07:31:11Z</time>
      </trkpt>
      <trkpt lat="48.30547" lon="7.28219">
        <ele>492.94</ele>
        <time>2016-08-21T07:31:17Z</time>
      </trkpt>
      <trkpt lat="48.30544" lon="7.28221">
        <ele>492.84</ele>
        <time>2016-08-21T07:31:20Z</time>
      </trkpt>
      <trkpt lat="48.30542" lon="7.28221">
        <ele>493.57</ele>
        <time>2016-08-21T07:31:23Z</time>
      </trkpt>
      <trkpt lat="48.30538" lon="7.28221">
        <ele>494.83</ele>
        <time>2016-08-21T07:31:26Z</time>
      </trkpt>
      <trkpt lat="48.30537" lon="7.28221">
        <ele>494.1</ele>
        <time>2016-08-21T07:31:27Z</time>
      </trkpt>
      <trkpt lat="48.30533" lon="7.28222">
        <ele>495.33</ele>
        <time>2016-08-21T07:31:30Z</time>
      </trkpt>
      <trkpt lat="48.30519" lon="7.28228">
        <ele>496.12</ele>
        <time>2016-08-21T07:31:41Z</time>
      </trkpt>
      <trkpt lat="48.30515" lon="7.2823">
        <ele>495.11</ele>
        <time>2016-08-21T07:31:46Z</time>
      </trkpt>
      <trkpt lat="48.3051" lon="7.28232">
        <ele>496.11</ele>
        <time>2016-08-21T07:31:51Z</time>
      </trkpt>
      <trkpt lat="48.3051" lon="7.28226">
        <ele>496.02</ele>
        <time>2016-08-21T07:31:54Z</time>
      </trkpt>
      <trkpt lat="48.30509" lon="7.28216">
        <ele>495.77</ele>
        <time>2016-08-21T07:31:57Z</time>
      </trkpt>
      <trkpt lat="48.30509" lon="7.2822">
        <ele>495.89</ele>
        <time>2016-08-21T07:32:05Z</time>
      </trkpt>
      <trkpt lat="48.30513" lon="7.28228">
        <ele>493.92</ele>
        <time>2016-08-21T07:32:19Z</time>
      </trkpt>
      <trkpt lat="48.30513" lon="7.28232">
        <ele>495.23</ele>
        <time>2016-08-21T07:32:33Z</time>
      </trkpt>
      <trkpt lat="48.30508" lon="7.28231">
        <ele>495.03</ele>
        <time>2016-08-21T07:32:50Z</time>
      </trkpt>
      <trkpt lat="48.30512" lon="7.28235">
        <ele>494.81</ele>
        <time>2016-08-21T07:33:09Z</time>
      </trkpt>
      <trkpt lat="48.30511" lon="7.28237">
        <ele>495.67</ele>
        <time>2016-08-21T07:33:14Z</time>
      </trkpt>
      <trkpt lat="48.30505" lon="7.28237">
        <ele>496.67</ele>
        <time>2016-08-21T07:33:25Z</time>
      </trkpt>
      <trkpt lat="48.30496" lon="7.28242">
        <ele>496.92</ele>
        <time>2016-08-21T07:33:32Z</time>
      </trkpt>
      <trkpt lat="48.30489" lon="7.28243">
        <ele>497.31</ele>
        <time>2016-08-21T07:33:38Z</time>
      </trkpt>
      <trkpt lat="48.30488" lon="7.2824">
        <ele>498.29</ele>
        <time>2016-08-21T07:33:42Z</time>
      </trkpt>
      <trkpt lat="48.30487" lon="7.28241">
        <ele>498.78</ele>
        <time>2016-08-21T07:33:43Z</time>
      </trkpt>
      <trkpt lat="48.30485" lon="7.2824">
        <ele>498.88</ele>
        <time>2016-08-21T07:33:46Z</time>
      </trkpt>
      <trkpt lat="48.30485" lon="7.28235">
        <ele>498.52</ele>
        <time>2016-08-21T07:33:50Z</time>
      </trkpt>
      <trkpt lat="48.30482" lon="7.28236">
        <ele>499.96</ele>
        <time>2016-08-21T07:33:53Z</time>
      </trkpt>
      <trkpt lat="48.30478" lon="7.28236">
        <ele>499.02</ele>
        <time>2016-08-21T07:33:59Z</time>
      </trkpt>
      <trkpt lat="48.30468" lon="7.28244">
        <ele>499.87</ele>
        <time>2016-08-21T07:34:07Z</time>
      </trkpt>
      <trkpt lat="48.30458" lon="7.28254">
        <ele>501.92</ele>
        <time>2016-08-21T07:34:16Z</time>
      </trkpt>
      <trkpt lat="48.30457" lon="7.28257">
        <ele>503.32</ele>
        <time>2016-08-21T07:34:18Z</time>
      </trkpt>
      <trkpt lat="48.30455" lon="7.28254">
        <ele>504.46</ele>
        <time>2016-08-21T07:34:24Z</time>
      </trkpt>
      <trkpt lat="48.30437" lon="7.28277">
        <ele>505.05</ele>
        <time>2016-08-21T07:34:33Z</time>
      </trkpt>
      <trkpt lat="48.30432" lon="7.28272">
        <ele>506.72</ele>
        <time>2016-08-21T07:34:42Z</time>
      </trkpt>
      <trkpt lat="48.30431" lon="7.28273">
        <ele>507.18</ele>
        <time>2016-08-21T07:34:46Z</time>
      </trkpt>
      <trkpt lat="48.3043" lon="7.28273">
        <ele>506.36</ele>
        <time>2016-08-21T07:34:47Z</time>
      </trkpt>
      <trkpt lat="48.30428" lon="7.28274">
        <ele>507.63</ele>
        <time>2016-08-21T07:34:49Z</time>
      </trkpt>
      <trkpt lat="48.30422" lon="7.28279">
        <ele>507.54</ele>
        <time>2016-08-21T07:34:57Z</time>
      </trkpt>
      <trkpt lat="48.30418" lon="7.28284">
        <ele>508.83</ele>
        <time>2016-08-21T07:35:02Z</time>
      </trkpt>
      <trkpt lat="48.30411" lon="7.28275">
        <ele>510.61</ele>
        <time>2016-08-21T07:35:13Z</time>
      </trkpt>
      <trkpt lat="48.304" lon="7.28285">
        <ele>512.41</ele>
        <time>2016-08-21T07:35:25Z</time>
      </trkpt>
      <trkpt lat="48.30391" lon="7.28293">
        <ele>513.03</ele>
        <time>2016-08-21T07:35:37Z</time>
      </trkpt>
      <trkpt lat="48.30386" lon="7.28297">
        <ele>514.55</ele>
        <time>2016-08-21T07:35:42Z</time>
      </trkpt>
      <trkpt lat="48.30378" lon="7.28302">
        <ele>517.56</ele>
        <time>2016-08-21T07:35:55Z</time>
      </trkpt>
      <trkpt lat="48.30357" lon="7.28317">
        <ele>520.92</ele>
        <time>2016-08-21T07:36:14Z</time>
      </trkpt>
      <trkpt lat="48.30351" lon="7.28314">
        <ele>519.84</ele>
        <time>2016-08-21T07:36:19Z</time>
      </trkpt>
      <trkpt lat="48.30342" lon="7.28317">
        <ele>523.02</ele>
        <time>2016-08-21T07:36:32Z</time>
      </trkpt>
      <trkpt lat="48.3034" lon="7.28313">
        <ele>523.53</ele>
        <time>2016-08-21T07:36:36Z</time>
      </trkpt>
      <trkpt lat="48.30335" lon="7.28311">
        <ele>525.32</ele>
        <time>2016-08-21T07:36:42Z</time>
      </trkpt>
      <trkpt lat="48.30316" lon="7.28328">
        <ele>526</ele>
        <time>2016-08-21T07:36:52Z</time>
      </trkpt>
      <trkpt lat="48.30316" lon="7.28326">
        <ele>525.31</ele>
        <time>2016-08-21T07:36:53Z</time>
      </trkpt>
      <trkpt lat="48.30308" lon="7.28332">
        <ele>528.35</ele>
        <time>2016-08-21T07:37:03Z</time>
      </trkpt>
      <trkpt lat="48.30307" lon="7.28331">
        <ele>527.61</ele>
        <time>2016-08-21T07:37:04Z</time>
      </trkpt>
      <trkpt lat="48.30301" lon="7.28329">
        <ele>530.91</ele>
        <time>2016-08-21T07:37:15Z</time>
      </trkpt>
      <trkpt lat="48.30299" lon="7.28331">
        <ele>530.02</ele>
        <time>2016-08-21T07:37:16Z</time>
      </trkpt>
      <trkpt lat="48.30298" lon="7.28333">
        <ele>531.21</ele>
        <time>2016-08-21T07:37:18Z</time>
      </trkpt>
      <trkpt lat="48.30285" lon="7.28347">
        <ele>533.11</ele>
        <time>2016-08-21T07:37:29Z</time>
      </trkpt>
      <trkpt lat="48.30275" lon="7.28351">
        <ele>536.64</ele>
        <time>2016-08-21T07:37:43Z</time>
      </trkpt>
      <trkpt lat="48.30273" lon="7.28352">
        <ele>536.68</ele>
        <time>2016-08-21T07:37:46Z</time>
      </trkpt>
      <trkpt lat="48.30273" lon="7.28352">
        <ele>536.98</ele>
        <time>2016-08-21T07:37:47Z</time>
      </trkpt>
      <trkpt lat="48.30268" lon="7.28349">
        <ele>538.11</ele>
        <time>2016-08-21T07:37:52Z</time>
      </trkpt>
      <trkpt lat="48.3027" lon="7.28345">
        <ele>538.09</ele>
        <time>2016-08-21T07:37:54Z</time>
      </trkpt>
      <trkpt lat="48.30258" lon="7.28349">
        <ele>539.05</ele>
        <time>2016-08-21T07:38:02Z</time>
      </trkpt>
      <trkpt lat="48.30257" lon="7.28349">
        <ele>539.92</ele>
        <time>2016-08-21T07:38:04Z</time>
      </trkpt>
      <trkpt lat="48.30256" lon="7.28347">
        <ele>540.2</ele>
        <time>2016-08-21T07:38:08Z</time>
      </trkpt>
      <trkpt lat="48.30254" lon="7.28348">
        <ele>541.15</ele>
        <time>2016-08-21T07:38:10Z</time>
      </trkpt>
      <trkpt lat="48.30249" lon="7.28353">
        <ele>543.03</ele>
        <time>2016-08-21T07:38:22Z</time>
      </trkpt>
      <trkpt lat="48.30248" lon="7.28353">
        <ele>543.08</ele>
        <time>2016-08-21T07:38:26Z</time>
      </trkpt>
      <trkpt lat="48.30246" lon="7.28353">
        <ele>544.19</ele>
        <time>2016-08-21T07:38:30Z</time>
      </trkpt>
      <trkpt lat="48.30245" lon="7.28354">
        <ele>544.99</ele>
        <time>2016-08-21T07:38:32Z</time>
      </trkpt>
      <trkpt lat="48.30242" lon="7.28346">
        <ele>547.15</ele>
        <time>2016-08-21T07:38:44Z</time>
      </trkpt>
      <trkpt lat="48.30237" lon="7.28349">
        <ele>546.7</ele>
        <time>2016-08-21T07:38:48Z</time>
      </trkpt>
      <trkpt lat="48.30228" lon="7.2836">
        <ele>547.88</ele>
        <time>2016-08-21T07:39:02Z</time>
      </trkpt>
      <trkpt lat="48.30219" lon="7.28381">
        <ele>549.46</ele>
        <time>2016-08-21T07:39:15Z</time>
      </trkpt>
      <trkpt lat="48.30213" lon="7.28395">
        <ele>551.05</ele>
        <time>2016-08-21T07:39:33Z</time>
      </trkpt>
      <trkpt lat="48.30209" lon="7.28394">
        <ele>551.6</ele>
        <time>2016-08-21T07:39:39Z</time>
      </trkpt>
      <trkpt lat="48.30206" lon="7.28391">
        <ele>551.77</ele>
        <time>2016-08-21T07:39:43Z</time>
      </trkpt>
      <trkpt lat="48.30208" lon="7.28388">
        <ele>551.55</ele>
        <time>2016-08-21T07:39:45Z</time>
      </trkpt>
      <trkpt lat="48.30212" lon="7.28386">
        <ele>552.04</ele>
        <time>2016-08-21T07:39:47Z</time>
      </trkpt>
      <trkpt lat="48.30219" lon="7.28383">
        <ele>551.96</ele>
        <time>2016-08-21T07:39:56Z</time>
      </trkpt>
      <trkpt lat="48.30222" lon="7.28384">
        <ele>551.75</ele>
        <time>2016-08-21T07:40:21Z</time>
      </trkpt>
      <trkpt lat="48.30226" lon="7.2839">
        <ele>553.35</ele>
        <time>2016-08-21T07:40:42Z</time>
      </trkpt>
      <trkpt lat="48.30227" lon="7.28389">
        <ele>552.68</ele>
        <time>2016-08-21T07:40:43Z</time>
      </trkpt>
      <trkpt lat="48.30231" lon="7.28386">
        <ele>552.67</ele>
        <time>2016-08-21T07:40:54Z</time>
      </trkpt>
      <trkpt lat="48.30232" lon="7.2837">
        <ele>553.49</ele>
        <time>2016-08-21T07:41:20Z</time>
      </trkpt>
      <trkpt lat="48.30235" lon="7.2836">
        <ele>554.05</ele>
        <time>2016-08-21T07:41:51Z</time>
      </trkpt>
      <trkpt lat="48.30236" lon="7.28359">
        <ele>554.56</ele>
        <time>2016-08-21T07:42:18Z</time>
      </trkpt>
      <trkpt lat="48.30229" lon="7.28357">
        <ele>554.99</ele>
        <time>2016-08-21T07:42:29Z</time>
      </trkpt>
      <trkpt lat="48.30234" lon="7.28363">
        <ele>554.47</ele>
        <time>2016-08-21T07:42:54Z</time>
      </trkpt>
      <trkpt lat="48.30238" lon="7.28361">
        <ele>555.38</ele>
        <time>2016-08-21T07:43:20Z</time>
      </trkpt>
      <trkpt lat="48.30234" lon="7.28357">
        <ele>556.16</ele>
        <time>2016-08-21T07:43:45Z</time>
      </trkpt>
      <trkpt lat="48.30237" lon="7.28365">
        <ele>555.34</ele>
        <time>2016-08-21T07:44:11Z</time>
      </trkpt>
      <trkpt lat="48.30239" lon="7.2837">
        <ele>555.65</ele>
        <time>2016-08-21T07:44:37Z</time>
      </trkpt>
      <trkpt lat="48.30238" lon="7.28371">
        <ele>555.89</ele>
        <time>2016-08-21T07:45:04Z</time>
      </trkpt>
      <trkpt lat="48.30235" lon="7.28365">
        <ele>556.02</ele>
        <time>2016-08-21T07:45:31Z</time>
      </trkpt>
      <trkpt lat="48.30232" lon="7.28366">
        <ele>557.62</ele>
        <time>2016-08-21T07:45:58Z</time>
      </trkpt>
      <trkpt lat="48.30238" lon="7.28372">
        <ele>557.79</ele>
        <time>2016-08-21T07:46:25Z</time>
      </trkpt>
      <trkpt lat="48.30233" lon="7.28367">
        <ele>557.97</ele>
        <time>2016-08-21T07:46:52Z</time>
      </trkpt>
      <trkpt lat="48.30237" lon="7.28371">
        <ele>558.23</ele>
        <time>2016-08-21T07:47:20Z</time>
      </trkpt>
      <trkpt lat="48.30228" lon="7.28364">
        <ele>559.12</ele>
        <time>2016-08-21T07:47:47Z</time>
      </trkpt>
      <trkpt lat="48.30218" lon="7.28384">
        <ele>562.53</ele>
        <time>2016-08-21T07:48:09Z</time>
      </trkpt>
      <trkpt lat="48.3021" lon="7.28406">
        <ele>564.8</ele>
        <time>2016-08-21T07:48:32Z</time>
      </trkpt>
      <trkpt lat="48.30211" lon="7.28431">
        <ele>565.96</ele>
        <time>2016-08-21T07:48:54Z</time>
      </trkpt>
      <trkpt lat="48.30212" lon="7.28441">
        <ele>569.31</ele>
        <time>2016-08-21T07:49:00Z</time>
      </trkpt>
      <trkpt lat="48.30215" lon="7.28474">
        <ele>572.35</ele>
        <time>2016-08-21T07:49:23Z</time>
      </trkpt>
      <trkpt lat="48.30216" lon="7.28488">
        <ele>574.75</ele>
        <time>2016-08-21T07:49:41Z</time>
      </trkpt>
      <trkpt lat="48.30209" lon="7.28509">
        <ele>577.87</ele>
        <time>2016-08-21T07:50:03Z</time>
      </trkpt>
      <trkpt lat="48.30207" lon="7.28527">
        <ele>581.26</ele>
        <time>2016-08-21T07:50:22Z</time>
      </trkpt>
      <trkpt lat="48.30208" lon="7.28529">
        <ele>580.6</ele>
        <time>2016-08-21T07:50:23Z</time>
      </trkpt>
      <trkpt lat="48.30208" lon="7.28536">
        <ele>581.88</ele>
        <time>2016-08-21T07:50:28Z</time>
      </trkpt>
      <trkpt lat="48.30208" lon="7.28542">
        <ele>582.46</ele>
        <time>2016-08-21T07:50:35Z</time>
      </trkpt>
      <trkpt lat="48.30207" lon="7.28548">
        <ele>584.95</ele>
        <time>2016-08-21T07:50:49Z</time>
      </trkpt>
      <trkpt lat="48.30205" lon="7.28561">
        <ele>588.26</ele>
        <time>2016-08-21T07:51:13Z</time>
      </trkpt>
      <trkpt lat="48.302" lon="7.2858">
        <ele>591.31</ele>
        <time>2016-08-21T07:51:33Z</time>
      </trkpt>
      <trkpt lat="48.30189" lon="7.28616">
        <ele>593.84</ele>
        <time>2016-08-21T07:51:56Z</time>
      </trkpt>
      <trkpt lat="48.30185" lon="7.2864">
        <ele>595.86</ele>
        <time>2016-08-21T07:52:18Z</time>
      </trkpt>
      <trkpt lat="48.30175" lon="7.28664">
        <ele>598.29</ele>
        <time>2016-08-21T07:52:42Z</time>
      </trkpt>
      <trkpt lat="48.30164" lon="7.28691">
        <ele>600.54</ele>
        <time>2016-08-21T07:53:05Z</time>
      </trkpt>
      <trkpt lat="48.30153" lon="7.28704">
        <ele>603.5</ele>
        <time>2016-08-21T07:53:26Z</time>
      </trkpt>
      <trkpt lat="48.30147" lon="7.28726">
        <ele>604.8</ele>
        <time>2016-08-21T07:53:47Z</time>
      </trkpt>
      <trkpt lat="48.30134" lon="7.28754">
        <ele>606.12</ele>
        <time>2016-08-21T07:54:09Z</time>
      </trkpt>
      <trkpt lat="48.30131" lon="7.28774">
        <ele>608.53</ele>
        <time>2016-08-21T07:54:28Z</time>
      </trkpt>
      <trkpt lat="48.30126" lon="7.28799">
        <ele>610.2</ele>
        <time>2016-08-21T07:54:50Z</time>
      </trkpt>
      <trkpt lat="48.3011" lon="7.28811">
        <ele>610.44</ele>
        <time>2016-08-21T07:54:57Z</time>
      </trkpt>
      <trkpt lat="48.3012" lon="7.28819">
        <ele>609.48</ele>
        <time>2016-08-21T07:55:21Z</time>
      </trkpt>
      <trkpt lat="48.30121" lon="7.28819">
        <ele>609.26</ele>
        <time>2016-08-21T07:55:22Z</time>
      </trkpt>
      <trkpt lat="48.3014" lon="7.28863">
        <ele>610.01</ele>
        <time>2016-08-21T07:55:35Z</time>
      </trkpt>
      <trkpt lat="48.30145" lon="7.28874">
        <ele>610.4</ele>
        <time>2016-08-21T07:55:48Z</time>
      </trkpt>
      <trkpt lat="48.30151" lon="7.28867">
        <ele>610.4</ele>
        <time>2016-08-21T07:56:01Z</time>
      </trkpt>
      <trkpt lat="48.30159" lon="7.28857">
        <ele>610.78</ele>
        <time>2016-08-21T07:56:19Z</time>
      </trkpt>
      <trkpt lat="48.30169" lon="7.28848">
        <ele>611.27</ele>
        <time>2016-08-21T07:56:34Z</time>
      </trkpt>
      <trkpt lat="48.3017" lon="7.28844">
        <ele>611.03</ele>
        <time>2016-08-21T07:56:38Z</time>
      </trkpt>
      <trkpt lat="48.30172" lon="7.28842">
        <ele>610.96</ele>
        <time>2016-08-21T07:56:41Z</time>
      </trkpt>
      <trkpt lat="48.30184" lon="7.28827">
        <ele>611.34</ele>
        <time>2016-08-21T07:56:56Z</time>
      </trkpt>
      <trkpt lat="48.30187" lon="7.28821">
        <ele>612.18</ele>
        <time>2016-08-21T07:57:03Z</time>
      </trkpt>
      <trkpt lat="48.30192" lon="7.28816">
        <ele>612.52</ele>
        <time>2016-08-21T07:57:10Z</time>
      </trkpt>
      <trkpt lat="48.30201" lon="7.28806">
        <ele>613.56</ele>
        <time>2016-08-21T07:57:25Z</time>
      </trkpt>
      <trkpt lat="48.30201" lon="7.28804">
        <ele>613.11</ele>
        <time>2016-08-21T07:57:26Z</time>
      </trkpt>
      <trkpt lat="48.30208" lon="7.28802">
        <ele>613.29</ele>
        <time>2016-08-21T07:57:35Z</time>
      </trkpt>
      <trkpt lat="48.30208" lon="7.288">
        <ele>614.4</ele>
        <time>2016-08-21T07:57:36Z</time>
      </trkpt>
      <trkpt lat="48.30209" lon="7.28795">
        <ele>613.59</ele>
        <time>2016-08-21T07:57:38Z</time>
      </trkpt>
      <trkpt lat="48.30219" lon="7.28778">
        <ele>615.01</ele>
        <time>2016-08-21T07:57:57Z</time>
      </trkpt>
      <trkpt lat="48.3023" lon="7.28755">
        <ele>614.58</ele>
        <time>2016-08-21T07:58:20Z</time>
      </trkpt>
      <trkpt lat="48.30241" lon="7.28736">
        <ele>615.63</ele>
        <time>2016-08-21T07:58:39Z</time>
      </trkpt>
      <trkpt lat="48.30248" lon="7.28724">
        <ele>616.44</ele>
        <time>2016-08-21T07:58:56Z</time>
      </trkpt>
      <trkpt lat="48.30257" lon="7.28708">
        <ele>616.65</ele>
        <time>2016-08-21T07:59:11Z</time>
      </trkpt>
      <trkpt lat="48.30268" lon="7.28693">
        <ele>616.2</ele>
        <time>2016-08-21T07:59:27Z</time>
      </trkpt>
      <trkpt lat="48.30281" lon="7.28684">
        <ele>617.58</ele>
        <time>2016-08-21T07:59:43Z</time>
      </trkpt>
      <trkpt lat="48.30294" lon="7.28662">
        <ele>619.09</ele>
        <time>2016-08-21T08:00:06Z</time>
      </trkpt>
      <trkpt lat="48.30309" lon="7.28642">
        <ele>621.7</ele>
        <time>2016-08-21T08:00:29Z</time>
      </trkpt>
      <trkpt lat="48.30319" lon="7.28634">
        <ele>622.48</ele>
        <time>2016-08-21T08:00:45Z</time>
      </trkpt>
      <trkpt lat="48.30334" lon="7.28628">
        <ele>623.3</ele>
        <time>2016-08-21T08:01:01Z</time>
      </trkpt>
      <trkpt lat="48.30335" lon="7.28622">
        <ele>623.02</ele>
        <time>2016-08-21T08:01:18Z</time>
      </trkpt>
      <trkpt lat="48.30336" lon="7.28622">
        <ele>623.06</ele>
        <time>2016-08-21T08:01:19Z</time>
      </trkpt>
      <trkpt lat="48.30339" lon="7.28624">
        <ele>623.55</ele>
        <time>2016-08-21T08:01:23Z</time>
      </trkpt>
      <trkpt lat="48.30341" lon="7.28616">
        <ele>624.08</ele>
        <time>2016-08-21T08:01:50Z</time>
      </trkpt>
      <trkpt lat="48.30336" lon="7.2861">
        <ele>623.9</ele>
        <time>2016-08-21T08:02:18Z</time>
      </trkpt>
      <trkpt lat="48.30339" lon="7.28606">
        <ele>623.59</ele>
        <time>2016-08-21T08:02:44Z</time>
      </trkpt>
      <trkpt lat="48.30337" lon="7.28604">
        <ele>625.2</ele>
        <time>2016-08-21T08:03:08Z</time>
      </trkpt>
      <trkpt lat="48.30339" lon="7.28605">
        <ele>626.87</ele>
        <time>2016-08-21T08:03:33Z</time>
      </trkpt>
      <trkpt lat="48.30345" lon="7.28616">
        <ele>628.87</ele>
        <time>2016-08-21T08:03:48Z</time>
      </trkpt>
      <trkpt lat="48.30354" lon="7.2863">
        <ele>631.98</ele>
        <time>2016-08-21T08:04:07Z</time>
      </trkpt>
      <trkpt lat="48.30358" lon="7.28642">
        <ele>635.39</ele>
        <time>2016-08-21T08:04:21Z</time>
      </trkpt>
      <trkpt lat="48.30359" lon="7.28644">
        <ele>635.43</ele>
        <time>2016-08-21T08:04:24Z</time>
      </trkpt>
      <trkpt lat="48.30361" lon="7.28646">
        <ele>635.29</ele>
        <time>2016-08-21T08:04:28Z</time>
      </trkpt>
      <trkpt lat="48.30363" lon="7.28647">
        <ele>637.36</ele>
        <time>2016-08-21T08:04:32Z</time>
      </trkpt>
      <trkpt lat="48.30371" lon="7.28668">
        <ele>639.41</ele>
        <time>2016-08-21T08:04:56Z</time>
      </trkpt>
      <trkpt lat="48.3038" lon="7.28682">
        <ele>640.81</ele>
        <time>2016-08-21T08:05:17Z</time>
      </trkpt>
      <trkpt lat="48.30388" lon="7.28696">
        <ele>644.73</ele>
        <time>2016-08-21T08:05:36Z</time>
      </trkpt>
      <trkpt lat="48.30394" lon="7.28705">
        <ele>645.59</ele>
        <time>2016-08-21T08:05:50Z</time>
      </trkpt>
      <trkpt lat="48.30404" lon="7.28717">
        <ele>648.19</ele>
        <time>2016-08-21T08:06:03Z</time>
      </trkpt>
      <trkpt lat="48.30406" lon="7.28722">
        <ele>649.27</ele>
        <time>2016-08-21T08:06:10Z</time>
      </trkpt>
      <trkpt lat="48.30423" lon="7.2874">
        <ele>652.4</ele>
        <time>2016-08-21T08:06:31Z</time>
      </trkpt>
      <trkpt lat="48.30435" lon="7.28754">
        <ele>654.63</ele>
        <time>2016-08-21T08:06:53Z</time>
      </trkpt>
      <trkpt lat="48.30442" lon="7.28759">
        <ele>655.55</ele>
        <time>2016-08-21T08:06:57Z</time>
      </trkpt>
      <trkpt lat="48.30446" lon="7.28764">
        <ele>659.35</ele>
        <time>2016-08-21T08:07:13Z</time>
      </trkpt>
      <trkpt lat="48.30447" lon="7.28775">
        <ele>658.27</ele>
        <time>2016-08-21T08:07:31Z</time>
      </trkpt>
      <trkpt lat="48.30448" lon="7.28782">
        <ele>661.34</ele>
        <time>2016-08-21T08:07:47Z</time>
      </trkpt>
      <trkpt lat="48.30449" lon="7.28785">
        <ele>661.58</ele>
        <time>2016-08-21T08:07:53Z</time>
      </trkpt>
      <trkpt lat="48.3045" lon="7.28788">
        <ele>661.9</ele>
        <time>2016-08-21T08:07:55Z</time>
      </trkpt>
      <trkpt lat="48.30451" lon="7.28796">
        <ele>664.77</ele>
        <time>2016-08-21T08:08:04Z</time>
      </trkpt>
      <trkpt lat="48.30452" lon="7.28806">
        <ele>665.99</ele>
        <time>2016-08-21T08:08:17Z</time>
      </trkpt>
      <trkpt lat="48.30457" lon="7.28812">
        <ele>669.59</ele>
        <time>2016-08-21T08:08:28Z</time>
      </trkpt>
      <trkpt lat="48.30456" lon="7.28819">
        <ele>668.76</ele>
        <time>2016-08-21T08:08:34Z</time>
      </trkpt>
      <trkpt lat="48.30457" lon="7.28826">
        <ele>672.03</ele>
        <time>2016-08-21T08:08:42Z</time>
      </trkpt>
      <trkpt lat="48.30459" lon="7.28838">
        <ele>672.74</ele>
        <time>2016-08-21T08:08:57Z</time>
      </trkpt>
      <trkpt lat="48.3046" lon="7.28849">
        <ele>676.16</ele>
        <time>2016-08-21T08:09:09Z</time>
      </trkpt>
      <trkpt lat="48.30459" lon="7.28865">
        <ele>678.87</ele>
        <time>2016-08-21T08:09:30Z</time>
      </trkpt>
      <trkpt lat="48.30468" lon="7.28882">
        <ele>680.18</ele>
        <time>2016-08-21T08:09:49Z</time>
      </trkpt>
      <trkpt lat="48.30471" lon="7.28893">
        <ele>684.13</ele>
        <time>2016-08-21T08:10:04Z</time>
      </trkpt>
      <trkpt lat="48.30476" lon="7.28906">
        <ele>684.59</ele>
        <time>2016-08-21T08:10:21Z</time>
      </trkpt>
      <trkpt lat="48.3048" lon="7.28915">
        <ele>687.29</ele>
        <time>2016-08-21T08:10:35Z</time>
      </trkpt>
      <trkpt lat="48.30481" lon="7.28929">
        <ele>691.31</ele>
        <time>2016-08-21T08:10:53Z</time>
      </trkpt>
      <trkpt lat="48.3048" lon="7.28938">
        <ele>692.96</ele>
        <time>2016-08-21T08:11:16Z</time>
      </trkpt>
      <trkpt lat="48.30476" lon="7.28942">
        <ele>693.54</ele>
        <time>2016-08-21T08:11:36Z</time>
      </trkpt>
      <trkpt lat="48.30473" lon="7.28948">
        <ele>696.72</ele>
        <time>2016-08-21T08:11:48Z</time>
      </trkpt>
      <trkpt lat="48.30459" lon="7.28961">
        <ele>699.41</ele>
        <time>2016-08-21T08:12:08Z</time>
      </trkpt>
      <trkpt lat="48.30443" lon="7.28966">
        <ele>701.6</ele>
        <time>2016-08-21T08:12:32Z</time>
      </trkpt>
      <trkpt lat="48.30442" lon="7.28966">
        <ele>701.26</ele>
        <time>2016-08-21T08:12:33Z</time>
      </trkpt>
      <trkpt lat="48.30442" lon="7.28966">
        <ele>700.21</ele>
        <time>2016-08-21T08:12:34Z</time>
      </trkpt>
      <trkpt lat="48.30439" lon="7.28966">
        <ele>703.57</ele>
        <time>2016-08-21T08:12:39Z</time>
      </trkpt>
      <trkpt lat="48.3042" lon="7.28973">
        <ele>703.34</ele>
        <time>2016-08-21T08:12:51Z</time>
      </trkpt>
      <trkpt lat="48.30415" lon="7.28975">
        <ele>704</ele>
        <time>2016-08-21T08:13:01Z</time>
      </trkpt>
      <trkpt lat="48.30406" lon="7.28982">
        <ele>703.59</ele>
        <time>2016-08-21T08:13:14Z</time>
      </trkpt>
      <trkpt lat="48.30403" lon="7.28988">
        <ele>703.34</ele>
        <time>2016-08-21T08:13:19Z</time>
      </trkpt>
      <trkpt lat="48.30405" lon="7.28986">
        <ele>704.02</ele>
        <time>2016-08-21T08:13:41Z</time>
      </trkpt>
      <trkpt lat="48.30413" lon="7.28989">
        <ele>704.35</ele>
        <time>2016-08-21T08:14:12Z</time>
      </trkpt>
      <trkpt lat="48.30413" lon="7.2899">
        <ele>704.7</ele>
        <time>2016-08-21T08:14:21Z</time>
      </trkpt>
      <trkpt lat="48.30416" lon="7.28982">
        <ele>705.77</ele>
        <time>2016-08-21T08:14:48Z</time>
      </trkpt>
      <trkpt lat="48.30416" lon="7.28985">
        <ele>705.06</ele>
        <time>2016-08-21T08:15:03Z</time>
      </trkpt>
      <trkpt lat="48.30406" lon="7.28986">
        <ele>705.55</ele>
        <time>2016-08-21T08:15:26Z</time>
      </trkpt>
      <trkpt lat="48.30403" lon="7.28987">
        <ele>705.13</ele>
        <time>2016-08-21T08:15:40Z</time>
      </trkpt>
      <trkpt lat="48.30405" lon="7.28987">
        <ele>703.25</ele>
        <time>2016-08-21T08:16:07Z</time>
      </trkpt>
      <trkpt lat="48.30405" lon="7.28986">
        <ele>703.58</ele>
        <time>2016-08-21T08:16:11Z</time>
      </trkpt>
      <trkpt lat="48.30414" lon="7.28982">
        <ele>701.76</ele>
        <time>2016-08-21T08:16:25Z</time>
      </trkpt>
      <trkpt lat="48.30409" lon="7.28984">
        <ele>702.5</ele>
        <time>2016-08-21T08:16:40Z</time>
      </trkpt>
      <trkpt lat="48.30403" lon="7.28981">
        <ele>703.17</ele>
        <time>2016-08-21T08:16:52Z</time>
      </trkpt>
      <trkpt lat="48.30398" lon="7.28989">
        <ele>704.5</ele>
        <time>2016-08-21T08:17:09Z</time>
      </trkpt>
      <trkpt lat="48.30394" lon="7.28983">
        <ele>707.45</ele>
        <time>2016-08-21T08:17:36Z</time>
      </trkpt>
      <trkpt lat="48.30388" lon="7.28988">
        <ele>708.32</ele>
        <time>2016-08-21T08:17:47Z</time>
      </trkpt>
      <trkpt lat="48.30387" lon="7.28989">
        <ele>709.44</ele>
        <time>2016-08-21T08:17:56Z</time>
      </trkpt>
      <trkpt lat="48.30383" lon="7.2899">
        <ele>712.82</ele>
        <time>2016-08-21T08:18:07Z</time>
      </trkpt>
      <trkpt lat="48.30381" lon="7.28996">
        <ele>716.07</ele>
        <time>2016-08-21T08:18:23Z</time>
      </trkpt>
      <trkpt lat="48.30379" lon="7.29001">
        <ele>716.33</ele>
        <time>2016-08-21T08:18:32Z</time>
      </trkpt>
      <trkpt lat="48.30381" lon="7.29014">
        <ele>717.46</ele>
        <time>2016-08-21T08:18:50Z</time>
      </trkpt>
      <trkpt lat="48.30378" lon="7.29027">
        <ele>718.44</ele>
        <time>2016-08-21T08:19:05Z</time>
      </trkpt>
      <trkpt lat="48.3038" lon="7.29036">
        <ele>722.34</ele>
        <time>2016-08-21T08:19:18Z</time>
      </trkpt>
      <trkpt lat="48.30388" lon="7.29046">
        <ele>723.18</ele>
        <time>2016-08-21T08:19:35Z</time>
      </trkpt>
      <trkpt lat="48.30389" lon="7.29048">
        <ele>724.43</ele>
        <time>2016-08-21T08:19:41Z</time>
      </trkpt>
      <trkpt lat="48.30383" lon="7.2905">
        <ele>727.97</ele>
        <time>2016-08-21T08:19:54Z</time>
      </trkpt>
      <trkpt lat="48.30388" lon="7.29049">
        <ele>728.63</ele>
        <time>2016-08-21T08:20:10Z</time>
      </trkpt>
      <trkpt lat="48.30395" lon="7.29045">
        <ele>727.08</ele>
        <time>2016-08-21T08:20:20Z</time>
      </trkpt>
      <trkpt lat="48.30404" lon="7.29038">
        <ele>726.77</ele>
        <time>2016-08-21T08:20:34Z</time>
      </trkpt>
      <trkpt lat="48.30404" lon="7.2902">
        <ele>724.44</ele>
        <time>2016-08-21T08:20:50Z</time>
      </trkpt>
      <trkpt lat="48.30404" lon="7.29005">
        <ele>724.15</ele>
        <time>2016-08-21T08:21:09Z</time>
      </trkpt>
      <trkpt lat="48.304" lon="7.29003">
        <ele>723.41</ele>
        <time>2016-08-21T08:21:31Z</time>
      </trkpt>
      <trkpt lat="48.30406" lon="7.29002">
        <ele>723.09</ele>
        <time>2016-08-21T08:21:48Z</time>
      </trkpt>
      <trkpt lat="48.30408" lon="7.29003">
        <ele>722.82</ele>
        <time>2016-08-21T08:22:09Z</time>
      </trkpt>
      <trkpt lat="48.30405" lon="7.29">
        <ele>723.83</ele>
        <time>2016-08-21T08:22:25Z</time>
      </trkpt>
      <trkpt lat="48.30406" lon="7.29003">
        <ele>723.63</ele>
        <time>2016-08-21T08:22:44Z</time>
      </trkpt>
      <trkpt lat="48.30408" lon="7.29004">
        <ele>722.96</ele>
        <time>2016-08-21T08:23:02Z</time>
      </trkpt>
      <trkpt lat="48.30407" lon="7.29004">
        <ele>723.44</ele>
        <time>2016-08-21T08:23:16Z</time>
      </trkpt>
      <trkpt lat="48.30405" lon="7.29004">
        <ele>723.87</ele>
        <time>2016-08-21T08:23:32Z</time>
      </trkpt>
      <trkpt lat="48.30406" lon="7.28999">
        <ele>724.82</ele>
        <time>2016-08-21T08:23:58Z</time>
      </trkpt>
      <trkpt lat="48.30406" lon="7.28998">
        <ele>724.92</ele>
        <time>2016-08-21T08:24:26Z</time>
      </trkpt>
      <trkpt lat="48.30407" lon="7.28996">
        <ele>725.04</ele>
        <time>2016-08-21T08:24:52Z</time>
      </trkpt>
      <trkpt lat="48.30408" lon="7.28997">
        <ele>724.61</ele>
        <time>2016-08-21T08:25:06Z</time>
      </trkpt>
      <trkpt lat="48.30408" lon="7.28996">
        <ele>726.45</ele>
        <time>2016-08-21T08:25:31Z</time>
      </trkpt>
      <trkpt lat="48.30408" lon="7.28996">
        <ele>719.52</ele>
        <time>2016-08-21T08:25:35Z</time>
      </trkpt>
      <trkpt lat="48.30408" lon="7.28996">
        <ele>727.63</ele>
        <time>2016-08-21T08:25:36Z</time>
      </trkpt>
      <trkpt lat="48.30407" lon="7.28996">
        <ele>725.58</ele>
        <time>2016-08-21T08:25:39Z</time>
      </trkpt>
      <trkpt lat="48.30408" lon="7.28997">
        <ele>726.34</ele>
        <time>2016-08-21T08:26:05Z</time>
      </trkpt>
      <trkpt lat="48.30408" lon="7.28999">
        <ele>729.72</ele>
        <time>2016-08-21T08:26:11Z</time>
      </trkpt>
      <trkpt lat="48.30408" lon="7.28999">
        <ele>726.5</ele>
        <time>2016-08-21T08:26:12Z</time>
      </trkpt>
      <trkpt lat="48.30408" lon="7.28998">
        <ele>725.65</ele>
        <time>2016-08-21T08:26:14Z</time>
      </trkpt>
      <trkpt lat="48.30408" lon="7.28997">
        <ele>722.09</ele>
        <time>2016-08-21T08:26:18Z</time>
      </trkpt>
      <trkpt lat="48.30407" lon="7.28997">
        <ele>726.97</ele>
        <time>2016-08-21T08:26:21Z</time>
      </trkpt>
      <trkpt lat="48.30405" lon="7.29">
        <ele>727.23</ele>
        <time>2016-08-21T08:26:48Z</time>
      </trkpt>
      <trkpt lat="48.30405" lon="7.29003">
        <ele>727.79</ele>
        <time>2016-08-21T08:27:14Z</time>
      </trkpt>
      <trkpt lat="48.30406" lon="7.29001">
        <ele>723.39</ele>
        <time>2016-08-21T08:27:29Z</time>
      </trkpt>
      <trkpt lat="48.30406" lon="7.29001">
        <ele>723.9</ele>
        <time>2016-08-21T08:27:30Z</time>
      </trkpt>
      <trkpt lat="48.30406" lon="7.29001">
        <ele>731.92</ele>
        <time>2016-08-21T08:27:31Z</time>
      </trkpt>
      <trkpt lat="48.30407" lon="7.29001">
        <ele>727.33</ele>
        <time>2016-08-21T08:27:32Z</time>
      </trkpt>
      <trkpt lat="48.30406" lon="7.29">
        <ele>727.26</ele>
        <time>2016-08-21T08:27:39Z</time>
      </trkpt>
      <trkpt lat="48.30407" lon="7.29002">
        <ele>728.75</ele>
        <time>2016-08-21T08:27:59Z</time>
      </trkpt>
      <trkpt lat="48.30406" lon="7.29001">
        <ele>727.42</ele>
        <time>2016-08-21T08:28:01Z</time>
      </trkpt>
      <trkpt lat="48.30406" lon="7.29001">
        <ele>727.68</ele>
        <time>2016-08-21T08:28:04Z</time>
      </trkpt>
      <trkpt lat="48.30404" lon="7.29">
        <ele>727.93</ele>
        <time>2016-08-21T08:28:28Z</time>
      </trkpt>
      <trkpt lat="48.30404" lon="7.29">
        <ele>729.32</ele>
        <time>2016-08-21T08:28:32Z</time>
      </trkpt>
      <trkpt lat="48.30404" lon="7.29">
        <ele>729.12</ele>
        <time>2016-08-21T08:29:10Z</time>
      </trkpt>
      <trkpt lat="48.30402" lon="7.28999">
        <ele>730.52</ele>
        <time>2016-08-21T08:29:52Z</time>
      </trkpt>
      <trkpt lat="48.30403" lon="7.28998">
        <ele>727.38</ele>
        <time>2016-08-21T08:30:13Z</time>
      </trkpt>
      <trkpt lat="48.30404" lon="7.28999">
        <ele>731.08</ele>
        <time>2016-08-21T08:30:27Z</time>
      </trkpt>
      <trkpt lat="48.30406" lon="7.29">
        <ele>729.87</ele>
        <time>2016-08-21T08:30:52Z</time>
      </trkpt>
      <trkpt lat="48.30408" lon="7.29006">
        <ele>729.78</ele>
        <time>2016-08-21T08:31:20Z</time>
      </trkpt>
      <trkpt lat="48.30409" lon="7.29006">
        <ele>726.04</ele>
        <time>2016-08-21T08:31:35Z</time>
      </trkpt>
      <trkpt lat="48.30409" lon="7.29005">
        <ele>736.9</ele>
        <time>2016-08-21T08:31:38Z</time>
      </trkpt>
      <trkpt lat="48.30408" lon="7.29005">
        <ele>732.07</ele>
        <time>2016-08-21T08:31:46Z</time>
      </trkpt>
      <trkpt lat="48.30407" lon="7.29007">
        <ele>731.95</ele>
        <time>2016-08-21T08:32:13Z</time>
      </trkpt>
      <trkpt lat="48.30405" lon="7.29007">
        <ele>731.69</ele>
        <time>2016-08-21T08:32:43Z</time>
      </trkpt>
      <trkpt lat="48.30404" lon="7.29008">
        <ele>732.59</ele>
        <time>2016-08-21T08:32:48Z</time>
      </trkpt>
      <trkpt lat="48.30407" lon="7.29009">
        <ele>733.72</ele>
        <time>2016-08-21T08:33:15Z</time>
      </trkpt>
      <trkpt lat="48.30405" lon="7.29017">
        <ele>734.15</ele>
        <time>2016-08-21T08:33:28Z</time>
      </trkpt>
      <trkpt lat="48.30405" lon="7.29033">
        <ele>736.26</ele>
        <time>2016-08-21T08:33:50Z</time>
      </trkpt>
      <trkpt lat="48.30404" lon="7.29036">
        <ele>737.74</ele>
        <time>2016-08-21T08:33:53Z</time>
      </trkpt>
      <trkpt lat="48.30406" lon="7.29048">
        <ele>738.29</ele>
        <time>2016-08-21T08:34:10Z</time>
      </trkpt>
      <trkpt lat="48.30406" lon="7.29049">
        <ele>739.85</ele>
        <time>2016-08-21T08:34:14Z</time>
      </trkpt>
      <trkpt lat="48.30404" lon="7.29051">
        <ele>740.76</ele>
        <time>2016-08-21T08:34:35Z</time>
      </trkpt>
      <trkpt lat="48.30401" lon="7.29061">
        <ele>743.08</ele>
        <time>2016-08-21T08:34:54Z</time>
      </trkpt>
      <trkpt lat="48.30396" lon="7.29075">
        <ele>743.27</ele>
        <time>2016-08-21T08:35:13Z</time>
      </trkpt>
      <trkpt lat="48.30393" lon="7.29093">
        <ele>744.41</ele>
        <time>2016-08-21T08:35:31Z</time>
      </trkpt>
      <trkpt lat="48.30388" lon="7.29116">
        <ele>745.28</ele>
        <time>2016-08-21T08:35:49Z</time>
      </trkpt>
      <trkpt lat="48.30382" lon="7.29131">
        <ele>743.22</ele>
        <time>2016-08-21T08:36:03Z</time>
      </trkpt>
      <trkpt lat="48.30382" lon="7.29132">
        <ele>748.15</ele>
        <time>2016-08-21T08:36:04Z</time>
      </trkpt>
      <trkpt lat="48.30375" lon="7.29151">
        <ele>747.58</ele>
        <time>2016-08-21T08:36:23Z</time>
      </trkpt>
      <trkpt lat="48.30372" lon="7.29171">
        <ele>749</ele>
        <time>2016-08-21T08:36:42Z</time>
      </trkpt>
      <trkpt lat="48.30368" lon="7.29185">
        <ele>750.31</ele>
        <time>2016-08-21T08:36:56Z</time>
      </trkpt>
      <trkpt lat="48.30365" lon="7.29207">
        <ele>751.38</ele>
        <time>2016-08-21T08:37:15Z</time>
      </trkpt>
      <trkpt lat="48.30353" lon="7.29227">
        <ele>750.66</ele>
        <time>2016-08-21T08:37:32Z</time>
      </trkpt>
      <trkpt lat="48.30352" lon="7.29244">
        <ele>751.09</ele>
        <time>2016-08-21T08:37:45Z</time>
      </trkpt>
      <trkpt lat="48.30346" lon="7.29259">
        <ele>749.47</ele>
        <time>2016-08-21T08:38:06Z</time>
      </trkpt>
      <trkpt lat="48.30342" lon="7.29265">
        <ele>748.68</ele>
        <time>2016-08-21T08:38:33Z</time>
      </trkpt>
      <trkpt lat="48.30341" lon="7.29269">
        <ele>747.19</ele>
        <time>2016-08-21T08:38:44Z</time>
      </trkpt>
      <trkpt lat="48.3034" lon="7.29275">
        <ele>745.5</ele>
        <time>2016-08-21T08:39:14Z</time>
      </trkpt>
      <trkpt lat="48.30334" lon="7.29275">
        <ele>742.89</ele>
        <time>2016-08-21T08:39:35Z</time>
      </trkpt>
      <trkpt lat="48.30333" lon="7.29277">
        <ele>741.97</ele>
        <time>2016-08-21T08:39:42Z</time>
      </trkpt>
      <trkpt lat="48.30325" lon="7.29294">
        <ele>739.5</ele>
        <time>2016-08-21T08:40:02Z</time>
      </trkpt>
      <trkpt lat="48.3032" lon="7.29323">
        <ele>736.31</ele>
        <time>2016-08-21T08:40:21Z</time>
      </trkpt>
      <trkpt lat="48.30319" lon="7.2933">
        <ele>735.37</ele>
        <time>2016-08-21T08:40:33Z</time>
      </trkpt>
      <trkpt lat="48.30321" lon="7.29349">
        <ele>734.95</ele>
        <time>2016-08-21T08:40:50Z</time>
      </trkpt>
      <trkpt lat="48.30316" lon="7.29361">
        <ele>733.72</ele>
        <time>2016-08-21T08:41:08Z</time>
      </trkpt>
      <trkpt lat="48.30318" lon="7.29369">
        <ele>733.41</ele>
        <time>2016-08-21T08:41:35Z</time>
      </trkpt>
      <trkpt lat="48.30314" lon="7.29387">
        <ele>734.21</ele>
        <time>2016-08-21T08:41:52Z</time>
      </trkpt>
      <trkpt lat="48.30314" lon="7.29395">
        <ele>734.75</ele>
        <time>2016-08-21T08:42:07Z</time>
      </trkpt>
      <trkpt lat="48.30312" lon="7.29395">
        <ele>734.99</ele>
        <time>2016-08-21T08:42:09Z</time>
      </trkpt>
      <trkpt lat="48.30308" lon="7.294">
        <ele>734.28</ele>
        <time>2016-08-21T08:42:32Z</time>
      </trkpt>
      <trkpt lat="48.30308" lon="7.29403">
        <ele>734.99</ele>
        <time>2016-08-21T08:42:54Z</time>
      </trkpt>
      <trkpt lat="48.30309" lon="7.29404">
        <ele>734.15</ele>
        <time>2016-08-21T08:43:00Z</time>
      </trkpt>
      <trkpt lat="48.30308" lon="7.29401">
        <ele>735.41</ele>
        <time>2016-08-21T08:43:27Z</time>
      </trkpt>
      <trkpt lat="48.30305" lon="7.29401">
        <ele>735.47</ele>
        <time>2016-08-21T08:43:50Z</time>
      </trkpt>
      <trkpt lat="48.30306" lon="7.29411">
        <ele>734.78</ele>
        <time>2016-08-21T08:44:14Z</time>
      </trkpt>
      <trkpt lat="48.30306" lon="7.2941">
        <ele>735.65</ele>
        <time>2016-08-21T08:44:29Z</time>
      </trkpt>
      <trkpt lat="48.30298" lon="7.29421">
        <ele>733.57</ele>
        <time>2016-08-21T08:44:50Z</time>
      </trkpt>
      <trkpt lat="48.30296" lon="7.29423">
        <ele>735.15</ele>
        <time>2016-08-21T08:44:53Z</time>
      </trkpt>
      <trkpt lat="48.30292" lon="7.29429">
        <ele>735.92</ele>
        <time>2016-08-21T08:44:59Z</time>
      </trkpt>
      <trkpt lat="48.30284" lon="7.29441">
        <ele>737.37</ele>
        <time>2016-08-21T08:45:11Z</time>
      </trkpt>
      <trkpt lat="48.30284" lon="7.29442">
        <ele>737.44</ele>
        <time>2016-08-21T08:45:12Z</time>
      </trkpt>
      <trkpt lat="48.30279" lon="7.29453">
        <ele>740.03</ele>
        <time>2016-08-21T08:45:24Z</time>
      </trkpt>
      <trkpt lat="48.30277" lon="7.29457">
        <ele>740.17</ele>
        <time>2016-08-21T08:45:28Z</time>
      </trkpt>
      <trkpt lat="48.30267" lon="7.29467">
        <ele>741.98</ele>
        <time>2016-08-21T08:45:41Z</time>
      </trkpt>
      <trkpt lat="48.30251" lon="7.29485">
        <ele>742.74</ele>
        <time>2016-08-21T08:46:03Z</time>
      </trkpt>
      <trkpt lat="48.30239" lon="7.29504">
        <ele>742.65</ele>
        <time>2016-08-21T08:46:19Z</time>
      </trkpt>
      <trkpt lat="48.30236" lon="7.2951">
        <ele>745.01</ele>
        <time>2016-08-21T08:46:25Z</time>
      </trkpt>
      <trkpt lat="48.30224" lon="7.29523">
        <ele>746.24</ele>
        <time>2016-08-21T08:46:43Z</time>
      </trkpt>
      <trkpt lat="48.30219" lon="7.29527">
        <ele>745.43</ele>
        <time>2016-08-21T08:46:48Z</time>
      </trkpt>
      <trkpt lat="48.30205" lon="7.29536">
        <ele>746.59</ele>
        <time>2016-08-21T08:47:02Z</time>
      </trkpt>
      <trkpt lat="48.30201" lon="7.29541">
        <ele>748.6</ele>
        <time>2016-08-21T08:47:08Z</time>
      </trkpt>
      <trkpt lat="48.30196" lon="7.29551">
        <ele>750.47</ele>
        <time>2016-08-21T08:47:16Z</time>
      </trkpt>
      <trkpt lat="48.30193" lon="7.29556">
        <ele>751.38</ele>
        <time>2016-08-21T08:47:20Z</time>
      </trkpt>
      <trkpt lat="48.30192" lon="7.29558">
        <ele>749.98</ele>
        <time>2016-08-21T08:47:22Z</time>
      </trkpt>
      <trkpt lat="48.30191" lon="7.29563">
        <ele>751.92</ele>
        <time>2016-08-21T08:47:24Z</time>
      </trkpt>
      <trkpt lat="48.30184" lon="7.2957">
        <ele>753.11</ele>
        <time>2016-08-21T08:47:34Z</time>
      </trkpt>
      <trkpt lat="48.30181" lon="7.29577">
        <ele>753.39</ele>
        <time>2016-08-21T08:47:38Z</time>
      </trkpt>
      <trkpt lat="48.30177" lon="7.29589">
        <ele>756.99</ele>
        <time>2016-08-21T08:47:47Z</time>
      </trkpt>
      <trkpt lat="48.30167" lon="7.29594">
        <ele>756.47</ele>
        <time>2016-08-21T08:47:59Z</time>
      </trkpt>
      <trkpt lat="48.30166" lon="7.29597">
        <ele>755.77</ele>
        <time>2016-08-21T08:48:02Z</time>
      </trkpt>
      <trkpt lat="48.30155" lon="7.29598">
        <ele>759</ele>
        <time>2016-08-21T08:48:16Z</time>
      </trkpt>
      <trkpt lat="48.30146" lon="7.29599">
        <ele>761.33</ele>
        <time>2016-08-21T08:48:29Z</time>
      </trkpt>
      <trkpt lat="48.30139" lon="7.29597">
        <ele>763.24</ele>
        <time>2016-08-21T08:48:39Z</time>
      </trkpt>
      <trkpt lat="48.30135" lon="7.29595">
        <ele>762.19</ele>
        <time>2016-08-21T08:48:43Z</time>
      </trkpt>
      <trkpt lat="48.30133" lon="7.29592">
        <ele>763.33</ele>
        <time>2016-08-21T08:48:47Z</time>
      </trkpt>
      <trkpt lat="48.30117" lon="7.29583">
        <ele>766.35</ele>
        <time>2016-08-21T08:49:04Z</time>
      </trkpt>
      <trkpt lat="48.30116" lon="7.29583">
        <ele>766.31</ele>
        <time>2016-08-21T08:49:05Z</time>
      </trkpt>
      <trkpt lat="48.30116" lon="7.29582">
        <ele>765.43</ele>
        <time>2016-08-21T08:49:06Z</time>
      </trkpt>
      <trkpt lat="48.30107" lon="7.29577">
        <ele>767.29</ele>
        <time>2016-08-21T08:49:20Z</time>
      </trkpt>
      <trkpt lat="48.30088" lon="7.29578">
        <ele>769.39</ele>
        <time>2016-08-21T08:49:39Z</time>
      </trkpt>
      <trkpt lat="48.30077" lon="7.29577">
        <ele>771.04</ele>
        <time>2016-08-21T08:49:46Z</time>
      </trkpt>
      <trkpt lat="48.30074" lon="7.29578">
        <ele>769.5</ele>
        <time>2016-08-21T08:49:48Z</time>
      </trkpt>
      <trkpt lat="48.30069" lon="7.29583">
        <ele>770.19</ele>
        <time>2016-08-21T08:49:53Z</time>
      </trkpt>
      <trkpt lat="48.30059" lon="7.29591">
        <ele>771.71</ele>
        <time>2016-08-21T08:50:11Z</time>
      </trkpt>
      <trkpt lat="48.30051" lon="7.29598">
        <ele>771.96</ele>
        <time>2016-08-21T08:50:26Z</time>
      </trkpt>
      <trkpt lat="48.3004" lon="7.29614">
        <ele>772.17</ele>
        <time>2016-08-21T08:50:39Z</time>
      </trkpt>
      <trkpt lat="48.30037" lon="7.29615">
        <ele>772.68</ele>
        <time>2016-08-21T08:50:42Z</time>
      </trkpt>
      <trkpt lat="48.30035" lon="7.29617">
        <ele>774.68</ele>
        <time>2016-08-21T08:50:46Z</time>
      </trkpt>
      <trkpt lat="48.30029" lon="7.29617">
        <ele>778.2</ele>
        <time>2016-08-21T08:50:55Z</time>
      </trkpt>
      <trkpt lat="48.30025" lon="7.29619">
        <ele>779.35</ele>
        <time>2016-08-21T08:51:08Z</time>
      </trkpt>
      <trkpt lat="48.30016" lon="7.29625">
        <ele>779.66</ele>
        <time>2016-08-21T08:51:25Z</time>
      </trkpt>
      <trkpt lat="48.30001" lon="7.29673">
        <ele>780.81</ele>
        <time>2016-08-21T08:51:49Z</time>
      </trkpt>
      <trkpt lat="48.29999" lon="7.29681">
        <ele>781.4</ele>
        <time>2016-08-21T08:51:54Z</time>
      </trkpt>
      <trkpt lat="48.29989" lon="7.29717">
        <ele>781.96</ele>
        <time>2016-08-21T08:52:14Z</time>
      </trkpt>
      <trkpt lat="48.29986" lon="7.29723">
        <ele>785.15</ele>
        <time>2016-08-21T08:52:21Z</time>
      </trkpt>
      <trkpt lat="48.29986" lon="7.29722">
        <ele>783.86</ele>
        <time>2016-08-21T08:52:22Z</time>
      </trkpt>
      <trkpt lat="48.29978" lon="7.29742">
        <ele>785.22</ele>
        <time>2016-08-21T08:52:46Z</time>
      </trkpt>
      <trkpt lat="48.29979" lon="7.29751">
        <ele>786.7</ele>
        <time>2016-08-21T08:52:55Z</time>
      </trkpt>
      <trkpt lat="48.29984" lon="7.29796">
        <ele>788.35</ele>
        <time>2016-08-21T08:53:17Z</time>
      </trkpt>
      <trkpt lat="48.29989" lon="7.29823">
        <ele>787.98</ele>
        <time>2016-08-21T08:53:33Z</time>
      </trkpt>
      <trkpt lat="48.29997" lon="7.29848">
        <ele>788.17</ele>
        <time>2016-08-21T08:53:44Z</time>
      </trkpt>
      <trkpt lat="48.30009" lon="7.29878">
        <ele>788.5</ele>
        <time>2016-08-21T08:54:06Z</time>
      </trkpt>
      <trkpt lat="48.30018" lon="7.29906">
        <ele>788.67</ele>
        <time>2016-08-21T08:54:24Z</time>
      </trkpt>
      <trkpt lat="48.30023" lon="7.29945">
        <ele>787.56</ele>
        <time>2016-08-21T08:54:45Z</time>
      </trkpt>
      <trkpt lat="48.30024" lon="7.29968">
        <ele>787.05</ele>
        <time>2016-08-21T08:55:01Z</time>
      </trkpt>
      <trkpt lat="48.30025" lon="7.29991">
        <ele>787.03</ele>
        <time>2016-08-21T08:55:13Z</time>
      </trkpt>
      <trkpt lat="48.30022" lon="7.30023">
        <ele>787.47</ele>
        <time>2016-08-21T08:55:30Z</time>
      </trkpt>
      <trkpt lat="48.30015" lon="7.30063">
        <ele>786.71</ele>
        <time>2016-08-21T08:55:55Z</time>
      </trkpt>
      <trkpt lat="48.30007" lon="7.3009">
        <ele>786.37</ele>
        <time>2016-08-21T08:56:14Z</time>
      </trkpt>
      <trkpt lat="48.30003" lon="7.30119">
        <ele>786.59</ele>
        <time>2016-08-21T08:56:30Z</time>
      </trkpt>
      <trkpt lat="48.29994" lon="7.30153">
        <ele>788.3</ele>
        <time>2016-08-21T08:56:49Z</time>
      </trkpt>
      <trkpt lat="48.29992" lon="7.30184">
        <ele>788.62</ele>
        <time>2016-08-21T08:57:03Z</time>
      </trkpt>
      <trkpt lat="48.2999" lon="7.30186">
        <ele>789.9</ele>
        <time>2016-08-21T08:57:08Z</time>
      </trkpt>
      <trkpt lat="48.29984" lon="7.30207">
        <ele>790.67</ele>
        <time>2016-08-21T08:57:24Z</time>
      </trkpt>
      <trkpt lat="48.29969" lon="7.30224">
        <ele>792.38</ele>
        <time>2016-08-21T08:57:42Z</time>
      </trkpt>
      <trkpt lat="48.29963" lon="7.30234">
        <ele>793.75</ele>
        <time>2016-08-21T08:57:56Z</time>
      </trkpt>
      <trkpt lat="48.29954" lon="7.30241">
        <ele>795.12</ele>
        <time>2016-08-21T08:58:12Z</time>
      </trkpt>
      <trkpt lat="48.29954" lon="7.30241">
        <ele>794.56</ele>
        <time>2016-08-21T08:58:13Z</time>
      </trkpt>
      <trkpt lat="48.29952" lon="7.30248">
        <ele>795.93</ele>
        <time>2016-08-21T08:58:18Z</time>
      </trkpt>
      <trkpt lat="48.2994" lon="7.30255">
        <ele>796.53</ele>
        <time>2016-08-21T08:58:36Z</time>
      </trkpt>
      <trkpt lat="48.29924" lon="7.30261">
        <ele>794.1</ele>
        <time>2016-08-21T08:58:54Z</time>
      </trkpt>
      <trkpt lat="48.2991" lon="7.30275">
        <ele>791.49</ele>
        <time>2016-08-21T08:59:11Z</time>
      </trkpt>
      <trkpt lat="48.29898" lon="7.30301">
        <ele>790.71</ele>
        <time>2016-08-21T08:59:34Z</time>
      </trkpt>
      <trkpt lat="48.2989" lon="7.30359">
        <ele>790.44</ele>
        <time>2016-08-21T08:59:48Z</time>
      </trkpt>
      <trkpt lat="48.29879" lon="7.30392">
        <ele>789.34</ele>
        <time>2016-08-21T09:00:07Z</time>
      </trkpt>
      <trkpt lat="48.29874" lon="7.30408">
        <ele>790.04</ele>
        <time>2016-08-21T09:00:19Z</time>
      </trkpt>
      <trkpt lat="48.29867" lon="7.3045">
        <ele>789.67</ele>
        <time>2016-08-21T09:00:42Z</time>
      </trkpt>
      <trkpt lat="48.29859" lon="7.30469">
        <ele>788.58</ele>
        <time>2016-08-21T09:00:57Z</time>
      </trkpt>
      <trkpt lat="48.29846" lon="7.30485">
        <ele>787.08</ele>
        <time>2016-08-21T09:01:09Z</time>
      </trkpt>
      <trkpt lat="48.29833" lon="7.30501">
        <ele>787.22</ele>
        <time>2016-08-21T09:01:25Z</time>
      </trkpt>
      <trkpt lat="48.29826" lon="7.30535">
        <ele>786.64</ele>
        <time>2016-08-21T09:01:40Z</time>
      </trkpt>
      <trkpt lat="48.29819" lon="7.30564">
        <ele>788.02</ele>
        <time>2016-08-21T09:01:57Z</time>
      </trkpt>
      <trkpt lat="48.29816" lon="7.30567">
        <ele>788.71</ele>
        <time>2016-08-21T09:02:01Z</time>
      </trkpt>
      <trkpt lat="48.29808" lon="7.30577">
        <ele>789.69</ele>
        <time>2016-08-21T09:02:11Z</time>
      </trkpt>
      <trkpt lat="48.29805" lon="7.30584">
        <ele>790.53</ele>
        <time>2016-08-21T09:02:15Z</time>
      </trkpt>
      <trkpt lat="48.29792" lon="7.30591">
        <ele>792.23</ele>
        <time>2016-08-21T09:02:26Z</time>
      </trkpt>
      <trkpt lat="48.29775" lon="7.30613">
        <ele>793.59</ele>
        <time>2016-08-21T09:02:49Z</time>
      </trkpt>
      <trkpt lat="48.29762" lon="7.30623">
        <ele>796.45</ele>
        <time>2016-08-21T09:03:02Z</time>
      </trkpt>
      <trkpt lat="48.29752" lon="7.30633">
        <ele>796.26</ele>
        <time>2016-08-21T09:03:14Z</time>
      </trkpt>
      <trkpt lat="48.2974" lon="7.30645">
        <ele>797.64</ele>
        <time>2016-08-21T09:03:26Z</time>
      </trkpt>
      <trkpt lat="48.29736" lon="7.30652">
        <ele>797.03</ele>
        <time>2016-08-21T09:03:32Z</time>
      </trkpt>
      <trkpt lat="48.29728" lon="7.30672">
        <ele>799.3</ele>
        <time>2016-08-21T09:03:47Z</time>
      </trkpt>
      <trkpt lat="48.29718" lon="7.30687">
        <ele>798.49</ele>
        <time>2016-08-21T09:03:54Z</time>
      </trkpt>
      <trkpt lat="48.29709" lon="7.30686">
        <ele>798.11</ele>
        <time>2016-08-21T09:04:17Z</time>
      </trkpt>
      <trkpt lat="48.2971" lon="7.30685">
        <ele>797.19</ele>
        <time>2016-08-21T09:04:35Z</time>
      </trkpt>
      <trkpt lat="48.29713" lon="7.30686">
        <ele>797.65</ele>
        <time>2016-08-21T09:04:38Z</time>
      </trkpt>
      <trkpt lat="48.29729" lon="7.30687">
        <ele>798.19</ele>
        <time>2016-08-21T09:05:07Z</time>
      </trkpt>
      <trkpt lat="48.2973" lon="7.30681">
        <ele>798.17</ele>
        <time>2016-08-21T09:05:33Z</time>
      </trkpt>
      <trkpt lat="48.29732" lon="7.30675">
        <ele>798.36</ele>
        <time>2016-08-21T09:06:01Z</time>
      </trkpt>
      <trkpt lat="48.29736" lon="7.3068">
        <ele>799.39</ele>
        <time>2016-08-21T09:06:27Z</time>
      </trkpt>
      <trkpt lat="48.29738" lon="7.3069">
        <ele>799.48</ele>
        <time>2016-08-21T09:06:53Z</time>
      </trkpt>
      <trkpt lat="48.29733" lon="7.30689">
        <ele>801.04</ele>
        <time>2016-08-21T09:07:19Z</time>
      </trkpt>
      <trkpt lat="48.29733" lon="7.30686">
        <ele>800.41</ele>
        <time>2016-08-21T09:07:48Z</time>
      </trkpt>
      <trkpt lat="48.29736" lon="7.3069">
        <ele>801.28</ele>
        <time>2016-08-21T09:08:18Z</time>
      </trkpt>
      <trkpt lat="48.29733" lon="7.30691">
        <ele>802.28</ele>
        <time>2016-08-21T09:08:31Z</time>
      </trkpt>
      <trkpt lat="48.29734" lon="7.30688">
        <ele>802.44</ele>
        <time>2016-08-21T09:09:01Z</time>
      </trkpt>
      <trkpt lat="48.29732" lon="7.30691">
        <ele>801.87</ele>
        <time>2016-08-21T09:09:38Z</time>
      </trkpt>
      <trkpt lat="48.29735" lon="7.30685">
        <ele>802.97</ele>
        <time>2016-08-21T09:10:01Z</time>
      </trkpt>
      <trkpt lat="48.29732" lon="7.30688">
        <ele>803.74</ele>
        <time>2016-08-21T09:10:15Z</time>
      </trkpt>
      <trkpt lat="48.29721" lon="7.30697">
        <ele>804.06</ele>
        <time>2016-08-21T09:10:29Z</time>
      </trkpt>
      <trkpt lat="48.29716" lon="7.30713">
        <ele>805.55</ele>
        <time>2016-08-21T09:10:41Z</time>
      </trkpt>
      <trkpt lat="48.29711" lon="7.30726">
        <ele>806.24</ele>
        <time>2016-08-21T09:10:50Z</time>
      </trkpt>
      <trkpt lat="48.29709" lon="7.30743">
        <ele>806.79</ele>
        <time>2016-08-21T09:11:01Z</time>
      </trkpt>
      <trkpt lat="48.29705" lon="7.30769">
        <ele>810.28</ele>
        <time>2016-08-21T09:11:20Z</time>
      </trkpt>
      <trkpt lat="48.29706" lon="7.30792">
        <ele>810.87</ele>
        <time>2016-08-21T09:11:34Z</time>
      </trkpt>
      <trkpt lat="48.29704" lon="7.30803">
        <ele>810.43</ele>
        <time>2016-08-21T09:11:42Z</time>
      </trkpt>
      <trkpt lat="48.29704" lon="7.30818">
        <ele>811.27</ele>
        <time>2016-08-21T09:11:51Z</time>
      </trkpt>
      <trkpt lat="48.29704" lon="7.30824">
        <ele>812.73</ele>
        <time>2016-08-21T09:11:54Z</time>
      </trkpt>
      <trkpt lat="48.29704" lon="7.30829">
        <ele>813.13</ele>
        <time>2016-08-21T09:11:58Z</time>
      </trkpt>
      <trkpt lat="48.29701" lon="7.30849">
        <ele>812.97</ele>
        <time>2016-08-21T09:12:10Z</time>
      </trkpt>
      <trkpt lat="48.29699" lon="7.30858">
        <ele>813.25</ele>
        <time>2016-08-21T09:12:18Z</time>
      </trkpt>
      <trkpt lat="48.29697" lon="7.30878">
        <ele>814.02</ele>
        <time>2016-08-21T09:12:29Z</time>
      </trkpt>
      <trkpt lat="48.2969" lon="7.30904">
        <ele>816.1</ele>
        <time>2016-08-21T09:12:43Z</time>
      </trkpt>
      <trkpt lat="48.2969" lon="7.30906">
        <ele>816.52</ele>
        <time>2016-08-21T09:12:44Z</time>
      </trkpt>
      <trkpt lat="48.29689" lon="7.30907">
        <ele>816.19</ele>
        <time>2016-08-21T09:12:46Z</time>
      </trkpt>
      <trkpt lat="48.29682" lon="7.30927">
        <ele>817.84</ele>
        <time>2016-08-21T09:12:58Z</time>
      </trkpt>
      <trkpt lat="48.2968" lon="7.30932">
        <ele>817.58</ele>
        <time>2016-08-21T09:13:03Z</time>
      </trkpt>
      <trkpt lat="48.29677" lon="7.30942">
        <ele>818.43</ele>
        <time>2016-08-21T09:13:10Z</time>
      </trkpt>
      <trkpt lat="48.29668" lon="7.30951">
        <ele>819.39</ele>
        <time>2016-08-21T09:13:21Z</time>
      </trkpt>
      <trkpt lat="48.29663" lon="7.30958">
        <ele>819.72</ele>
        <time>2016-08-21T09:13:27Z</time>
      </trkpt>
      <trkpt lat="48.29657" lon="7.30965">
        <ele>819.94</ele>
        <time>2016-08-21T09:13:35Z</time>
      </trkpt>
      <trkpt lat="48.29642" lon="7.30976">
        <ele>820.81</ele>
        <time>2016-08-21T09:13:47Z</time>
      </trkpt>
      <trkpt lat="48.29635" lon="7.30978">
        <ele>820.37</ele>
        <time>2016-08-21T09:13:52Z</time>
      </trkpt>
      <trkpt lat="48.29629" lon="7.3098">
        <ele>820.7</ele>
        <time>2016-08-21T09:13:56Z</time>
      </trkpt>
      <trkpt lat="48.29626" lon="7.30981">
        <ele>820.49</ele>
        <time>2016-08-21T09:13:59Z</time>
      </trkpt>
      <trkpt lat="48.29615" lon="7.3099">
        <ele>820.67</ele>
        <time>2016-08-21T09:14:09Z</time>
      </trkpt>
      <trkpt lat="48.29605" lon="7.31005">
        <ele>820.92</ele>
        <time>2016-08-21T09:14:28Z</time>
      </trkpt>
      <trkpt lat="48.29602" lon="7.31013">
        <ele>821.06</ele>
        <time>2016-08-21T09:14:33Z</time>
      </trkpt>
      <trkpt lat="48.29593" lon="7.31028">
        <ele>822.87</ele>
        <time>2016-08-21T09:14:42Z</time>
      </trkpt>
      <trkpt lat="48.29581" lon="7.31046">
        <ele>824.27</ele>
        <time>2016-08-21T09:14:51Z</time>
      </trkpt>
      <trkpt lat="48.29578" lon="7.31051">
        <ele>824.74</ele>
        <time>2016-08-21T09:14:57Z</time>
      </trkpt>
      <trkpt lat="48.29575" lon="7.31056">
        <ele>824.69</ele>
        <time>2016-08-21T09:15:03Z</time>
      </trkpt>
      <trkpt lat="48.29564" lon="7.31074">
        <ele>826.46</ele>
        <time>2016-08-21T09:15:16Z</time>
      </trkpt>
      <trkpt lat="48.29549" lon="7.311">
        <ele>827.13</ele>
        <time>2016-08-21T09:15:36Z</time>
      </trkpt>
      <trkpt lat="48.29547" lon="7.31102">
        <ele>827.8</ele>
        <time>2016-08-21T09:15:37Z</time>
      </trkpt>
      <trkpt lat="48.29544" lon="7.31108">
        <ele>829.43</ele>
        <time>2016-08-21T09:15:41Z</time>
      </trkpt>
      <trkpt lat="48.29538" lon="7.31122">
        <ele>829.61</ele>
        <time>2016-08-21T09:15:50Z</time>
      </trkpt>
      <trkpt lat="48.29531" lon="7.31138">
        <ele>831.48</ele>
        <time>2016-08-21T09:16:03Z</time>
      </trkpt>
      <trkpt lat="48.29529" lon="7.31141">
        <ele>831.88</ele>
        <time>2016-08-21T09:16:07Z</time>
      </trkpt>
      <trkpt lat="48.29528" lon="7.31156">
        <ele>832.46</ele>
        <time>2016-08-21T09:16:19Z</time>
      </trkpt>
      <trkpt lat="48.29525" lon="7.31184">
        <ele>834.26</ele>
        <time>2016-08-21T09:16:33Z</time>
      </trkpt>
      <trkpt lat="48.29526" lon="7.31193">
        <ele>835.02</ele>
        <time>2016-08-21T09:16:38Z</time>
      </trkpt>
      <trkpt lat="48.29521" lon="7.31214">
        <ele>834.75</ele>
        <time>2016-08-21T09:16:49Z</time>
      </trkpt>
      <trkpt lat="48.29524" lon="7.31227">
        <ele>835.12</ele>
        <time>2016-08-21T09:16:58Z</time>
      </trkpt>
      <trkpt lat="48.29533" lon="7.31253">
        <ele>836.41</ele>
        <time>2016-08-21T09:17:12Z</time>
      </trkpt>
      <trkpt lat="48.29534" lon="7.31257">
        <ele>836.2</ele>
        <time>2016-08-21T09:17:13Z</time>
      </trkpt>
      <trkpt lat="48.29539" lon="7.3128">
        <ele>836.96</ele>
        <time>2016-08-21T09:17:30Z</time>
      </trkpt>
      <trkpt lat="48.29547" lon="7.31307">
        <ele>837.44</ele>
        <time>2016-08-21T09:17:55Z</time>
      </trkpt>
      <trkpt lat="48.29547" lon="7.31309">
        <ele>836.98</ele>
        <time>2016-08-21T09:18:12Z</time>
      </trkpt>
      <trkpt lat="48.29545" lon="7.31313">
        <ele>837</ele>
        <time>2016-08-21T09:18:16Z</time>
      </trkpt>
      <trkpt lat="48.29545" lon="7.31322">
        <ele>836.98</ele>
        <time>2016-08-21T09:18:31Z</time>
      </trkpt>
      <trkpt lat="48.29545" lon="7.31322">
        <ele>838.89</ele>
        <time>2016-08-21T09:18:34Z</time>
      </trkpt>
      <trkpt lat="48.29547" lon="7.31325">
        <ele>838.02</ele>
        <time>2016-08-21T09:19:11Z</time>
      </trkpt>
      <trkpt lat="48.29554" lon="7.31331">
        <ele>839.07</ele>
        <time>2016-08-21T09:19:32Z</time>
      </trkpt>
      <trkpt lat="48.29556" lon="7.31332">
        <ele>838.76</ele>
        <time>2016-08-21T09:19:43Z</time>
      </trkpt>
      <trkpt lat="48.29558" lon="7.31333">
        <ele>838.81</ele>
        <time>2016-08-21T09:19:50Z</time>
      </trkpt>
      <trkpt lat="48.29556" lon="7.3133">
        <ele>839.2</ele>
        <time>2016-08-21T09:20:13Z</time>
      </trkpt>
      <trkpt lat="48.29558" lon="7.31329">
        <ele>839.83</ele>
        <time>2016-08-21T09:20:16Z</time>
      </trkpt>
      <trkpt lat="48.29556" lon="7.31331">
        <ele>839.36</ele>
        <time>2016-08-21T09:20:49Z</time>
      </trkpt>
      <trkpt lat="48.29551" lon="7.31324">
        <ele>837.74</ele>
        <time>2016-08-21T09:21:08Z</time>
      </trkpt>
      <trkpt lat="48.29553" lon="7.31322">
        <ele>834.36</ele>
        <time>2016-08-21T09:21:24Z</time>
      </trkpt>
      <trkpt lat="48.29552" lon="7.3132">
        <ele>843.23</ele>
        <time>2016-08-21T09:21:26Z</time>
      </trkpt>
      <trkpt lat="48.29552" lon="7.3132">
        <ele>833.4</ele>
        <time>2016-08-21T09:21:27Z</time>
      </trkpt>
      <trkpt lat="48.29551" lon="7.3132">
        <ele>836.54</ele>
        <time>2016-08-21T09:21:28Z</time>
      </trkpt>
      <trkpt lat="48.29552" lon="7.3132">
        <ele>833.52</ele>
        <time>2016-08-21T09:21:29Z</time>
      </trkpt>
      <trkpt lat="48.29552" lon="7.3132">
        <ele>837.11</ele>
        <time>2016-08-21T09:21:30Z</time>
      </trkpt>
      <trkpt lat="48.2955" lon="7.31319">
        <ele>841.02</ele>
        <time>2016-08-21T09:21:41Z</time>
      </trkpt>
      <trkpt lat="48.29551" lon="7.31318">
        <ele>837.68</ele>
        <time>2016-08-21T09:21:42Z</time>
      </trkpt>
      <trkpt lat="48.29548" lon="7.31317">
        <ele>832.86</ele>
        <time>2016-08-21T09:21:59Z</time>
      </trkpt>
      <trkpt lat="48.29548" lon="7.31318">
        <ele>838.73</ele>
        <time>2016-08-21T09:22:00Z</time>
      </trkpt>
      <trkpt lat="48.29548" lon="7.31318">
        <ele>839.11</ele>
        <time>2016-08-21T09:22:07Z</time>
      </trkpt>
      <trkpt lat="48.29548" lon="7.31317">
        <ele>842.18</ele>
        <time>2016-08-21T09:22:09Z</time>
      </trkpt>
      <trkpt lat="48.29546" lon="7.31316">
        <ele>838.82</ele>
        <time>2016-08-21T09:22:18Z</time>
      </trkpt>
      <trkpt lat="48.29548" lon="7.31316">
        <ele>831.12</ele>
        <time>2016-08-21T09:22:27Z</time>
      </trkpt>
      <trkpt lat="48.29548" lon="7.31315">
        <ele>836.93</ele>
        <time>2016-08-21T09:22:28Z</time>
      </trkpt>
      <trkpt lat="48.29547" lon="7.31315">
        <ele>842.72</ele>
        <time>2016-08-21T09:22:30Z</time>
      </trkpt>
      <trkpt lat="48.29548" lon="7.31315">
        <ele>838.87</ele>
        <time>2016-08-21T09:22:31Z</time>
      </trkpt>
      <trkpt lat="48.29548" lon="7.31315">
        <ele>835.25</ele>
        <time>2016-08-21T09:22:34Z</time>
      </trkpt>
      <trkpt lat="48.29548" lon="7.31315">
        <ele>839.72</ele>
        <time>2016-08-21T09:22:36Z</time>
      </trkpt>
      <trkpt lat="48.29542" lon="7.31308">
        <ele>838.53</ele>
        <time>2016-08-21T09:22:53Z</time>
      </trkpt>
      <trkpt lat="48.29542" lon="7.31306">
        <ele>837.93</ele>
        <time>2016-08-21T09:23:13Z</time>
      </trkpt>
      <trkpt lat="48.29544" lon="7.31306">
        <ele>838.93</ele>
        <time>2016-08-21T09:23:15Z</time>
      </trkpt>
      <trkpt lat="48.29546" lon="7.31307">
        <ele>839.53</ele>
        <time>2016-08-21T09:23:18Z</time>
      </trkpt>
      <trkpt lat="48.29547" lon="7.31317">
        <ele>838.45</ele>
        <time>2016-08-21T09:23:36Z</time>
      </trkpt>
      <trkpt lat="48.29546" lon="7.31318">
        <ele>834.71</ele>
        <time>2016-08-21T09:23:45Z</time>
      </trkpt>
      <trkpt lat="48.29546" lon="7.31317">
        <ele>840.88</ele>
        <time>2016-08-21T09:23:46Z</time>
      </trkpt>
      <trkpt lat="48.29546" lon="7.31317">
        <ele>837.03</ele>
        <time>2016-08-21T09:23:47Z</time>
      </trkpt>
      <trkpt lat="48.29547" lon="7.31315">
        <ele>839.89</ele>
        <time>2016-08-21T09:23:59Z</time>
      </trkpt>
      <trkpt lat="48.29547" lon="7.31316">
        <ele>836.84</ele>
        <time>2016-08-21T09:24:11Z</time>
      </trkpt>
      <trkpt lat="48.29547" lon="7.31316">
        <ele>840.88</ele>
        <time>2016-08-21T09:24:13Z</time>
      </trkpt>
      <trkpt lat="48.29544" lon="7.31319">
        <ele>838.69</ele>
        <time>2016-08-21T09:24:40Z</time>
      </trkpt>
      <trkpt lat="48.29547" lon="7.31318">
        <ele>840.2</ele>
        <time>2016-08-21T09:25:06Z</time>
      </trkpt>
      <trkpt lat="48.29547" lon="7.31318">
        <ele>840.47</ele>
        <time>2016-08-21T09:25:07Z</time>
      </trkpt>
      <trkpt lat="48.29548" lon="7.31319">
        <ele>839.91</ele>
        <time>2016-08-21T09:25:28Z</time>
      </trkpt>
      <trkpt lat="48.29547" lon="7.31316">
        <ele>840.18</ele>
        <time>2016-08-21T09:25:54Z</time>
      </trkpt>
      <trkpt lat="48.29546" lon="7.31315">
        <ele>839.27</ele>
        <time>2016-08-21T09:26:22Z</time>
      </trkpt>
      <trkpt lat="48.29543" lon="7.3131">
        <ele>839.06</ele>
        <time>2016-08-21T09:26:46Z</time>
      </trkpt>
      <trkpt lat="48.29539" lon="7.31296">
        <ele>839.82</ele>
        <time>2016-08-21T09:27:02Z</time>
      </trkpt>
      <trkpt lat="48.29537" lon="7.31288">
        <ele>840.42</ele>
        <time>2016-08-21T09:27:09Z</time>
      </trkpt>
      <trkpt lat="48.29527" lon="7.31265">
        <ele>840.24</ele>
        <time>2016-08-21T09:27:24Z</time>
      </trkpt>
      <trkpt lat="48.29518" lon="7.31249">
        <ele>839.16</ele>
        <time>2016-08-21T09:27:41Z</time>
      </trkpt>
      <trkpt lat="48.29505" lon="7.31226">
        <ele>837.42</ele>
        <time>2016-08-21T09:28:02Z</time>
      </trkpt>
      <trkpt lat="48.29496" lon="7.31201">
        <ele>835.23</ele>
        <time>2016-08-21T09:28:25Z</time>
      </trkpt>
      <trkpt lat="48.29491" lon="7.31172">
        <ele>832.76</ele>
        <time>2016-08-21T09:28:46Z</time>
      </trkpt>
      <trkpt lat="48.29495" lon="7.31158">
        <ele>832.17</ele>
        <time>2016-08-21T09:29:01Z</time>
      </trkpt>
      <trkpt lat="48.29499" lon="7.31122">
        <ele>830.6</ele>
        <time>2016-08-21T09:29:23Z</time>
      </trkpt>
      <trkpt lat="48.29505" lon="7.31093">
        <ele>828.53</ele>
        <time>2016-08-21T09:29:43Z</time>
      </trkpt>
      <trkpt lat="48.29504" lon="7.31075">
        <ele>827.91</ele>
        <time>2016-08-21T09:29:57Z</time>
      </trkpt>
      <trkpt lat="48.29508" lon="7.3105">
        <ele>825.76</ele>
        <time>2016-08-21T09:30:12Z</time>
      </trkpt>
      <trkpt lat="48.29516" lon="7.31026">
        <ele>823.6</ele>
        <time>2016-08-21T09:30:29Z</time>
      </trkpt>
      <trkpt lat="48.29524" lon="7.31003">
        <ele>823.19</ele>
        <time>2016-08-21T09:30:47Z</time>
      </trkpt>
      <trkpt lat="48.29529" lon="7.30985">
        <ele>822.9</ele>
        <time>2016-08-21T09:31:00Z</time>
      </trkpt>
      <trkpt lat="48.29528" lon="7.30966">
        <ele>821.25</ele>
        <time>2016-08-21T09:31:15Z</time>
      </trkpt>
      <trkpt lat="48.29525" lon="7.3095">
        <ele>817.87</ele>
        <time>2016-08-21T09:31:32Z</time>
      </trkpt>
      <trkpt lat="48.29521" lon="7.30932">
        <ele>814.66</ele>
        <time>2016-08-21T09:31:46Z</time>
      </trkpt>
      <trkpt lat="48.29519" lon="7.30923">
        <ele>813.87</ele>
        <time>2016-08-21T09:31:50Z</time>
      </trkpt>
      <trkpt lat="48.29524" lon="7.3089">
        <ele>814.51</ele>
        <time>2016-08-21T09:32:06Z</time>
      </trkpt>
      <trkpt lat="48.29531" lon="7.30877">
        <ele>818.27</ele>
        <time>2016-08-21T09:32:22Z</time>
      </trkpt>
      <trkpt lat="48.29534" lon="7.30865">
        <ele>818.55</ele>
        <time>2016-08-21T09:32:37Z</time>
      </trkpt>
      <trkpt lat="48.29533" lon="7.30864">
        <ele>818.46</ele>
        <time>2016-08-21T09:32:38Z</time>
      </trkpt>
      <trkpt lat="48.29524" lon="7.30844">
        <ele>818.05</ele>
        <time>2016-08-21T09:33:00Z</time>
      </trkpt>
      <trkpt lat="48.29521" lon="7.30834">
        <ele>817.5</ele>
        <time>2016-08-21T09:33:10Z</time>
      </trkpt>
      <trkpt lat="48.29521" lon="7.30832">
        <ele>817.47</ele>
        <time>2016-08-21T09:33:12Z</time>
      </trkpt>
      <trkpt lat="48.29521" lon="7.30826">
        <ele>817.05</ele>
        <time>2016-08-21T09:33:15Z</time>
      </trkpt>
      <trkpt lat="48.29516" lon="7.308">
        <ele>815.22</ele>
        <time>2016-08-21T09:33:30Z</time>
      </trkpt>
      <trkpt lat="48.29513" lon="7.30774">
        <ele>813.46</ele>
        <time>2016-08-21T09:33:49Z</time>
      </trkpt>
      <trkpt lat="48.29504" lon="7.3075">
        <ele>811.89</ele>
        <time>2016-08-21T09:34:07Z</time>
      </trkpt>
      <trkpt lat="48.29498" lon="7.30735">
        <ele>811.62</ele>
        <time>2016-08-21T09:34:25Z</time>
      </trkpt>
      <trkpt lat="48.2949" lon="7.30707">
        <ele>809.33</ele>
        <time>2016-08-21T09:34:50Z</time>
      </trkpt>
      <trkpt lat="48.29481" lon="7.30684">
        <ele>807.49</ele>
        <time>2016-08-21T09:35:12Z</time>
      </trkpt>
      <trkpt lat="48.29475" lon="7.30668">
        <ele>805.39</ele>
        <time>2016-08-21T09:35:30Z</time>
      </trkpt>
      <trkpt lat="48.29463" lon="7.30644">
        <ele>805.98</ele>
        <time>2016-08-21T09:35:49Z</time>
      </trkpt>
      <trkpt lat="48.29452" lon="7.30617">
        <ele>806.28</ele>
        <time>2016-08-21T09:36:08Z</time>
      </trkpt>
      <trkpt lat="48.29442" lon="7.30594">
        <ele>805.5</ele>
        <time>2016-08-21T09:36:26Z</time>
      </trkpt>
      <trkpt lat="48.29426" lon="7.30571">
        <ele>804.39</ele>
        <time>2016-08-21T09:36:48Z</time>
      </trkpt>
      <trkpt lat="48.29417" lon="7.30549">
        <ele>802.32</ele>
        <time>2016-08-21T09:37:10Z</time>
      </trkpt>
      <trkpt lat="48.29393" lon="7.30531">
        <ele>800.32</ele>
        <time>2016-08-21T09:37:32Z</time>
      </trkpt>
      <trkpt lat="48.29387" lon="7.30515">
        <ele>799.11</ele>
        <time>2016-08-21T09:37:44Z</time>
      </trkpt>
      <trkpt lat="48.29388" lon="7.30489">
        <ele>799.67</ele>
        <time>2016-08-21T09:37:59Z</time>
      </trkpt>
      <trkpt lat="48.29394" lon="7.30468">
        <ele>799.45</ele>
        <time>2016-08-21T09:38:17Z</time>
      </trkpt>
      <trkpt lat="48.29383" lon="7.3045">
        <ele>799.24</ele>
        <time>2016-08-21T09:38:39Z</time>
      </trkpt>
      <trkpt lat="48.29381" lon="7.30443">
        <ele>795.16</ele>
        <time>2016-08-21T09:38:55Z</time>
      </trkpt>
      <trkpt lat="48.29381" lon="7.30444">
        <ele>795.17</ele>
        <time>2016-08-21T09:38:56Z</time>
      </trkpt>
      <trkpt lat="48.29378" lon="7.30441">
        <ele>800.52</ele>
        <time>2016-08-21T09:39:00Z</time>
      </trkpt>
      <trkpt lat="48.29378" lon="7.3044">
        <ele>800.46</ele>
        <time>2016-08-21T09:39:01Z</time>
      </trkpt>
      <trkpt lat="48.29376" lon="7.30437">
        <ele>800.55</ele>
        <time>2016-08-21T09:39:05Z</time>
      </trkpt>
      <trkpt lat="48.29371" lon="7.3043">
        <ele>801.13</ele>
        <time>2016-08-21T09:39:27Z</time>
      </trkpt>
      <trkpt lat="48.2937" lon="7.30429">
        <ele>800.53</ele>
        <time>2016-08-21T09:39:53Z</time>
      </trkpt>
      <trkpt lat="48.29371" lon="7.30429">
        <ele>800.15</ele>
        <time>2016-08-21T09:40:11Z</time>
      </trkpt>
      <trkpt lat="48.29373" lon="7.30434">
        <ele>800.8</ele>
        <time>2016-08-21T09:40:37Z</time>
      </trkpt>
      <trkpt lat="48.29376" lon="7.30437">
        <ele>795.54</ele>
        <time>2016-08-21T09:40:59Z</time>
      </trkpt>
      <trkpt lat="48.29377" lon="7.30439">
        <ele>799.44</ele>
        <time>2016-08-21T09:41:00Z</time>
      </trkpt>
      <trkpt lat="48.29376" lon="7.30437">
        <ele>801.24</ele>
        <time>2016-08-21T09:41:02Z</time>
      </trkpt>
      <trkpt lat="48.29379" lon="7.30435">
        <ele>800.3</ele>
        <time>2016-08-21T09:41:16Z</time>
      </trkpt>
      <trkpt lat="48.29376" lon="7.30441">
        <ele>800.03</ele>
        <time>2016-08-21T09:41:39Z</time>
      </trkpt>
      <trkpt lat="48.2938" lon="7.30442">
        <ele>800.92</ele>
        <time>2016-08-21T09:42:06Z</time>
      </trkpt>
      <trkpt lat="48.29377" lon="7.30442">
        <ele>801.48</ele>
        <time>2016-08-21T09:42:29Z</time>
      </trkpt>
      <trkpt lat="48.29373" lon="7.30444">
        <ele>801.88</ele>
        <time>2016-08-21T09:42:57Z</time>
      </trkpt>
      <trkpt lat="48.29373" lon="7.30453">
        <ele>801.55</ele>
        <time>2016-08-21T09:43:22Z</time>
      </trkpt>
      <trkpt lat="48.29373" lon="7.30447">
        <ele>802.32</ele>
        <time>2016-08-21T09:43:47Z</time>
      </trkpt>
      <trkpt lat="48.29374" lon="7.30449">
        <ele>802.29</ele>
        <time>2016-08-21T09:44:13Z</time>
      </trkpt>
      <trkpt lat="48.29372" lon="7.30451">
        <ele>802.75</ele>
        <time>2016-08-21T09:44:36Z</time>
      </trkpt>
      <trkpt lat="48.29373" lon="7.30451">
        <ele>801.45</ele>
        <time>2016-08-21T09:45:03Z</time>
      </trkpt>
      <trkpt lat="48.29378" lon="7.30457">
        <ele>802.28</ele>
        <time>2016-08-21T09:45:25Z</time>
      </trkpt>
      <trkpt lat="48.29386" lon="7.30464">
        <ele>803.34</ele>
        <time>2016-08-21T09:45:42Z</time>
      </trkpt>
      <trkpt lat="48.29399" lon="7.30462">
        <ele>804.43</ele>
        <time>2016-08-21T09:46:00Z</time>
      </trkpt>
      <trkpt lat="48.29409" lon="7.30463">
        <ele>805.22</ele>
        <time>2016-08-21T09:46:12Z</time>
      </trkpt>
      <trkpt lat="48.29425" lon="7.30463">
        <ele>805.56</ele>
        <time>2016-08-21T09:46:30Z</time>
      </trkpt>
      <trkpt lat="48.29429" lon="7.30464">
        <ele>805.18</ele>
        <time>2016-08-21T09:46:35Z</time>
      </trkpt>
      <trkpt lat="48.29448" lon="7.3047">
        <ele>806.04</ele>
        <time>2016-08-21T09:46:52Z</time>
      </trkpt>
      <trkpt lat="48.29459" lon="7.30486">
        <ele>805.96</ele>
        <time>2016-08-21T09:47:05Z</time>
      </trkpt>
      <trkpt lat="48.29476" lon="7.30499">
        <ele>805.1</ele>
        <time>2016-08-21T09:47:21Z</time>
      </trkpt>
      <trkpt lat="48.29492" lon="7.30514">
        <ele>806.12</ele>
        <time>2016-08-21T09:47:43Z</time>
      </trkpt>
      <trkpt lat="48.29517" lon="7.3052">
        <ele>806.65</ele>
        <time>2016-08-21T09:48:05Z</time>
      </trkpt>
      <trkpt lat="48.29528" lon="7.3053">
        <ele>808.45</ele>
        <time>2016-08-21T09:48:17Z</time>
      </trkpt>
      <trkpt lat="48.29539" lon="7.30532">
        <ele>808.31</ele>
        <time>2016-08-21T09:48:30Z</time>
      </trkpt>
      <trkpt lat="48.2955" lon="7.30526">
        <ele>808.27</ele>
        <time>2016-08-21T09:48:46Z</time>
      </trkpt>
      <trkpt lat="48.29558" lon="7.3052">
        <ele>808.87</ele>
        <time>2016-08-21T09:48:56Z</time>
      </trkpt>
      <trkpt lat="48.29563" lon="7.30517">
        <ele>808.7</ele>
        <time>2016-08-21T09:49:02Z</time>
      </trkpt>
      <trkpt lat="48.29579" lon="7.30499">
        <ele>807.31</ele>
        <time>2016-08-21T09:49:24Z</time>
      </trkpt>
      <trkpt lat="48.29598" lon="7.30486">
        <ele>807.31</ele>
        <time>2016-08-21T09:49:41Z</time>
      </trkpt>
      <trkpt lat="48.29614" lon="7.30485">
        <ele>807.73</ele>
        <time>2016-08-21T09:49:57Z</time>
      </trkpt>
      <trkpt lat="48.29634" lon="7.30479">
        <ele>807.99</ele>
        <time>2016-08-21T09:50:17Z</time>
      </trkpt>
      <trkpt lat="48.29658" lon="7.30465">
        <ele>807.9</ele>
        <time>2016-08-21T09:50:38Z</time>
      </trkpt>
      <trkpt lat="48.29671" lon="7.30458">
        <ele>808.28</ele>
        <time>2016-08-21T09:50:54Z</time>
      </trkpt>
      <trkpt lat="48.29674" lon="7.30456">
        <ele>808.48</ele>
        <time>2016-08-21T09:51:00Z</time>
      </trkpt>
      <trkpt lat="48.29693" lon="7.3045">
        <ele>809.09</ele>
        <time>2016-08-21T09:51:20Z</time>
      </trkpt>
      <trkpt lat="48.2972" lon="7.30432">
        <ele>809.35</ele>
        <time>2016-08-21T09:51:42Z</time>
      </trkpt>
      <trkpt lat="48.29714" lon="7.30413">
        <ele>807.07</ele>
        <time>2016-08-21T09:52:01Z</time>
      </trkpt>
      <trkpt lat="48.29708" lon="7.30396">
        <ele>804.06</ele>
        <time>2016-08-21T09:52:17Z</time>
      </trkpt>
      <trkpt lat="48.29707" lon="7.30386">
        <ele>803.5</ele>
        <time>2016-08-21T09:52:23Z</time>
      </trkpt>
      <trkpt lat="48.29701" lon="7.30364">
        <ele>800.97</ele>
        <time>2016-08-21T09:52:46Z</time>
      </trkpt>
      <trkpt lat="48.29703" lon="7.30327">
        <ele>799.93</ele>
        <time>2016-08-21T09:53:08Z</time>
      </trkpt>
      <trkpt lat="48.2971" lon="7.3031">
        <ele>799.76</ele>
        <time>2016-08-21T09:53:21Z</time>
      </trkpt>
      <trkpt lat="48.29721" lon="7.30278">
        <ele>800.5</ele>
        <time>2016-08-21T09:53:42Z</time>
      </trkpt>
      <trkpt lat="48.29721" lon="7.30254">
        <ele>800.18</ele>
        <time>2016-08-21T09:53:58Z</time>
      </trkpt>
      <trkpt lat="48.29731" lon="7.30216">
        <ele>799.58</ele>
        <time>2016-08-21T09:54:18Z</time>
      </trkpt>
      <trkpt lat="48.29742" lon="7.30178">
        <ele>798.14</ele>
        <time>2016-08-21T09:54:42Z</time>
      </trkpt>
      <trkpt lat="48.29747" lon="7.30153">
        <ele>795.94</ele>
        <time>2016-08-21T09:55:06Z</time>
      </trkpt>
      <trkpt lat="48.29742" lon="7.30141">
        <ele>794.36</ele>
        <time>2016-08-21T09:55:32Z</time>
      </trkpt>
      <trkpt lat="48.29733" lon="7.3013">
        <ele>793.65</ele>
        <time>2016-08-21T09:55:48Z</time>
      </trkpt>
      <trkpt lat="48.29731" lon="7.30129">
        <ele>794.29</ele>
        <time>2016-08-21T09:55:58Z</time>
      </trkpt>
      <trkpt lat="48.29729" lon="7.30134">
        <ele>793.96</ele>
        <time>2016-08-21T09:56:11Z</time>
      </trkpt>
      <trkpt lat="48.29729" lon="7.30136">
        <ele>792.74</ele>
        <time>2016-08-21T09:56:14Z</time>
      </trkpt>
      <trkpt lat="48.29728" lon="7.30145">
        <ele>791.7</ele>
        <time>2016-08-21T09:56:28Z</time>
      </trkpt>
      <trkpt lat="48.29722" lon="7.30158">
        <ele>789.88</ele>
        <time>2016-08-21T09:56:44Z</time>
      </trkpt>
      <trkpt lat="48.29721" lon="7.30162">
        <ele>789.8</ele>
        <time>2016-08-21T09:56:49Z</time>
      </trkpt>
      <trkpt lat="48.2972" lon="7.30166">
        <ele>790.11</ele>
        <time>2016-08-21T09:56:52Z</time>
      </trkpt>
      <trkpt lat="48.29717" lon="7.30176">
        <ele>790.7</ele>
        <time>2016-08-21T09:57:02Z</time>
      </trkpt>
      <trkpt lat="48.29715" lon="7.30182">
        <ele>790.59</ele>
        <time>2016-08-21T09:57:07Z</time>
      </trkpt>
      <trkpt lat="48.29708" lon="7.302">
        <ele>790.71</ele>
        <time>2016-08-21T09:57:23Z</time>
      </trkpt>
      <trkpt lat="48.29706" lon="7.30203">
        <ele>790.72</ele>
        <time>2016-08-21T09:57:27Z</time>
      </trkpt>
      <trkpt lat="48.29702" lon="7.30209">
        <ele>791.88</ele>
        <time>2016-08-21T09:57:38Z</time>
      </trkpt>
      <trkpt lat="48.29693" lon="7.3023">
        <ele>791.15</ele>
        <time>2016-08-21T09:57:52Z</time>
      </trkpt>
      <trkpt lat="48.29674" lon="7.3025">
        <ele>791.22</ele>
        <time>2016-08-21T09:58:08Z</time>
      </trkpt>
      <trkpt lat="48.29662" lon="7.30266">
        <ele>790.68</ele>
        <time>2016-08-21T09:58:23Z</time>
      </trkpt>
      <trkpt lat="48.29661" lon="7.30269">
        <ele>790.38</ele>
        <time>2016-08-21T09:58:25Z</time>
      </trkpt>
      <trkpt lat="48.29642" lon="7.30294">
        <ele>788.91</ele>
        <time>2016-08-21T09:58:40Z</time>
      </trkpt>
      <trkpt lat="48.29626" lon="7.30307">
        <ele>787.89</ele>
        <time>2016-08-21T09:58:52Z</time>
      </trkpt>
      <trkpt lat="48.29624" lon="7.3031">
        <ele>787.41</ele>
        <time>2016-08-21T09:58:57Z</time>
      </trkpt>
      <trkpt lat="48.29607" lon="7.30323">
        <ele>785.67</ele>
        <time>2016-08-21T09:59:12Z</time>
      </trkpt>
      <trkpt lat="48.29603" lon="7.30327">
        <ele>784.85</ele>
        <time>2016-08-21T09:59:17Z</time>
      </trkpt>
      <trkpt lat="48.29589" lon="7.30332">
        <ele>782.62</ele>
        <time>2016-08-21T09:59:31Z</time>
      </trkpt>
      <trkpt lat="48.29575" lon="7.3034">
        <ele>780.42</ele>
        <time>2016-08-21T09:59:46Z</time>
      </trkpt>
      <trkpt lat="48.29554" lon="7.30354">
        <ele>780.48</ele>
        <time>2016-08-21T10:00:03Z</time>
      </trkpt>
      <trkpt lat="48.29543" lon="7.30363">
        <ele>779.25</ele>
        <time>2016-08-21T10:00:17Z</time>
      </trkpt>
      <trkpt lat="48.29516" lon="7.30364">
        <ele>777.34</ele>
        <time>2016-08-21T10:00:42Z</time>
      </trkpt>
      <trkpt lat="48.29514" lon="7.30366">
        <ele>777.09</ele>
        <time>2016-08-21T10:00:44Z</time>
      </trkpt>
      <trkpt lat="48.29492" lon="7.30361">
        <ele>775.33</ele>
        <time>2016-08-21T10:01:06Z</time>
      </trkpt>
      <trkpt lat="48.29472" lon="7.30358">
        <ele>773.45</ele>
        <time>2016-08-21T10:01:27Z</time>
      </trkpt>
      <trkpt lat="48.29457" lon="7.30357">
        <ele>773.19</ele>
        <time>2016-08-21T10:01:44Z</time>
      </trkpt>
      <trkpt lat="48.29435" lon="7.30357">
        <ele>773.78</ele>
        <time>2016-08-21T10:02:06Z</time>
      </trkpt>
      <trkpt lat="48.29417" lon="7.30359">
        <ele>773.58</ele>
        <time>2016-08-21T10:02:29Z</time>
      </trkpt>
      <trkpt lat="48.29399" lon="7.30368">
        <ele>771.1</ele>
        <time>2016-08-21T10:02:51Z</time>
      </trkpt>
      <trkpt lat="48.29397" lon="7.30368">
        <ele>771.15</ele>
        <time>2016-08-21T10:02:54Z</time>
      </trkpt>
      <trkpt lat="48.29395" lon="7.30368">
        <ele>770.18</ele>
        <time>2016-08-21T10:02:57Z</time>
      </trkpt>
      <trkpt lat="48.29377" lon="7.30375">
        <ele>768.24</ele>
        <time>2016-08-21T10:03:18Z</time>
      </trkpt>
      <trkpt lat="48.29361" lon="7.30379">
        <ele>766.69</ele>
        <time>2016-08-21T10:03:37Z</time>
      </trkpt>
      <trkpt lat="48.29342" lon="7.30398">
        <ele>764.68</ele>
        <time>2016-08-21T10:03:59Z</time>
      </trkpt>
      <trkpt lat="48.2933" lon="7.30407">
        <ele>765.78</ele>
        <time>2016-08-21T10:04:15Z</time>
      </trkpt>
      <trkpt lat="48.29324" lon="7.30419">
        <ele>764.05</ele>
        <time>2016-08-21T10:04:33Z</time>
      </trkpt>
      <trkpt lat="48.2931" lon="7.3043">
        <ele>762.49</ele>
        <time>2016-08-21T10:04:55Z</time>
      </trkpt>
      <trkpt lat="48.29306" lon="7.30454">
        <ele>760.72</ele>
        <time>2016-08-21T10:05:18Z</time>
      </trkpt>
      <trkpt lat="48.29306" lon="7.30471">
        <ele>760.93</ele>
        <time>2016-08-21T10:05:32Z</time>
      </trkpt>
      <trkpt lat="48.29305" lon="7.30472">
        <ele>761.06</ele>
        <time>2016-08-21T10:05:33Z</time>
      </trkpt>
      <trkpt lat="48.29312" lon="7.30503">
        <ele>758.8</ele>
        <time>2016-08-21T10:05:53Z</time>
      </trkpt>
      <trkpt lat="48.29318" lon="7.30527">
        <ele>758.04</ele>
        <time>2016-08-21T10:06:10Z</time>
      </trkpt>
      <trkpt lat="48.29325" lon="7.3055">
        <ele>759</ele>
        <time>2016-08-21T10:06:26Z</time>
      </trkpt>
      <trkpt lat="48.2934" lon="7.30573">
        <ele>758.42</ele>
        <time>2016-08-21T10:06:50Z</time>
      </trkpt>
      <trkpt lat="48.29341" lon="7.30573">
        <ele>762.02</ele>
        <time>2016-08-21T10:06:51Z</time>
      </trkpt>
      <trkpt lat="48.2935" lon="7.30582">
        <ele>760.44</ele>
        <time>2016-08-21T10:07:04Z</time>
      </trkpt>
      <trkpt lat="48.29355" lon="7.3059">
        <ele>759.19</ele>
        <time>2016-08-21T10:07:13Z</time>
      </trkpt>
      <trkpt lat="48.29357" lon="7.30594">
        <ele>758.66</ele>
        <time>2016-08-21T10:07:17Z</time>
      </trkpt>
      <trkpt lat="48.29365" lon="7.30611">
        <ele>757.64</ele>
        <time>2016-08-21T10:07:31Z</time>
      </trkpt>
      <trkpt lat="48.29374" lon="7.30619">
        <ele>757.29</ele>
        <time>2016-08-21T10:07:44Z</time>
      </trkpt>
      <trkpt lat="48.29377" lon="7.30626">
        <ele>757.51</ele>
        <time>2016-08-21T10:07:49Z</time>
      </trkpt>
      <trkpt lat="48.29383" lon="7.30639">
        <ele>757.99</ele>
        <time>2016-08-21T10:08:00Z</time>
      </trkpt>
      <trkpt lat="48.29391" lon="7.30656">
        <ele>758.33</ele>
        <time>2016-08-21T10:08:14Z</time>
      </trkpt>
      <trkpt lat="48.29396" lon="7.30669">
        <ele>757.47</ele>
        <time>2016-08-21T10:08:26Z</time>
      </trkpt>
      <trkpt lat="48.29408" lon="7.30691">
        <ele>758.27</ele>
        <time>2016-08-21T10:08:44Z</time>
      </trkpt>
      <trkpt lat="48.29417" lon="7.30705">
        <ele>758.46</ele>
        <time>2016-08-21T10:08:56Z</time>
      </trkpt>
      <trkpt lat="48.29424" lon="7.3072">
        <ele>759.35</ele>
        <time>2016-08-21T10:09:08Z</time>
      </trkpt>
      <trkpt lat="48.29428" lon="7.30741">
        <ele>758.94</ele>
        <time>2016-08-21T10:09:21Z</time>
      </trkpt>
      <trkpt lat="48.29433" lon="7.30759">
        <ele>758.63</ele>
        <time>2016-08-21T10:09:35Z</time>
      </trkpt>
      <trkpt lat="48.29436" lon="7.30778">
        <ele>759.31</ele>
        <time>2016-08-21T10:09:50Z</time>
      </trkpt>
      <trkpt lat="48.29439" lon="7.308">
        <ele>759.05</ele>
        <time>2016-08-21T10:10:04Z</time>
      </trkpt>
      <trkpt lat="48.29443" lon="7.30821">
        <ele>758.74</ele>
        <time>2016-08-21T10:10:19Z</time>
      </trkpt>
      <trkpt lat="48.29449" lon="7.30842">
        <ele>759.69</ele>
        <time>2016-08-21T10:10:36Z</time>
      </trkpt>
      <trkpt lat="48.2945" lon="7.30862">
        <ele>760.44</ele>
        <time>2016-08-21T10:10:51Z</time>
      </trkpt>
      <trkpt lat="48.2945" lon="7.30879">
        <ele>760.12</ele>
        <time>2016-08-21T10:11:09Z</time>
      </trkpt>
      <trkpt lat="48.29453" lon="7.30897">
        <ele>760.74</ele>
        <time>2016-08-21T10:11:23Z</time>
      </trkpt>
      <trkpt lat="48.29451" lon="7.30911">
        <ele>761.27</ele>
        <time>2016-08-21T10:11:32Z</time>
      </trkpt>
      <trkpt lat="48.29451" lon="7.30917">
        <ele>761.19</ele>
        <time>2016-08-21T10:11:37Z</time>
      </trkpt>
      <trkpt lat="48.29453" lon="7.30927">
        <ele>761.39</ele>
        <time>2016-08-21T10:11:45Z</time>
      </trkpt>
      <trkpt lat="48.29446" lon="7.30948">
        <ele>760.13</ele>
        <time>2016-08-21T10:12:01Z</time>
      </trkpt>
      <trkpt lat="48.29446" lon="7.30952">
        <ele>760</ele>
        <time>2016-08-21T10:12:07Z</time>
      </trkpt>
      <trkpt lat="48.29442" lon="7.3097">
        <ele>758.37</ele>
        <time>2016-08-21T10:12:21Z</time>
      </trkpt>
      <trkpt lat="48.29435" lon="7.30979">
        <ele>757.62</ele>
        <time>2016-08-21T10:12:40Z</time>
      </trkpt>
      <trkpt lat="48.29429" lon="7.30979">
        <ele>757.46</ele>
        <time>2016-08-21T10:13:10Z</time>
      </trkpt>
      <trkpt lat="48.29428" lon="7.30978">
        <ele>757.46</ele>
        <time>2016-08-21T10:13:14Z</time>
      </trkpt>
      <trkpt lat="48.2942" lon="7.30984">
        <ele>756.71</ele>
        <time>2016-08-21T10:13:18Z</time>
      </trkpt>
      <trkpt lat="48.29416" lon="7.30987">
        <ele>756.22</ele>
        <time>2016-08-21T10:13:44Z</time>
      </trkpt>
      <trkpt lat="48.29413" lon="7.30993">
        <ele>756.4</ele>
        <time>2016-08-21T10:14:10Z</time>
      </trkpt>
      <trkpt lat="48.2941" lon="7.31002">
        <ele>756.17</ele>
        <time>2016-08-21T10:14:32Z</time>
      </trkpt>
      <trkpt lat="48.2941" lon="7.3101">
        <ele>752.95</ele>
        <time>2016-08-21T10:14:43Z</time>
      </trkpt>
      <trkpt lat="48.29404" lon="7.31029">
        <ele>751.18</ele>
        <time>2016-08-21T10:15:04Z</time>
      </trkpt>
      <trkpt lat="48.29394" lon="7.31046">
        <ele>747.94</ele>
        <time>2016-08-21T10:15:22Z</time>
      </trkpt>
      <trkpt lat="48.29392" lon="7.31049">
        <ele>747.34</ele>
        <time>2016-08-21T10:15:25Z</time>
      </trkpt>
      <trkpt lat="48.29388" lon="7.31055">
        <ele>746.02</ele>
        <time>2016-08-21T10:15:31Z</time>
      </trkpt>
      <trkpt lat="48.2938" lon="7.31082">
        <ele>744.2</ele>
        <time>2016-08-21T10:15:52Z</time>
      </trkpt>
      <trkpt lat="48.29369" lon="7.311">
        <ele>742.77</ele>
        <time>2016-08-21T10:16:07Z</time>
      </trkpt>
      <trkpt lat="48.29363" lon="7.31107">
        <ele>741.53</ele>
        <time>2016-08-21T10:16:28Z</time>
      </trkpt>
      <trkpt lat="48.29358" lon="7.31123">
        <ele>740.41</ele>
        <time>2016-08-21T10:16:47Z</time>
      </trkpt>
      <trkpt lat="48.29354" lon="7.31132">
        <ele>737.2</ele>
        <time>2016-08-21T10:16:59Z</time>
      </trkpt>
      <trkpt lat="48.29344" lon="7.31154">
        <ele>736.66</ele>
        <time>2016-08-21T10:17:17Z</time>
      </trkpt>
      <trkpt lat="48.29338" lon="7.31171">
        <ele>734.08</ele>
        <time>2016-08-21T10:17:30Z</time>
      </trkpt>
      <trkpt lat="48.29333" lon="7.31198">
        <ele>731.36</ele>
        <time>2016-08-21T10:17:52Z</time>
      </trkpt>
      <trkpt lat="48.29334" lon="7.31227">
        <ele>730.3</ele>
        <time>2016-08-21T10:18:11Z</time>
      </trkpt>
      <trkpt lat="48.29334" lon="7.31243">
        <ele>728.66</ele>
        <time>2016-08-21T10:18:23Z</time>
      </trkpt>
      <trkpt lat="48.29333" lon="7.3127">
        <ele>725.53</ele>
        <time>2016-08-21T10:18:42Z</time>
      </trkpt>
      <trkpt lat="48.29331" lon="7.31272">
        <ele>722.44</ele>
        <time>2016-08-21T10:18:59Z</time>
      </trkpt>
      <trkpt lat="48.29325" lon="7.31272">
        <ele>720.07</ele>
        <time>2016-08-21T10:19:20Z</time>
      </trkpt>
      <trkpt lat="48.29332" lon="7.31296">
        <ele>717.93</ele>
        <time>2016-08-21T10:19:38Z</time>
      </trkpt>
      <trkpt lat="48.29333" lon="7.3132">
        <ele>714.55</ele>
        <time>2016-08-21T10:19:55Z</time>
      </trkpt>
      <trkpt lat="48.29334" lon="7.31337">
        <ele>711.42</ele>
        <time>2016-08-21T10:20:10Z</time>
      </trkpt>
      <trkpt lat="48.29341" lon="7.31359">
        <ele>709.72</ele>
        <time>2016-08-21T10:20:30Z</time>
      </trkpt>
      <trkpt lat="48.29346" lon="7.31381">
        <ele>706.65</ele>
        <time>2016-08-21T10:20:42Z</time>
      </trkpt>
      <trkpt lat="48.29352" lon="7.31401">
        <ele>703.89</ele>
        <time>2016-08-21T10:21:03Z</time>
      </trkpt>
      <trkpt lat="48.29363" lon="7.31424">
        <ele>701.73</ele>
        <time>2016-08-21T10:21:24Z</time>
      </trkpt>
      <trkpt lat="48.2937" lon="7.31443">
        <ele>699.31</ele>
        <time>2016-08-21T10:21:46Z</time>
      </trkpt>
      <trkpt lat="48.29378" lon="7.31466">
        <ele>697.94</ele>
        <time>2016-08-21T10:22:07Z</time>
      </trkpt>
      <trkpt lat="48.29379" lon="7.31467">
        <ele>698.2</ele>
        <time>2016-08-21T10:22:08Z</time>
      </trkpt>
      <trkpt lat="48.29383" lon="7.31485">
        <ele>696.33</ele>
        <time>2016-08-21T10:22:30Z</time>
      </trkpt>
      <trkpt lat="48.29388" lon="7.31506">
        <ele>693.31</ele>
        <time>2016-08-21T10:22:48Z</time>
      </trkpt>
      <trkpt lat="48.29397" lon="7.31527">
        <ele>691.62</ele>
        <time>2016-08-21T10:23:06Z</time>
      </trkpt>
      <trkpt lat="48.29406" lon="7.3155">
        <ele>689</ele>
        <time>2016-08-21T10:23:22Z</time>
      </trkpt>
      <trkpt lat="48.29412" lon="7.31568">
        <ele>685.85</ele>
        <time>2016-08-21T10:23:39Z</time>
      </trkpt>
      <trkpt lat="48.2942" lon="7.31586">
        <ele>682.75</ele>
        <time>2016-08-21T10:23:57Z</time>
      </trkpt>
      <trkpt lat="48.29427" lon="7.31602">
        <ele>679.75</ele>
        <time>2016-08-21T10:24:12Z</time>
      </trkpt>
      <trkpt lat="48.29439" lon="7.31628">
        <ele>676.85</ele>
        <time>2016-08-21T10:24:32Z</time>
      </trkpt>
      <trkpt lat="48.29446" lon="7.31648">
        <ele>673.69</ele>
        <time>2016-08-21T10:24:51Z</time>
      </trkpt>
      <trkpt lat="48.29452" lon="7.31672">
        <ele>671.12</ele>
        <time>2016-08-21T10:25:07Z</time>
      </trkpt>
      <trkpt lat="48.29459" lon="7.31697">
        <ele>667.8</ele>
        <time>2016-08-21T10:25:26Z</time>
      </trkpt>
      <trkpt lat="48.29467" lon="7.31725">
        <ele>665.58</ele>
        <time>2016-08-21T10:25:46Z</time>
      </trkpt>
      <trkpt lat="48.29469" lon="7.31741">
        <ele>665.06</ele>
        <time>2016-08-21T10:26:04Z</time>
      </trkpt>
      <trkpt lat="48.29476" lon="7.3176">
        <ele>663.35</ele>
        <time>2016-08-21T10:26:25Z</time>
      </trkpt>
      <trkpt lat="48.29484" lon="7.31777">
        <ele>662.22</ele>
        <time>2016-08-21T10:26:47Z</time>
      </trkpt>
      <trkpt lat="48.29493" lon="7.31795">
        <ele>658.85</ele>
        <time>2016-08-21T10:27:06Z</time>
      </trkpt>
      <trkpt lat="48.29505" lon="7.31814">
        <ele>655.38</ele>
        <time>2016-08-21T10:27:25Z</time>
      </trkpt>
      <trkpt lat="48.29511" lon="7.31834">
        <ele>653.32</ele>
        <time>2016-08-21T10:27:45Z</time>
      </trkpt>
      <trkpt lat="48.2951" lon="7.31837">
        <ele>653.02</ele>
        <time>2016-08-21T10:27:53Z</time>
      </trkpt>
      <trkpt lat="48.29512" lon="7.31833">
        <ele>653.19</ele>
        <time>2016-08-21T10:28:18Z</time>
      </trkpt>
      <trkpt lat="48.29513" lon="7.31835">
        <ele>653.63</ele>
        <time>2016-08-21T10:28:43Z</time>
      </trkpt>
      <trkpt lat="48.29514" lon="7.31828">
        <ele>654.62</ele>
        <time>2016-08-21T10:29:07Z</time>
      </trkpt>
      <trkpt lat="48.29513" lon="7.31833">
        <ele>654.65</ele>
        <time>2016-08-21T10:29:35Z</time>
      </trkpt>
      <trkpt lat="48.29515" lon="7.31843">
        <ele>653.84</ele>
        <time>2016-08-21T10:29:53Z</time>
      </trkpt>
      <trkpt lat="48.29523" lon="7.31867">
        <ele>650.84</ele>
        <time>2016-08-21T10:30:10Z</time>
      </trkpt>
      <trkpt lat="48.29537" lon="7.3189">
        <ele>647.75</ele>
        <time>2016-08-21T10:30:32Z</time>
      </trkpt>
      <trkpt lat="48.29548" lon="7.31918">
        <ele>645.38</ele>
        <time>2016-08-21T10:30:49Z</time>
      </trkpt>
      <trkpt lat="48.29552" lon="7.31933">
        <ele>643.56</ele>
        <time>2016-08-21T10:30:59Z</time>
      </trkpt>
      <trkpt lat="48.29568" lon="7.3196">
        <ele>641.37</ele>
        <time>2016-08-21T10:31:18Z</time>
      </trkpt>
      <trkpt lat="48.29575" lon="7.31978">
        <ele>639.81</ele>
        <time>2016-08-21T10:31:33Z</time>
      </trkpt>
      <trkpt lat="48.29576" lon="7.32006">
        <ele>637.6</ele>
        <time>2016-08-21T10:31:50Z</time>
      </trkpt>
      <trkpt lat="48.29575" lon="7.32048">
        <ele>637.22</ele>
        <time>2016-08-21T10:32:10Z</time>
      </trkpt>
      <trkpt lat="48.29575" lon="7.3207">
        <ele>636.28</ele>
        <time>2016-08-21T10:32:32Z</time>
      </trkpt>
      <trkpt lat="48.29575" lon="7.32081">
        <ele>635.96</ele>
        <time>2016-08-21T10:32:56Z</time>
      </trkpt>
      <trkpt lat="48.29572" lon="7.32079">
        <ele>635.1</ele>
        <time>2016-08-21T10:33:23Z</time>
      </trkpt>
      <trkpt lat="48.29572" lon="7.3209">
        <ele>635.33</ele>
        <time>2016-08-21T10:33:37Z</time>
      </trkpt>
      <trkpt lat="48.29569" lon="7.32102">
        <ele>635.08</ele>
        <time>2016-08-21T10:33:52Z</time>
      </trkpt>
      <trkpt lat="48.29568" lon="7.32132">
        <ele>635.97</ele>
        <time>2016-08-21T10:34:14Z</time>
      </trkpt>
      <trkpt lat="48.29573" lon="7.32161">
        <ele>637.04</ele>
        <time>2016-08-21T10:34:35Z</time>
      </trkpt>
      <trkpt lat="48.29573" lon="7.32191">
        <ele>640.07</ele>
        <time>2016-08-21T10:34:54Z</time>
      </trkpt>
      <trkpt lat="48.29571" lon="7.32214">
        <ele>641.51</ele>
        <time>2016-08-21T10:35:11Z</time>
      </trkpt>
      <trkpt lat="48.2957" lon="7.3222">
        <ele>642.48</ele>
        <time>2016-08-21T10:35:15Z</time>
      </trkpt>
      <trkpt lat="48.29571" lon="7.3223">
        <ele>643.82</ele>
        <time>2016-08-21T10:35:23Z</time>
      </trkpt>
      <trkpt lat="48.29575" lon="7.32246">
        <ele>645.8</ele>
        <time>2016-08-21T10:35:36Z</time>
      </trkpt>
      <trkpt lat="48.29578" lon="7.32271">
        <ele>648.57</ele>
        <time>2016-08-21T10:35:55Z</time>
      </trkpt>
      <trkpt lat="48.29583" lon="7.32291">
        <ele>649.61</ele>
        <time>2016-08-21T10:36:07Z</time>
      </trkpt>
      <trkpt lat="48.29584" lon="7.32299">
        <ele>649.63</ele>
        <time>2016-08-21T10:36:10Z</time>
      </trkpt>
      <trkpt lat="48.29584" lon="7.32306">
        <ele>651.08</ele>
        <time>2016-08-21T10:36:16Z</time>
      </trkpt>
      <trkpt lat="48.29587" lon="7.32312">
        <ele>652.21</ele>
        <time>2016-08-21T10:36:23Z</time>
      </trkpt>
      <trkpt lat="48.29583" lon="7.32317">
        <ele>654.56</ele>
        <time>2016-08-21T10:36:30Z</time>
      </trkpt>
      <trkpt lat="48.29573" lon="7.32318">
        <ele>654.72</ele>
        <time>2016-08-21T10:36:42Z</time>
      </trkpt>
      <trkpt lat="48.2957" lon="7.3232">
        <ele>657.02</ele>
        <time>2016-08-21T10:37:00Z</time>
      </trkpt>
      <trkpt lat="48.2957" lon="7.32321">
        <ele>657.71</ele>
        <time>2016-08-21T10:37:01Z</time>
      </trkpt>
      <trkpt lat="48.29571" lon="7.32334">
        <ele>659.24</ele>
        <time>2016-08-21T10:37:14Z</time>
      </trkpt>
      <trkpt lat="48.29571" lon="7.32343">
        <ele>661.39</ele>
        <time>2016-08-21T10:37:20Z</time>
      </trkpt>
      <trkpt lat="48.29562" lon="7.32362">
        <ele>663.76</ele>
        <time>2016-08-21T10:37:33Z</time>
      </trkpt>
      <trkpt lat="48.29558" lon="7.32363">
        <ele>664.84</ele>
        <time>2016-08-21T10:37:39Z</time>
      </trkpt>
      <trkpt lat="48.2955" lon="7.32368">
        <ele>667.62</ele>
        <time>2016-08-21T10:37:57Z</time>
      </trkpt>
      <trkpt lat="48.29548" lon="7.3237">
        <ele>668.35</ele>
        <time>2016-08-21T10:37:59Z</time>
      </trkpt>
      <trkpt lat="48.29547" lon="7.32372">
        <ele>667.1</ele>
        <time>2016-08-21T10:38:01Z</time>
      </trkpt>
      <trkpt lat="48.29539" lon="7.32386">
        <ele>670.23</ele>
        <time>2016-08-21T10:38:13Z</time>
      </trkpt>
      <trkpt lat="48.29531" lon="7.32401">
        <ele>673.25</ele>
        <time>2016-08-21T10:38:27Z</time>
      </trkpt>
      <trkpt lat="48.29517" lon="7.32421">
        <ele>677.45</ele>
        <time>2016-08-21T10:38:47Z</time>
      </trkpt>
      <trkpt lat="48.29512" lon="7.32439">
        <ele>678.9</ele>
        <time>2016-08-21T10:39:00Z</time>
      </trkpt>
      <trkpt lat="48.29516" lon="7.32439">
        <ele>680.05</ele>
        <time>2016-08-21T10:39:12Z</time>
      </trkpt>
      <trkpt lat="48.29515" lon="7.32432">
        <ele>680.59</ele>
        <time>2016-08-21T10:39:26Z</time>
      </trkpt>
      <trkpt lat="48.29519" lon="7.32433">
        <ele>680.64</ele>
        <time>2016-08-21T10:39:32Z</time>
      </trkpt>
      <trkpt lat="48.29527" lon="7.32433">
        <ele>680.54</ele>
        <time>2016-08-21T10:39:40Z</time>
      </trkpt>
      <trkpt lat="48.29536" lon="7.32436">
        <ele>679.71</ele>
        <time>2016-08-21T10:39:50Z</time>
      </trkpt>
      <trkpt lat="48.29546" lon="7.32447">
        <ele>679.52</ele>
        <time>2016-08-21T10:40:01Z</time>
      </trkpt>
      <trkpt lat="48.29555" lon="7.32465">
        <ele>682.89</ele>
        <time>2016-08-21T10:40:13Z</time>
      </trkpt>
      <trkpt lat="48.29556" lon="7.32466">
        <ele>681.23</ele>
        <time>2016-08-21T10:40:14Z</time>
      </trkpt>
      <trkpt lat="48.2956" lon="7.32479">
        <ele>682.24</ele>
        <time>2016-08-21T10:40:22Z</time>
      </trkpt>
      <trkpt lat="48.29561" lon="7.32484">
        <ele>683.61</ele>
        <time>2016-08-21T10:40:25Z</time>
      </trkpt>
      <trkpt lat="48.29563" lon="7.32491">
        <ele>683.78</ele>
        <time>2016-08-21T10:40:30Z</time>
      </trkpt>
      <trkpt lat="48.29562" lon="7.32496">
        <ele>684.42</ele>
        <time>2016-08-21T10:40:33Z</time>
      </trkpt>
      <trkpt lat="48.29563" lon="7.32508">
        <ele>684.59</ele>
        <time>2016-08-21T10:40:45Z</time>
      </trkpt>
      <trkpt lat="48.29559" lon="7.32509">
        <ele>685.74</ele>
        <time>2016-08-21T10:40:51Z</time>
      </trkpt>
      <trkpt lat="48.29551" lon="7.32506">
        <ele>688.93</ele>
        <time>2016-08-21T10:41:02Z</time>
      </trkpt>
      <trkpt lat="48.29551" lon="7.32505">
        <ele>688.75</ele>
        <time>2016-08-21T10:41:03Z</time>
      </trkpt>
      <trkpt lat="48.29548" lon="7.32503">
        <ele>690.14</ele>
        <time>2016-08-21T10:41:07Z</time>
      </trkpt>
      <trkpt lat="48.29545" lon="7.325">
        <ele>691</ele>
        <time>2016-08-21T10:41:12Z</time>
      </trkpt>
      <trkpt lat="48.29542" lon="7.32499">
        <ele>692.59</ele>
        <time>2016-08-21T10:41:16Z</time>
      </trkpt>
      <trkpt lat="48.29536" lon="7.32499">
        <ele>691.89</ele>
        <time>2016-08-21T10:41:21Z</time>
      </trkpt>
      <trkpt lat="48.29534" lon="7.32499">
        <ele>692.61</ele>
        <time>2016-08-21T10:41:23Z</time>
      </trkpt>
      <trkpt lat="48.29531" lon="7.32497">
        <ele>692.23</ele>
        <time>2016-08-21T10:41:39Z</time>
      </trkpt>
      <trkpt lat="48.29524" lon="7.32492">
        <ele>693.35</ele>
        <time>2016-08-21T10:41:48Z</time>
      </trkpt>
      <trkpt lat="48.29519" lon="7.32489">
        <ele>692.37</ele>
        <time>2016-08-21T10:42:04Z</time>
      </trkpt>
      <trkpt lat="48.29519" lon="7.3249">
        <ele>693.09</ele>
        <time>2016-08-21T10:42:19Z</time>
      </trkpt>
      <trkpt lat="48.29519" lon="7.32491">
        <ele>689.36</ele>
        <time>2016-08-21T10:42:37Z</time>
      </trkpt>
      <trkpt lat="48.29518" lon="7.32491">
        <ele>693.49</ele>
        <time>2016-08-21T10:42:38Z</time>
      </trkpt>
      <trkpt lat="48.29519" lon="7.32491">
        <ele>694.97</ele>
        <time>2016-08-21T10:42:40Z</time>
      </trkpt>
      <trkpt lat="48.29519" lon="7.32491">
        <ele>693.78</ele>
        <time>2016-08-21T10:42:45Z</time>
      </trkpt>
      <trkpt lat="48.29514" lon="7.32503">
        <ele>693.63</ele>
        <time>2016-08-21T10:43:06Z</time>
      </trkpt>
      <trkpt lat="48.29503" lon="7.325">
        <ele>693.06</ele>
        <time>2016-08-21T10:43:27Z</time>
      </trkpt>
      <trkpt lat="48.295" lon="7.32493">
        <ele>693.59</ele>
        <time>2016-08-21T10:43:44Z</time>
      </trkpt>
      <trkpt lat="48.29501" lon="7.32495">
        <ele>694.16</ele>
        <time>2016-08-21T10:43:58Z</time>
      </trkpt>
      <trkpt lat="48.29505" lon="7.32501">
        <ele>694.15</ele>
        <time>2016-08-21T10:44:20Z</time>
      </trkpt>
      <trkpt lat="48.29508" lon="7.32506">
        <ele>693.83</ele>
        <time>2016-08-21T10:44:36Z</time>
      </trkpt>
      <trkpt lat="48.29513" lon="7.32502">
        <ele>694.06</ele>
        <time>2016-08-21T10:44:50Z</time>
      </trkpt>
      <trkpt lat="48.29514" lon="7.32498">
        <ele>693.51</ele>
        <time>2016-08-21T10:45:05Z</time>
      </trkpt>
      <trkpt lat="48.29514" lon="7.32498">
        <ele>694.32</ele>
        <time>2016-08-21T10:45:13Z</time>
      </trkpt>
      <trkpt lat="48.29514" lon="7.32498">
        <ele>694.76</ele>
        <time>2016-08-21T10:45:43Z</time>
      </trkpt>
      <trkpt lat="48.29514" lon="7.32498">
        <ele>694.16</ele>
        <time>2016-08-21T10:46:15Z</time>
      </trkpt>
      <trkpt lat="48.29515" lon="7.32497">
        <ele>693.79</ele>
        <time>2016-08-21T10:46:32Z</time>
      </trkpt>
      <trkpt lat="48.29515" lon="7.32496">
        <ele>694.72</ele>
        <time>2016-08-21T10:47:00Z</time>
      </trkpt>
      <trkpt lat="48.29515" lon="7.32494">
        <ele>695.06</ele>
        <time>2016-08-21T10:47:25Z</time>
      </trkpt>
      <trkpt lat="48.29515" lon="7.32496">
        <ele>695.52</ele>
        <time>2016-08-21T10:47:55Z</time>
      </trkpt>
      <trkpt lat="48.29514" lon="7.32497">
        <ele>695.38</ele>
        <time>2016-08-21T10:48:34Z</time>
      </trkpt>
      <trkpt lat="48.29512" lon="7.32501">
        <ele>695.89</ele>
        <time>2016-08-21T10:49:22Z</time>
      </trkpt>
      <trkpt lat="48.29512" lon="7.32501">
        <ele>694.5</ele>
        <time>2016-08-21T10:49:25Z</time>
      </trkpt>
      <trkpt lat="48.29513" lon="7.325">
        <ele>695.81</ele>
        <time>2016-08-21T10:49:56Z</time>
      </trkpt>
      <trkpt lat="48.29515" lon="7.32499">
        <ele>695.92</ele>
        <time>2016-08-21T10:50:22Z</time>
      </trkpt>
      <trkpt lat="48.29518" lon="7.32496">
        <ele>696.06</ele>
        <time>2016-08-21T10:50:45Z</time>
      </trkpt>
      <trkpt lat="48.29521" lon="7.325">
        <ele>695.5</ele>
        <time>2016-08-21T10:51:05Z</time>
      </trkpt>
      <trkpt lat="48.2952" lon="7.32502">
        <ele>696.42</ele>
        <time>2016-08-21T10:51:24Z</time>
      </trkpt>
      <trkpt lat="48.29518" lon="7.32502">
        <ele>697.38</ele>
        <time>2016-08-21T10:51:26Z</time>
      </trkpt>
      <trkpt lat="48.29515" lon="7.32496">
        <ele>696.86</ele>
        <time>2016-08-21T10:51:41Z</time>
      </trkpt>
      <trkpt lat="48.29511" lon="7.32501">
        <ele>696.41</ele>
        <time>2016-08-21T10:52:23Z</time>
      </trkpt>
      <trkpt lat="48.29513" lon="7.32502">
        <ele>696.51</ele>
        <time>2016-08-21T10:53:11Z</time>
      </trkpt>
      <trkpt lat="48.29513" lon="7.32499">
        <ele>697.71</ele>
        <time>2016-08-21T10:53:43Z</time>
      </trkpt>
      <trkpt lat="48.29512" lon="7.32501">
        <ele>697.03</ele>
        <time>2016-08-21T10:54:25Z</time>
      </trkpt>
      <trkpt lat="48.29511" lon="7.32502">
        <ele>698.15</ele>
        <time>2016-08-21T10:55:15Z</time>
      </trkpt>
      <trkpt lat="48.29511" lon="7.32502">
        <ele>698.57</ele>
        <time>2016-08-21T10:55:53Z</time>
      </trkpt>
      <trkpt lat="48.29512" lon="7.32501">
        <ele>697.8</ele>
        <time>2016-08-21T10:56:22Z</time>
      </trkpt>
      <trkpt lat="48.29512" lon="7.32502">
        <ele>698.83</ele>
        <time>2016-08-21T10:57:07Z</time>
      </trkpt>
      <trkpt lat="48.29511" lon="7.32502">
        <ele>698.71</ele>
        <time>2016-08-21T10:57:42Z</time>
      </trkpt>
      <trkpt lat="48.29512" lon="7.32501">
        <ele>699.1</ele>
        <time>2016-08-21T10:58:24Z</time>
      </trkpt>
      <trkpt lat="48.29513" lon="7.32496">
        <ele>698.91</ele>
        <time>2016-08-21T10:58:57Z</time>
      </trkpt>
      <trkpt lat="48.29513" lon="7.32495">
        <ele>699.4</ele>
        <time>2016-08-21T10:59:41Z</time>
      </trkpt>
      <trkpt lat="48.29513" lon="7.32498">
        <ele>699.57</ele>
        <time>2016-08-21T11:00:11Z</time>
      </trkpt>
      <trkpt lat="48.29513" lon="7.32498">
        <ele>700.92</ele>
        <time>2016-08-21T11:00:53Z</time>
      </trkpt>
      <trkpt lat="48.29514" lon="7.32499">
        <ele>699.37</ele>
        <time>2016-08-21T11:01:24Z</time>
      </trkpt>
      <trkpt lat="48.29514" lon="7.32499">
        <ele>700.4</ele>
        <time>2016-08-21T11:01:51Z</time>
      </trkpt>
      <trkpt lat="48.29514" lon="7.32499">
        <ele>701.47</ele>
        <time>2016-08-21T11:02:21Z</time>
      </trkpt>
      <trkpt lat="48.29514" lon="7.32499">
        <ele>701.34</ele>
        <time>2016-08-21T11:02:49Z</time>
      </trkpt>
      <trkpt lat="48.29514" lon="7.32498">
        <ele>701</ele>
        <time>2016-08-21T11:03:16Z</time>
      </trkpt>
      <trkpt lat="48.29515" lon="7.32498">
        <ele>701.56</ele>
        <time>2016-08-21T11:03:43Z</time>
      </trkpt>
      <trkpt lat="48.29515" lon="7.32498">
        <ele>702.22</ele>
        <time>2016-08-21T11:04:22Z</time>
      </trkpt>
      <trkpt lat="48.29516" lon="7.32498">
        <ele>700.47</ele>
        <time>2016-08-21T11:04:49Z</time>
      </trkpt>
      <trkpt lat="48.29515" lon="7.32499">
        <ele>702.07</ele>
        <time>2016-08-21T11:05:16Z</time>
      </trkpt>
      <trkpt lat="48.29514" lon="7.32498">
        <ele>702.43</ele>
        <time>2016-08-21T11:06:19Z</time>
      </trkpt>
      <trkpt lat="48.29514" lon="7.32498">
        <ele>702.52</ele>
        <time>2016-08-21T11:07:12Z</time>
      </trkpt>
      <trkpt lat="48.29515" lon="7.32498">
        <ele>703.3</ele>
        <time>2016-08-21T11:08:11Z</time>
      </trkpt>
      <trkpt lat="48.29516" lon="7.32498">
        <ele>703.03</ele>
        <time>2016-08-21T11:09:01Z</time>
      </trkpt>
      <trkpt lat="48.29515" lon="7.32498">
        <ele>702.7</ele>
        <time>2016-08-21T11:09:59Z</time>
      </trkpt>
      <trkpt lat="48.29514" lon="7.32498">
        <ele>703.5</ele>
        <time>2016-08-21T11:10:45Z</time>
      </trkpt>
      <trkpt lat="48.29515" lon="7.32497">
        <ele>703.57</ele>
        <time>2016-08-21T11:11:42Z</time>
      </trkpt>
      <trkpt lat="48.29514" lon="7.32499">
        <ele>703.86</ele>
        <time>2016-08-21T11:12:42Z</time>
      </trkpt>
      <trkpt lat="48.29514" lon="7.32499">
        <ele>704.79</ele>
        <time>2016-08-21T11:13:56Z</time>
      </trkpt>
      <trkpt lat="48.29514" lon="7.32499">
        <ele>705.21</ele>
        <time>2016-08-21T11:15:02Z</time>
      </trkpt>
      <trkpt lat="48.29514" lon="7.32498">
        <ele>706.31</ele>
        <time>2016-08-21T11:16:04Z</time>
      </trkpt>
      <trkpt lat="48.29513" lon="7.32498">
        <ele>706.24</ele>
        <time>2016-08-21T11:17:01Z</time>
      </trkpt>
      <trkpt lat="48.29514" lon="7.32498">
        <ele>706.36</ele>
        <time>2016-08-21T11:18:08Z</time>
      </trkpt>
      <trkpt lat="48.29513" lon="7.325">
        <ele>705.92</ele>
        <time>2016-08-21T11:19:10Z</time>
      </trkpt>
      <trkpt lat="48.29514" lon="7.325">
        <ele>706</ele>
        <time>2016-08-21T11:20:04Z</time>
      </trkpt>
      <trkpt lat="48.29514" lon="7.32498">
        <ele>706.19</ele>
        <time>2016-08-21T11:21:02Z</time>
      </trkpt>
      <trkpt lat="48.29514" lon="7.32499">
        <ele>706.98</ele>
        <time>2016-08-21T11:21:56Z</time>
      </trkpt>
      <trkpt lat="48.29513" lon="7.32498">
        <ele>707.02</ele>
        <time>2016-08-21T11:22:52Z</time>
      </trkpt>
      <trkpt lat="48.29513" lon="7.32499">
        <ele>707.34</ele>
        <time>2016-08-21T11:23:48Z</time>
      </trkpt>
      <trkpt lat="48.29513" lon="7.32499">
        <ele>707.62</ele>
        <time>2016-08-21T11:24:43Z</time>
      </trkpt>
      <trkpt lat="48.29514" lon="7.32499">
        <ele>707.1</ele>
        <time>2016-08-21T11:25:44Z</time>
      </trkpt>
      <trkpt lat="48.29515" lon="7.32501">
        <ele>707.16</ele>
        <time>2016-08-21T11:26:21Z</time>
      </trkpt>
      <trkpt lat="48.29519" lon="7.32503">
        <ele>706.43</ele>
        <time>2016-08-21T11:26:41Z</time>
      </trkpt>
      <trkpt lat="48.29525" lon="7.32504">
        <ele>706.24</ele>
        <time>2016-08-21T11:26:48Z</time>
      </trkpt>
      <trkpt lat="48.29535" lon="7.32505">
        <ele>706.47</ele>
        <time>2016-08-21T11:27:01Z</time>
      </trkpt>
      <trkpt lat="48.29548" lon="7.32505">
        <ele>709.6</ele>
        <time>2016-08-21T11:27:13Z</time>
      </trkpt>
      <trkpt lat="48.29554" lon="7.32507">
        <ele>709.18</ele>
        <time>2016-08-21T11:27:31Z</time>
      </trkpt>
      <trkpt lat="48.29553" lon="7.32511">
        <ele>703.15</ele>
        <time>2016-08-21T11:27:41Z</time>
      </trkpt>
      <trkpt lat="48.29553" lon="7.32512">
        <ele>706.85</ele>
        <time>2016-08-21T11:27:42Z</time>
      </trkpt>
      <trkpt lat="48.29553" lon="7.32514">
        <ele>717.48</ele>
        <time>2016-08-21T11:27:45Z</time>
      </trkpt>
      <trkpt lat="48.29552" lon="7.32513">
        <ele>709.44</ele>
        <time>2016-08-21T11:27:46Z</time>
      </trkpt>
      <trkpt lat="48.2955" lon="7.32503">
        <ele>708.7</ele>
        <time>2016-08-21T11:28:04Z</time>
      </trkpt>
      <trkpt lat="48.29552" lon="7.32509">
        <ele>709.25</ele>
        <time>2016-08-21T11:28:22Z</time>
      </trkpt>
      <trkpt lat="48.29551" lon="7.3251">
        <ele>709.78</ele>
        <time>2016-08-21T11:28:40Z</time>
      </trkpt>
      <trkpt lat="48.29542" lon="7.32504">
        <ele>709.15</ele>
        <time>2016-08-21T11:28:56Z</time>
      </trkpt>
      <trkpt lat="48.29539" lon="7.32504">
        <ele>708.29</ele>
        <time>2016-08-21T11:28:58Z</time>
      </trkpt>
      <trkpt lat="48.29529" lon="7.32502">
        <ele>707.39</ele>
        <time>2016-08-21T11:29:05Z</time>
      </trkpt>
      <trkpt lat="48.29515" lon="7.32499">
        <ele>708.12</ele>
        <time>2016-08-21T11:29:20Z</time>
      </trkpt>
      <trkpt lat="48.29512" lon="7.32498">
        <ele>708.4</ele>
        <time>2016-08-21T11:29:44Z</time>
      </trkpt>
      <trkpt lat="48.29515" lon="7.325">
        <ele>708.75</ele>
        <time>2016-08-21T11:30:20Z</time>
      </trkpt>
      <trkpt lat="48.29519" lon="7.325">
        <ele>708.69</ele>
        <time>2016-08-21T11:30:56Z</time>
      </trkpt>
      <trkpt lat="48.29519" lon="7.325">
        <ele>707.55</ele>
        <time>2016-08-21T11:31:05Z</time>
      </trkpt>
      <trkpt lat="48.29518" lon="7.325">
        <ele>709.23</ele>
        <time>2016-08-21T11:31:28Z</time>
      </trkpt>
      <trkpt lat="48.29518" lon="7.32499">
        <ele>707.58</ele>
        <time>2016-08-21T11:31:50Z</time>
      </trkpt>
      <trkpt lat="48.29516" lon="7.32498">
        <ele>707.85</ele>
        <time>2016-08-21T11:32:11Z</time>
      </trkpt>
      <trkpt lat="48.29515" lon="7.325">
        <ele>709.02</ele>
        <time>2016-08-21T11:32:40Z</time>
      </trkpt>
      <trkpt lat="48.29517" lon="7.32498">
        <ele>707.46</ele>
        <time>2016-08-21T11:33:06Z</time>
      </trkpt>
      <trkpt lat="48.29517" lon="7.32498">
        <ele>710.63</ele>
        <time>2016-08-21T11:33:07Z</time>
      </trkpt>
      <trkpt lat="48.29517" lon="7.32498">
        <ele>709.42</ele>
        <time>2016-08-21T11:33:08Z</time>
      </trkpt>
      <trkpt lat="48.29516" lon="7.32499">
        <ele>708.6</ele>
        <time>2016-08-21T11:33:19Z</time>
      </trkpt>
      <trkpt lat="48.29516" lon="7.32497">
        <ele>708.36</ele>
        <time>2016-08-21T11:33:41Z</time>
      </trkpt>
      <trkpt lat="48.29516" lon="7.32497">
        <ele>709.6</ele>
        <time>2016-08-21T11:33:43Z</time>
      </trkpt>
      <trkpt lat="48.29515" lon="7.32498">
        <ele>709.79</ele>
        <time>2016-08-21T11:34:05Z</time>
      </trkpt>
      <trkpt lat="48.29516" lon="7.325">
        <ele>709.97</ele>
        <time>2016-08-21T11:34:31Z</time>
      </trkpt>
      <trkpt lat="48.29511" lon="7.32499">
        <ele>710.2</ele>
        <time>2016-08-21T11:34:55Z</time>
      </trkpt>
      <trkpt lat="48.29511" lon="7.32499">
        <ele>711.15</ele>
        <time>2016-08-21T11:34:59Z</time>
      </trkpt>
      <trkpt lat="48.2951" lon="7.32499">
        <ele>710.25</ele>
        <time>2016-08-21T11:35:26Z</time>
      </trkpt>
      <trkpt lat="48.29511" lon="7.325">
        <ele>709.92</ele>
        <time>2016-08-21T11:35:51Z</time>
      </trkpt>
      <trkpt lat="48.29512" lon="7.325">
        <ele>710.66</ele>
        <time>2016-08-21T11:36:19Z</time>
      </trkpt>
      <trkpt lat="48.29511" lon="7.32499">
        <ele>711.82</ele>
        <time>2016-08-21T11:36:39Z</time>
      </trkpt>
      <trkpt lat="48.29512" lon="7.325">
        <ele>711.13</ele>
        <time>2016-08-21T11:37:06Z</time>
      </trkpt>
      <trkpt lat="48.29516" lon="7.325">
        <ele>711.53</ele>
        <time>2016-08-21T11:37:29Z</time>
      </trkpt>
      <trkpt lat="48.29514" lon="7.32499">
        <ele>712.81</ele>
        <time>2016-08-21T11:37:51Z</time>
      </trkpt>
      <trkpt lat="48.29511" lon="7.32502">
        <ele>711.4</ele>
        <time>2016-08-21T11:38:18Z</time>
      </trkpt>
      <trkpt lat="48.29511" lon="7.32502">
        <ele>712.04</ele>
        <time>2016-08-21T11:38:24Z</time>
      </trkpt>
      <trkpt lat="48.29511" lon="7.32501">
        <ele>712.85</ele>
        <time>2016-08-21T11:38:49Z</time>
      </trkpt>
      <trkpt lat="48.29509" lon="7.325">
        <ele>711.73</ele>
        <time>2016-08-21T11:39:14Z</time>
      </trkpt>
      <trkpt lat="48.29509" lon="7.32502">
        <ele>710.64</ele>
        <time>2016-08-21T11:39:36Z</time>
      </trkpt>
      <trkpt lat="48.29515" lon="7.32501">
        <ele>710.08</ele>
        <time>2016-08-21T11:40:00Z</time>
      </trkpt>
      <trkpt lat="48.29516" lon="7.32502">
        <ele>711.29</ele>
        <time>2016-08-21T11:40:27Z</time>
      </trkpt>
      <trkpt lat="48.29515" lon="7.325">
        <ele>710.76</ele>
        <time>2016-08-21T11:40:52Z</time>
      </trkpt>
      <trkpt lat="48.29514" lon="7.32503">
        <ele>710.91</ele>
        <time>2016-08-21T11:41:16Z</time>
      </trkpt>
      <trkpt lat="48.29513" lon="7.32502">
        <ele>710.07</ele>
        <time>2016-08-21T11:41:26Z</time>
      </trkpt>
      <trkpt lat="48.29512" lon="7.32501">
        <ele>713.4</ele>
        <time>2016-08-21T11:41:32Z</time>
      </trkpt>
      <trkpt lat="48.29516" lon="7.325">
        <ele>711.57</ele>
        <time>2016-08-21T11:41:58Z</time>
      </trkpt>
      <trkpt lat="48.29515" lon="7.32497">
        <ele>711.47</ele>
        <time>2016-08-21T11:42:24Z</time>
      </trkpt>
      <trkpt lat="48.29516" lon="7.32497">
        <ele>709.6</ele>
        <time>2016-08-21T11:42:33Z</time>
      </trkpt>
      <trkpt lat="48.29516" lon="7.32497">
        <ele>713.36</ele>
        <time>2016-08-21T11:42:34Z</time>
      </trkpt>
      <trkpt lat="48.29515" lon="7.32499">
        <ele>711.84</ele>
        <time>2016-08-21T11:42:53Z</time>
      </trkpt>
      <trkpt lat="48.29516" lon="7.32499">
        <ele>712.73</ele>
        <time>2016-08-21T11:43:18Z</time>
      </trkpt>
      <trkpt lat="48.29515" lon="7.32501">
        <ele>712.22</ele>
        <time>2016-08-21T11:43:44Z</time>
      </trkpt>
      <trkpt lat="48.29516" lon="7.32501">
        <ele>711.9</ele>
        <time>2016-08-21T11:44:08Z</time>
      </trkpt>
      <trkpt lat="48.29519" lon="7.32506">
        <ele>713.21</ele>
        <time>2016-08-21T11:44:32Z</time>
      </trkpt>
      <trkpt lat="48.29523" lon="7.32504">
        <ele>712.1</ele>
        <time>2016-08-21T11:44:56Z</time>
      </trkpt>
      <trkpt lat="48.29523" lon="7.32504">
        <ele>712.65</ele>
        <time>2016-08-21T11:45:23Z</time>
      </trkpt>
      <trkpt lat="48.29528" lon="7.32504">
        <ele>711.64</ele>
        <time>2016-08-21T11:45:47Z</time>
      </trkpt>
      <trkpt lat="48.29532" lon="7.32513">
        <ele>710.82</ele>
        <time>2016-08-21T11:46:04Z</time>
      </trkpt>
      <trkpt lat="48.2954" lon="7.32512">
        <ele>710.6</ele>
        <time>2016-08-21T11:46:17Z</time>
      </trkpt>
      <trkpt lat="48.29547" lon="7.32518">
        <ele>707.76</ele>
        <time>2016-08-21T11:46:40Z</time>
      </trkpt>
      <trkpt lat="48.29554" lon="7.32524">
        <ele>704.71</ele>
        <time>2016-08-21T11:46:52Z</time>
      </trkpt>
      <trkpt lat="48.29567" lon="7.32521">
        <ele>701.56</ele>
        <time>2016-08-21T11:47:11Z</time>
      </trkpt>
      <trkpt lat="48.29568" lon="7.3252">
        <ele>701.45</ele>
        <time>2016-08-21T11:47:12Z</time>
      </trkpt>
      <trkpt lat="48.29568" lon="7.32512">
        <ele>701.52</ele>
        <time>2016-08-21T11:47:18Z</time>
      </trkpt>
      <trkpt lat="48.29567" lon="7.32496">
        <ele>701.71</ele>
        <time>2016-08-21T11:47:32Z</time>
      </trkpt>
      <trkpt lat="48.29564" lon="7.32485">
        <ele>699.58</ele>
        <time>2016-08-21T11:47:45Z</time>
      </trkpt>
      <trkpt lat="48.29563" lon="7.32473">
        <ele>698.33</ele>
        <time>2016-08-21T11:47:56Z</time>
      </trkpt>
      <trkpt lat="48.29557" lon="7.32469">
        <ele>697.64</ele>
        <time>2016-08-21T11:48:01Z</time>
      </trkpt>
      <trkpt lat="48.29538" lon="7.32458">
        <ele>697.3</ele>
        <time>2016-08-21T11:48:15Z</time>
      </trkpt>
      <trkpt lat="48.29533" lon="7.3246">
        <ele>697.56</ele>
        <time>2016-08-21T11:48:26Z</time>
      </trkpt>
      <trkpt lat="48.29523" lon="7.32465">
        <ele>695.79</ele>
        <time>2016-08-21T11:48:44Z</time>
      </trkpt>
      <trkpt lat="48.29521" lon="7.32465">
        <ele>692.55</ele>
        <time>2016-08-21T11:48:57Z</time>
      </trkpt>
      <trkpt lat="48.29529" lon="7.32459">
        <ele>689.51</ele>
        <time>2016-08-21T11:49:15Z</time>
      </trkpt>
      <trkpt lat="48.2953" lon="7.32452">
        <ele>688.58</ele>
        <time>2016-08-21T11:49:21Z</time>
      </trkpt>
      <trkpt lat="48.29535" lon="7.32442">
        <ele>687.29</ele>
        <time>2016-08-21T11:49:37Z</time>
      </trkpt>
      <trkpt lat="48.29538" lon="7.32441">
        <ele>685.12</ele>
        <time>2016-08-21T11:49:43Z</time>
      </trkpt>
      <trkpt lat="48.29538" lon="7.3244">
        <ele>685.05</ele>
        <time>2016-08-21T11:49:44Z</time>
      </trkpt>
      <trkpt lat="48.29549" lon="7.32426">
        <ele>683.52</ele>
        <time>2016-08-21T11:50:03Z</time>
      </trkpt>
      <trkpt lat="48.29554" lon="7.32419">
        <ele>681.75</ele>
        <time>2016-08-21T11:50:13Z</time>
      </trkpt>
      <trkpt lat="48.29563" lon="7.32412">
        <ele>678.9</ele>
        <time>2016-08-21T11:50:32Z</time>
      </trkpt>
      <trkpt lat="48.29563" lon="7.32399">
        <ele>678.06</ele>
        <time>2016-08-21T11:50:38Z</time>
      </trkpt>
      <trkpt lat="48.29572" lon="7.32391">
        <ele>674.95</ele>
        <time>2016-08-21T11:50:49Z</time>
      </trkpt>
      <trkpt lat="48.2958" lon="7.32385">
        <ele>672.2</ele>
        <time>2016-08-21T11:51:07Z</time>
      </trkpt>
      <trkpt lat="48.29581" lon="7.32384">
        <ele>671.31</ele>
        <time>2016-08-21T11:51:09Z</time>
      </trkpt>
      <trkpt lat="48.29583" lon="7.32376">
        <ele>669.56</ele>
        <time>2016-08-21T11:51:21Z</time>
      </trkpt>
      <trkpt lat="48.29584" lon="7.32372">
        <ele>668.78</ele>
        <time>2016-08-21T11:51:26Z</time>
      </trkpt>
      <trkpt lat="48.29579" lon="7.32357">
        <ele>668.78</ele>
        <time>2016-08-21T11:51:35Z</time>
      </trkpt>
      <trkpt lat="48.29574" lon="7.32347">
        <ele>669.04</ele>
        <time>2016-08-21T11:51:37Z</time>
      </trkpt>
      <trkpt lat="48.29573" lon="7.32346">
        <ele>667.64</ele>
        <time>2016-08-21T11:51:39Z</time>
      </trkpt>
      <trkpt lat="48.29555" lon="7.3234">
        <ele>666.67</ele>
        <time>2016-08-21T11:51:53Z</time>
      </trkpt>
      <trkpt lat="48.29544" lon="7.32344">
        <ele>668.72</ele>
        <time>2016-08-21T11:52:04Z</time>
      </trkpt>
      <trkpt lat="48.29534" lon="7.3235">
        <ele>666.33</ele>
        <time>2016-08-21T11:52:17Z</time>
      </trkpt>
      <trkpt lat="48.29532" lon="7.32355">
        <ele>669.94</ele>
        <time>2016-08-21T11:52:24Z</time>
      </trkpt>
      <trkpt lat="48.2953" lon="7.32356">
        <ele>665.91</ele>
        <time>2016-08-21T11:52:27Z</time>
      </trkpt>
      <trkpt lat="48.29529" lon="7.32357">
        <ele>672.01</ele>
        <time>2016-08-21T11:52:28Z</time>
      </trkpt>
      <trkpt lat="48.29529" lon="7.32359">
        <ele>668.18</ele>
        <time>2016-08-21T11:52:30Z</time>
      </trkpt>
      <trkpt lat="48.29528" lon="7.3236">
        <ele>671.59</ele>
        <time>2016-08-21T11:52:31Z</time>
      </trkpt>
      <trkpt lat="48.29525" lon="7.32362">
        <ele>670.92</ele>
        <time>2016-08-21T11:52:37Z</time>
      </trkpt>
      <trkpt lat="48.29523" lon="7.32363">
        <ele>671.63</ele>
        <time>2016-08-21T11:52:40Z</time>
      </trkpt>
      <trkpt lat="48.29519" lon="7.32368">
        <ele>672.26</ele>
        <time>2016-08-21T11:52:55Z</time>
      </trkpt>
      <trkpt lat="48.29516" lon="7.32376">
        <ele>671.6</ele>
        <time>2016-08-21T11:53:17Z</time>
      </trkpt>
      <trkpt lat="48.29515" lon="7.32375">
        <ele>673.6</ele>
        <time>2016-08-21T11:53:27Z</time>
      </trkpt>
      <trkpt lat="48.29516" lon="7.32374">
        <ele>669.12</ele>
        <time>2016-08-21T11:53:29Z</time>
      </trkpt>
      <trkpt lat="48.29516" lon="7.32374">
        <ele>673.61</ele>
        <time>2016-08-21T11:53:30Z</time>
      </trkpt>
      <trkpt lat="48.29516" lon="7.32375">
        <ele>671.22</ele>
        <time>2016-08-21T11:53:33Z</time>
      </trkpt>
      <trkpt lat="48.29517" lon="7.32375">
        <ele>667.43</ele>
        <time>2016-08-21T11:53:40Z</time>
      </trkpt>
      <trkpt lat="48.29517" lon="7.32376">
        <ele>672.96</ele>
        <time>2016-08-21T11:53:41Z</time>
      </trkpt>
      <trkpt lat="48.29517" lon="7.32376">
        <ele>672.33</ele>
        <time>2016-08-21T11:53:42Z</time>
      </trkpt>
      <trkpt lat="48.29517" lon="7.32376">
        <ele>671.22</ele>
        <time>2016-08-21T11:53:44Z</time>
      </trkpt>
      <trkpt lat="48.29517" lon="7.32376">
        <ele>671.43</ele>
        <time>2016-08-21T11:53:45Z</time>
      </trkpt>
      <trkpt lat="48.29514" lon="7.32375">
        <ele>668.13</ele>
        <time>2016-08-21T11:53:49Z</time>
      </trkpt>
      <trkpt lat="48.29514" lon="7.32375">
        <ele>673.95</ele>
        <time>2016-08-21T11:53:50Z</time>
      </trkpt>
      <trkpt lat="48.29514" lon="7.32375">
        <ele>670.22</ele>
        <time>2016-08-21T11:53:51Z</time>
      </trkpt>
      <trkpt lat="48.29514" lon="7.32381">
        <ele>672.02</ele>
        <time>2016-08-21T11:54:14Z</time>
      </trkpt>
      <trkpt lat="48.29515" lon="7.3238">
        <ele>672.19</ele>
        <time>2016-08-21T11:54:32Z</time>
      </trkpt>
      <trkpt lat="48.29495" lon="7.32355">
        <ele>673.21</ele>
        <time>2016-08-21T11:54:52Z</time>
      </trkpt>
      <trkpt lat="48.29491" lon="7.32354">
        <ele>672.5</ele>
        <time>2016-08-21T11:55:16Z</time>
      </trkpt>
      <trkpt lat="48.29496" lon="7.32367">
        <ele>672.63</ele>
        <time>2016-08-21T11:55:37Z</time>
      </trkpt>
      <trkpt lat="48.29497" lon="7.32367">
        <ele>665.65</ele>
        <time>2016-08-21T11:55:40Z</time>
      </trkpt>
      <trkpt lat="48.29498" lon="7.32367">
        <ele>678.21</ele>
        <time>2016-08-21T11:55:41Z</time>
      </trkpt>
      <trkpt lat="48.29498" lon="7.32367">
        <ele>673.71</ele>
        <time>2016-08-21T11:55:42Z</time>
      </trkpt>
      <trkpt lat="48.29496" lon="7.32367">
        <ele>667.39</ele>
        <time>2016-08-21T11:55:54Z</time>
      </trkpt>
      <trkpt lat="48.29496" lon="7.32368">
        <ele>676.33</ele>
        <time>2016-08-21T11:55:55Z</time>
      </trkpt>
      <trkpt lat="48.29496" lon="7.32368">
        <ele>673.01</ele>
        <time>2016-08-21T11:55:56Z</time>
      </trkpt>
      <trkpt lat="48.29497" lon="7.32367">
        <ele>672.35</ele>
        <time>2016-08-21T11:56:05Z</time>
      </trkpt>
      <trkpt lat="48.29497" lon="7.32366">
        <ele>677.89</ele>
        <time>2016-08-21T11:56:10Z</time>
      </trkpt>
      <trkpt lat="48.29497" lon="7.32365">
        <ele>673.2</ele>
        <time>2016-08-21T11:56:11Z</time>
      </trkpt>
      <trkpt lat="48.29497" lon="7.32364">
        <ele>659.24</ele>
        <time>2016-08-21T11:56:19Z</time>
      </trkpt>
      <trkpt lat="48.29497" lon="7.32365">
        <ele>674.73</ele>
        <time>2016-08-21T11:56:20Z</time>
      </trkpt>
      <trkpt lat="48.29497" lon="7.32365">
        <ele>679.71</ele>
        <time>2016-08-21T11:56:22Z</time>
      </trkpt>
      <trkpt lat="48.29497" lon="7.32364">
        <ele>673.7</ele>
        <time>2016-08-21T11:56:23Z</time>
      </trkpt>
      <trkpt lat="48.29499" lon="7.32363">
        <ele>672.82</ele>
        <time>2016-08-21T11:56:25Z</time>
      </trkpt>
      <trkpt lat="48.29497" lon="7.3236">
        <ele>671.46</ele>
        <time>2016-08-21T11:56:50Z</time>
      </trkpt>
      <trkpt lat="48.29497" lon="7.32356">
        <ele>670.49</ele>
        <time>2016-08-21T11:57:10Z</time>
      </trkpt>
      <trkpt lat="48.29508" lon="7.32346">
        <ele>669.13</ele>
        <time>2016-08-21T11:57:33Z</time>
      </trkpt>
      <trkpt lat="48.29514" lon="7.32333">
        <ele>668.05</ele>
        <time>2016-08-21T11:57:51Z</time>
      </trkpt>
      <trkpt lat="48.29525" lon="7.32324">
        <ele>666.91</ele>
        <time>2016-08-21T11:58:12Z</time>
      </trkpt>
      <trkpt lat="48.29544" lon="7.32324">
        <ele>667.3</ele>
        <time>2016-08-21T11:58:31Z</time>
      </trkpt>
      <trkpt lat="48.29546" lon="7.32324">
        <ele>666.48</ele>
        <time>2016-08-21T11:58:33Z</time>
      </trkpt>
      <trkpt lat="48.29552" lon="7.32324">
        <ele>667.76</ele>
        <time>2016-08-21T11:58:39Z</time>
      </trkpt>
      <trkpt lat="48.29567" lon="7.32327">
        <ele>667.39</ele>
        <time>2016-08-21T11:58:59Z</time>
      </trkpt>
      <trkpt lat="48.29577" lon="7.32328">
        <ele>664.48</ele>
        <time>2016-08-21T11:59:21Z</time>
      </trkpt>
      <trkpt lat="48.29581" lon="7.32316">
        <ele>661.53</ele>
        <time>2016-08-21T11:59:37Z</time>
      </trkpt>
      <trkpt lat="48.29583" lon="7.32313">
        <ele>660.48</ele>
        <time>2016-08-21T11:59:41Z</time>
      </trkpt>
      <trkpt lat="48.29583" lon="7.32306">
        <ele>660.07</ele>
        <time>2016-08-21T11:59:46Z</time>
      </trkpt>
      <trkpt lat="48.29582" lon="7.32299">
        <ele>659.34</ele>
        <time>2016-08-21T11:59:53Z</time>
      </trkpt>
      <trkpt lat="48.2958" lon="7.32289">
        <ele>657.97</ele>
        <time>2016-08-21T12:00:03Z</time>
      </trkpt>
      <trkpt lat="48.29578" lon="7.32282">
        <ele>656.75</ele>
        <time>2016-08-21T12:00:12Z</time>
      </trkpt>
      <trkpt lat="48.29577" lon="7.32278">
        <ele>655.29</ele>
        <time>2016-08-21T12:00:19Z</time>
      </trkpt>
      <trkpt lat="48.29578" lon="7.32256">
        <ele>652.59</ele>
        <time>2016-08-21T12:00:43Z</time>
      </trkpt>
      <trkpt lat="48.29579" lon="7.3223">
        <ele>649.46</ele>
        <time>2016-08-21T12:01:03Z</time>
      </trkpt>
      <trkpt lat="48.29579" lon="7.32184">
        <ele>647.95</ele>
        <time>2016-08-21T12:01:26Z</time>
      </trkpt>
      <trkpt lat="48.29581" lon="7.32154">
        <ele>647.2</ele>
        <time>2016-08-21T12:01:49Z</time>
      </trkpt>
      <trkpt lat="48.29576" lon="7.32106">
        <ele>647.59</ele>
        <time>2016-08-21T12:02:11Z</time>
      </trkpt>
      <trkpt lat="48.2958" lon="7.32082">
        <ele>649.27</ele>
        <time>2016-08-21T12:02:26Z</time>
      </trkpt>
      <trkpt lat="48.29587" lon="7.32058">
        <ele>648.7</ele>
        <time>2016-08-21T12:02:47Z</time>
      </trkpt>
      <trkpt lat="48.29587" lon="7.32031">
        <ele>649.79</ele>
        <time>2016-08-21T12:03:02Z</time>
      </trkpt>
      <trkpt lat="48.29586" lon="7.32012">
        <ele>651.3</ele>
        <time>2016-08-21T12:03:15Z</time>
      </trkpt>
      <trkpt lat="48.29586" lon="7.31987">
        <ele>653.2</ele>
        <time>2016-08-21T12:03:30Z</time>
      </trkpt>
      <trkpt lat="48.29584" lon="7.31964">
        <ele>653.66</ele>
        <time>2016-08-21T12:03:48Z</time>
      </trkpt>
      <trkpt lat="48.29584" lon="7.31952">
        <ele>654.42</ele>
        <time>2016-08-21T12:04:00Z</time>
      </trkpt>
      <trkpt lat="48.29582" lon="7.31948">
        <ele>654.06</ele>
        <time>2016-08-21T12:04:08Z</time>
      </trkpt>
      <trkpt lat="48.29581" lon="7.31946">
        <ele>654.27</ele>
        <time>2016-08-21T12:04:10Z</time>
      </trkpt>
      <trkpt lat="48.29587" lon="7.31934">
        <ele>656.62</ele>
        <time>2016-08-21T12:04:26Z</time>
      </trkpt>
      <trkpt lat="48.29587" lon="7.31928">
        <ele>655.13</ele>
        <time>2016-08-21T12:04:31Z</time>
      </trkpt>
      <trkpt lat="48.29588" lon="7.31924">
        <ele>656.51</ele>
        <time>2016-08-21T12:04:33Z</time>
      </trkpt>
      <trkpt lat="48.29592" lon="7.31915">
        <ele>655.03</ele>
        <time>2016-08-21T12:04:44Z</time>
      </trkpt>
      <trkpt lat="48.29596" lon="7.31905">
        <ele>658.82</ele>
        <time>2016-08-21T12:04:53Z</time>
      </trkpt>
      <trkpt lat="48.29602" lon="7.31896">
        <ele>660.39</ele>
        <time>2016-08-21T12:05:05Z</time>
      </trkpt>
      <trkpt lat="48.29602" lon="7.31889">
        <ele>658.56</ele>
        <time>2016-08-21T12:05:14Z</time>
      </trkpt>
      <trkpt lat="48.29603" lon="7.31885">
        <ele>657.12</ele>
        <time>2016-08-21T12:05:17Z</time>
      </trkpt>
      <trkpt lat="48.29603" lon="7.31884">
        <ele>661.04</ele>
        <time>2016-08-21T12:05:18Z</time>
      </trkpt>
      <trkpt lat="48.29606" lon="7.31866">
        <ele>660.9</ele>
        <time>2016-08-21T12:05:31Z</time>
      </trkpt>
      <trkpt lat="48.29608" lon="7.31851">
        <ele>664.41</ele>
        <time>2016-08-21T12:05:38Z</time>
      </trkpt>
      <trkpt lat="48.2961" lon="7.31829">
        <ele>664.39</ele>
        <time>2016-08-21T12:05:49Z</time>
      </trkpt>
      <trkpt lat="48.2961" lon="7.31829">
        <ele>664.52</ele>
        <time>2016-08-21T12:05:50Z</time>
      </trkpt>
      <trkpt lat="48.2961" lon="7.31821">
        <ele>664.52</ele>
        <time>2016-08-21T12:05:53Z</time>
      </trkpt>
      <trkpt lat="48.29611" lon="7.31814">
        <ele>666.57</ele>
        <time>2016-08-21T12:05:58Z</time>
      </trkpt>
      <trkpt lat="48.29609" lon="7.31811">
        <ele>662.82</ele>
        <time>2016-08-21T12:06:00Z</time>
      </trkpt>
      <trkpt lat="48.29609" lon="7.31807">
        <ele>666.45</ele>
        <time>2016-08-21T12:06:04Z</time>
      </trkpt>
      <trkpt lat="48.29616" lon="7.31791">
        <ele>667.14</ele>
        <time>2016-08-21T12:06:16Z</time>
      </trkpt>
      <trkpt lat="48.29619" lon="7.31775">
        <ele>665.61</ele>
        <time>2016-08-21T12:06:32Z</time>
      </trkpt>
      <trkpt lat="48.29619" lon="7.31774">
        <ele>668.86</ele>
        <time>2016-08-21T12:06:33Z</time>
      </trkpt>
      <trkpt lat="48.29625" lon="7.31764">
        <ele>670.09</ele>
        <time>2016-08-21T12:06:44Z</time>
      </trkpt>
      <trkpt lat="48.29627" lon="7.31759">
        <ele>667.96</ele>
        <time>2016-08-21T12:06:49Z</time>
      </trkpt>
      <trkpt lat="48.2963" lon="7.3175">
        <ele>671.92</ele>
        <time>2016-08-21T12:06:59Z</time>
      </trkpt>
      <trkpt lat="48.29636" lon="7.3174">
        <ele>672.09</ele>
        <time>2016-08-21T12:07:11Z</time>
      </trkpt>
      <trkpt lat="48.29638" lon="7.31724">
        <ele>673.8</ele>
        <time>2016-08-21T12:07:28Z</time>
      </trkpt>
      <trkpt lat="48.29646" lon="7.31701">
        <ele>676.01</ele>
        <time>2016-08-21T12:07:43Z</time>
      </trkpt>
      <trkpt lat="48.29656" lon="7.31681">
        <ele>673.23</ele>
        <time>2016-08-21T12:08:00Z</time>
      </trkpt>
      <trkpt lat="48.29656" lon="7.3168">
        <ele>677.52</ele>
        <time>2016-08-21T12:08:01Z</time>
      </trkpt>
      <trkpt lat="48.29664" lon="7.31666">
        <ele>675.87</ele>
        <time>2016-08-21T12:08:11Z</time>
      </trkpt>
      <trkpt lat="48.29674" lon="7.31647">
        <ele>676.83</ele>
        <time>2016-08-21T12:08:28Z</time>
      </trkpt>
      <trkpt lat="48.29676" lon="7.3164">
        <ele>680.46</ele>
        <time>2016-08-21T12:08:35Z</time>
      </trkpt>
      <trkpt lat="48.2968" lon="7.31631">
        <ele>679.77</ele>
        <time>2016-08-21T12:08:47Z</time>
      </trkpt>
      <trkpt lat="48.29684" lon="7.31627">
        <ele>681.21</ele>
        <time>2016-08-21T12:08:53Z</time>
      </trkpt>
      <trkpt lat="48.29695" lon="7.31611">
        <ele>683.82</ele>
        <time>2016-08-21T12:09:12Z</time>
      </trkpt>
      <trkpt lat="48.29695" lon="7.31608">
        <ele>680.42</ele>
        <time>2016-08-21T12:09:14Z</time>
      </trkpt>
      <trkpt lat="48.29696" lon="7.31606">
        <ele>683.01</ele>
        <time>2016-08-21T12:09:16Z</time>
      </trkpt>
      <trkpt lat="48.29704" lon="7.31595">
        <ele>683.62</ele>
        <time>2016-08-21T12:09:28Z</time>
      </trkpt>
      <trkpt lat="48.29718" lon="7.31581">
        <ele>685.11</ele>
        <time>2016-08-21T12:09:40Z</time>
      </trkpt>
      <trkpt lat="48.29726" lon="7.31569">
        <ele>684.68</ele>
        <time>2016-08-21T12:09:51Z</time>
      </trkpt>
      <trkpt lat="48.29727" lon="7.31566">
        <ele>684.87</ele>
        <time>2016-08-21T12:09:54Z</time>
      </trkpt>
      <trkpt lat="48.29729" lon="7.31563">
        <ele>686.61</ele>
        <time>2016-08-21T12:09:58Z</time>
      </trkpt>
      <trkpt lat="48.29736" lon="7.31557">
        <ele>686.4</ele>
        <time>2016-08-21T12:10:08Z</time>
      </trkpt>
      <trkpt lat="48.29741" lon="7.31545">
        <ele>688.11</ele>
        <time>2016-08-21T12:10:21Z</time>
      </trkpt>
      <trkpt lat="48.29746" lon="7.31534">
        <ele>690.34</ele>
        <time>2016-08-21T12:10:37Z</time>
      </trkpt>
      <trkpt lat="48.29748" lon="7.31531">
        <ele>690.83</ele>
        <time>2016-08-21T12:10:43Z</time>
      </trkpt>
      <trkpt lat="48.2975" lon="7.31531">
        <ele>691.7</ele>
        <time>2016-08-21T12:10:45Z</time>
      </trkpt>
      <trkpt lat="48.29751" lon="7.31529">
        <ele>689.98</ele>
        <time>2016-08-21T12:10:48Z</time>
      </trkpt>
      <trkpt lat="48.29758" lon="7.31514">
        <ele>692.14</ele>
        <time>2016-08-21T12:11:07Z</time>
      </trkpt>
      <trkpt lat="48.29762" lon="7.31507">
        <ele>694.41</ele>
        <time>2016-08-21T12:11:20Z</time>
      </trkpt>
      <trkpt lat="48.29763" lon="7.31505">
        <ele>690.8</ele>
        <time>2016-08-21T12:11:22Z</time>
      </trkpt>
      <trkpt lat="48.29764" lon="7.31504">
        <ele>694.05</ele>
        <time>2016-08-21T12:11:23Z</time>
      </trkpt>
      <trkpt lat="48.29765" lon="7.315">
        <ele>691.02</ele>
        <time>2016-08-21T12:11:28Z</time>
      </trkpt>
      <trkpt lat="48.29765" lon="7.315">
        <ele>694.87</ele>
        <time>2016-08-21T12:11:29Z</time>
      </trkpt>
      <trkpt lat="48.29769" lon="7.31494">
        <ele>693.3</ele>
        <time>2016-08-21T12:11:41Z</time>
      </trkpt>
      <trkpt lat="48.29784" lon="7.31471">
        <ele>694.93</ele>
        <time>2016-08-21T12:11:54Z</time>
      </trkpt>
      <trkpt lat="48.29792" lon="7.31459">
        <ele>695.76</ele>
        <time>2016-08-21T12:12:02Z</time>
      </trkpt>
      <trkpt lat="48.29799" lon="7.31445">
        <ele>697.27</ele>
        <time>2016-08-21T12:12:16Z</time>
      </trkpt>
      <trkpt lat="48.29803" lon="7.31432">
        <ele>702.14</ele>
        <time>2016-08-21T12:12:35Z</time>
      </trkpt>
      <trkpt lat="48.29802" lon="7.31431">
        <ele>698.77</ele>
        <time>2016-08-21T12:12:37Z</time>
      </trkpt>
      <trkpt lat="48.29804" lon="7.31416">
        <ele>701.79</ele>
        <time>2016-08-21T12:12:59Z</time>
      </trkpt>
      <trkpt lat="48.29808" lon="7.31405">
        <ele>705</ele>
        <time>2016-08-21T12:13:13Z</time>
      </trkpt>
      <trkpt lat="48.29809" lon="7.31404">
        <ele>701.47</ele>
        <time>2016-08-21T12:13:14Z</time>
      </trkpt>
      <trkpt lat="48.29811" lon="7.31398">
        <ele>703.9</ele>
        <time>2016-08-21T12:13:19Z</time>
      </trkpt>
      <trkpt lat="48.29816" lon="7.3138">
        <ele>704.69</ele>
        <time>2016-08-21T12:13:34Z</time>
      </trkpt>
      <trkpt lat="48.29826" lon="7.31352">
        <ele>706.44</ele>
        <time>2016-08-21T12:13:52Z</time>
      </trkpt>
      <trkpt lat="48.29832" lon="7.3134">
        <ele>706.52</ele>
        <time>2016-08-21T12:13:59Z</time>
      </trkpt>
      <trkpt lat="48.29847" lon="7.31324">
        <ele>709.42</ele>
        <time>2016-08-21T12:14:16Z</time>
      </trkpt>
      <trkpt lat="48.29848" lon="7.31306">
        <ele>707.91</ele>
        <time>2016-08-21T12:14:36Z</time>
      </trkpt>
      <trkpt lat="48.29848" lon="7.31306">
        <ele>712.18</ele>
        <time>2016-08-21T12:14:37Z</time>
      </trkpt>
      <trkpt lat="48.29848" lon="7.31306">
        <ele>708.82</ele>
        <time>2016-08-21T12:14:38Z</time>
      </trkpt>
      <trkpt lat="48.29848" lon="7.31305">
        <ele>711.83</ele>
        <time>2016-08-21T12:14:39Z</time>
      </trkpt>
      <trkpt lat="48.29848" lon="7.31304">
        <ele>708.6</ele>
        <time>2016-08-21T12:14:40Z</time>
      </trkpt>
      <trkpt lat="48.29847" lon="7.31303">
        <ele>712.5</ele>
        <time>2016-08-21T12:14:41Z</time>
      </trkpt>
      <trkpt lat="48.29847" lon="7.31303">
        <ele>709.49</ele>
        <time>2016-08-21T12:14:42Z</time>
      </trkpt>
      <trkpt lat="48.29847" lon="7.31302">
        <ele>713.54</ele>
        <time>2016-08-21T12:14:43Z</time>
      </trkpt>
      <trkpt lat="48.29846" lon="7.313">
        <ele>712.65</ele>
        <time>2016-08-21T12:14:45Z</time>
      </trkpt>
      <trkpt lat="48.29846" lon="7.31297">
        <ele>708.29</ele>
        <time>2016-08-21T12:14:50Z</time>
      </trkpt>
      <trkpt lat="48.29845" lon="7.31297">
        <ele>714.31</ele>
        <time>2016-08-21T12:14:51Z</time>
      </trkpt>
      <trkpt lat="48.29839" lon="7.313">
        <ele>712.43</ele>
        <time>2016-08-21T12:14:55Z</time>
      </trkpt>
      <trkpt lat="48.29837" lon="7.313">
        <ele>712.51</ele>
        <time>2016-08-21T12:14:57Z</time>
      </trkpt>
      <trkpt lat="48.29826" lon="7.31299">
        <ele>714.58</ele>
        <time>2016-08-21T12:15:11Z</time>
      </trkpt>
      <trkpt lat="48.29824" lon="7.31291">
        <ele>714.21</ele>
        <time>2016-08-21T12:15:17Z</time>
      </trkpt>
      <trkpt lat="48.29829" lon="7.31285">
        <ele>715.06</ele>
        <time>2016-08-21T12:15:29Z</time>
      </trkpt>
      <trkpt lat="48.29831" lon="7.31286">
        <ele>715.3</ele>
        <time>2016-08-21T12:15:37Z</time>
      </trkpt>
      <trkpt lat="48.29837" lon="7.31288">
        <ele>714.78</ele>
        <time>2016-08-21T12:15:44Z</time>
      </trkpt>
      <trkpt lat="48.29839" lon="7.31286">
        <ele>714.57</ele>
        <time>2016-08-21T12:16:16Z</time>
      </trkpt>
      <trkpt lat="48.29841" lon="7.31276">
        <ele>713.96</ele>
        <time>2016-08-21T12:16:40Z</time>
      </trkpt>
      <trkpt lat="48.29844" lon="7.31268">
        <ele>715.1</ele>
        <time>2016-08-21T12:17:02Z</time>
      </trkpt>
      <trkpt lat="48.29853" lon="7.31253">
        <ele>715.8</ele>
        <time>2016-08-21T12:17:18Z</time>
      </trkpt>
      <trkpt lat="48.29855" lon="7.31251">
        <ele>716.98</ele>
        <time>2016-08-21T12:17:20Z</time>
      </trkpt>
      <trkpt lat="48.29859" lon="7.31248">
        <ele>716.82</ele>
        <time>2016-08-21T12:17:24Z</time>
      </trkpt>
      <trkpt lat="48.2986" lon="7.31244">
        <ele>717.46</ele>
        <time>2016-08-21T12:17:28Z</time>
      </trkpt>
      <trkpt lat="48.29862" lon="7.31233">
        <ele>718.35</ele>
        <time>2016-08-21T12:17:42Z</time>
      </trkpt>
      <trkpt lat="48.2987" lon="7.31219">
        <ele>719.96</ele>
        <time>2016-08-21T12:17:58Z</time>
      </trkpt>
      <trkpt lat="48.29871" lon="7.31209">
        <ele>719.23</ele>
        <time>2016-08-21T12:18:06Z</time>
      </trkpt>
      <trkpt lat="48.2987" lon="7.31212">
        <ele>719.32</ele>
        <time>2016-08-21T12:18:34Z</time>
      </trkpt>
      <trkpt lat="48.29871" lon="7.31212">
        <ele>719.28</ele>
        <time>2016-08-21T12:18:48Z</time>
      </trkpt>
      <trkpt lat="48.29879" lon="7.312">
        <ele>720.67</ele>
        <time>2016-08-21T12:19:00Z</time>
      </trkpt>
      <trkpt lat="48.29887" lon="7.31178">
        <ele>722.23</ele>
        <time>2016-08-21T12:19:20Z</time>
      </trkpt>
      <trkpt lat="48.29892" lon="7.31163">
        <ele>723.03</ele>
        <time>2016-08-21T12:19:36Z</time>
      </trkpt>
      <trkpt lat="48.29893" lon="7.31162">
        <ele>722.12</ele>
        <time>2016-08-21T12:19:37Z</time>
      </trkpt>
      <trkpt lat="48.299" lon="7.31145">
        <ele>725.39</ele>
        <time>2016-08-21T12:19:50Z</time>
      </trkpt>
      <trkpt lat="48.29904" lon="7.31134">
        <ele>725.12</ele>
        <time>2016-08-21T12:20:07Z</time>
      </trkpt>
      <trkpt lat="48.29908" lon="7.31127">
        <ele>725.75</ele>
        <time>2016-08-21T12:20:20Z</time>
      </trkpt>
      <trkpt lat="48.29915" lon="7.31117">
        <ele>727.16</ele>
        <time>2016-08-21T12:20:34Z</time>
      </trkpt>
      <trkpt lat="48.29921" lon="7.31109">
        <ele>727.57</ele>
        <time>2016-08-21T12:20:45Z</time>
      </trkpt>
      <trkpt lat="48.29923" lon="7.31106">
        <ele>727.15</ele>
        <time>2016-08-21T12:20:50Z</time>
      </trkpt>
      <trkpt lat="48.29928" lon="7.31081">
        <ele>728.5</ele>
        <time>2016-08-21T12:21:01Z</time>
      </trkpt>
      <trkpt lat="48.29928" lon="7.31076">
        <ele>729.48</ele>
        <time>2016-08-21T12:21:03Z</time>
      </trkpt>
      <trkpt lat="48.29928" lon="7.31067">
        <ele>730.78</ele>
        <time>2016-08-21T12:21:06Z</time>
      </trkpt>
      <trkpt lat="48.29932" lon="7.31052">
        <ele>730.11</ele>
        <time>2016-08-21T12:21:14Z</time>
      </trkpt>
      <trkpt lat="48.29934" lon="7.31041">
        <ele>730.31</ele>
        <time>2016-08-21T12:21:19Z</time>
      </trkpt>
      <trkpt lat="48.29934" lon="7.31039">
        <ele>731.11</ele>
        <time>2016-08-21T12:21:21Z</time>
      </trkpt>
      <trkpt lat="48.29936" lon="7.3102">
        <ele>732.77</ele>
        <time>2016-08-21T12:21:42Z</time>
      </trkpt>
      <trkpt lat="48.29944" lon="7.31012">
        <ele>735.33</ele>
        <time>2016-08-21T12:21:59Z</time>
      </trkpt>
      <trkpt lat="48.29946" lon="7.31011">
        <ele>733.7</ele>
        <time>2016-08-21T12:22:01Z</time>
      </trkpt>
      <trkpt lat="48.29966" lon="7.30987">
        <ele>736.21</ele>
        <time>2016-08-21T12:22:26Z</time>
      </trkpt>
      <trkpt lat="48.29982" lon="7.30951">
        <ele>738.08</ele>
        <time>2016-08-21T12:22:50Z</time>
      </trkpt>
      <trkpt lat="48.29997" lon="7.30916">
        <ele>737.45</ele>
        <time>2016-08-21T12:23:16Z</time>
      </trkpt>
      <trkpt lat="48.30003" lon="7.3089">
        <ele>737.68</ele>
        <time>2016-08-21T12:23:28Z</time>
      </trkpt>
      <trkpt lat="48.30007" lon="7.3088">
        <ele>736.94</ele>
        <time>2016-08-21T12:23:51Z</time>
      </trkpt>
      <trkpt lat="48.30014" lon="7.30883">
        <ele>737.46</ele>
        <time>2016-08-21T12:24:18Z</time>
      </trkpt>
      <trkpt lat="48.30018" lon="7.30881">
        <ele>737.56</ele>
        <time>2016-08-21T12:24:44Z</time>
      </trkpt>
      <trkpt lat="48.30016" lon="7.30883">
        <ele>738.11</ele>
        <time>2016-08-21T12:25:12Z</time>
      </trkpt>
      <trkpt lat="48.30014" lon="7.30883">
        <ele>737.73</ele>
        <time>2016-08-21T12:25:40Z</time>
      </trkpt>
      <trkpt lat="48.30011" lon="7.30877">
        <ele>738.15</ele>
        <time>2016-08-21T12:26:09Z</time>
      </trkpt>
      <trkpt lat="48.30016" lon="7.30882">
        <ele>737.48</ele>
        <time>2016-08-21T12:26:35Z</time>
      </trkpt>
      <trkpt lat="48.3001" lon="7.30876">
        <ele>738.43</ele>
        <time>2016-08-21T12:27:02Z</time>
      </trkpt>
      <trkpt lat="48.30011" lon="7.30878">
        <ele>738.53</ele>
        <time>2016-08-21T12:27:26Z</time>
      </trkpt>
      <trkpt lat="48.30011" lon="7.30881">
        <ele>738.73</ele>
        <time>2016-08-21T12:27:52Z</time>
      </trkpt>
      <trkpt lat="48.30009" lon="7.30884">
        <ele>739.45</ele>
        <time>2016-08-21T12:28:22Z</time>
      </trkpt>
      <trkpt lat="48.30014" lon="7.30885">
        <ele>738.86</ele>
        <time>2016-08-21T12:28:46Z</time>
      </trkpt>
      <trkpt lat="48.30014" lon="7.30882">
        <ele>738.94</ele>
        <time>2016-08-21T12:29:11Z</time>
      </trkpt>
      <trkpt lat="48.30011" lon="7.30882">
        <ele>735.84</ele>
        <time>2016-08-21T12:29:29Z</time>
      </trkpt>
      <trkpt lat="48.30011" lon="7.30882">
        <ele>725.18</ele>
        <time>2016-08-21T12:29:30Z</time>
      </trkpt>
      <trkpt lat="48.30011" lon="7.30882">
        <ele>752.64</ele>
        <time>2016-08-21T12:29:31Z</time>
      </trkpt>
      <trkpt lat="48.30011" lon="7.30881">
        <ele>742.83</ele>
        <time>2016-08-21T12:29:32Z</time>
      </trkpt>
      <trkpt lat="48.30011" lon="7.30881">
        <ele>739.58</ele>
        <time>2016-08-21T12:29:33Z</time>
      </trkpt>
      <trkpt lat="48.3001" lon="7.30881">
        <ele>739.31</ele>
        <time>2016-08-21T12:29:34Z</time>
      </trkpt>
      <trkpt lat="48.30008" lon="7.30877">
        <ele>740.27</ele>
        <time>2016-08-21T12:29:49Z</time>
      </trkpt>
      <trkpt lat="48.30012" lon="7.30878">
        <ele>740.05</ele>
        <time>2016-08-21T12:30:13Z</time>
      </trkpt>
      <trkpt lat="48.30013" lon="7.30882">
        <ele>740.03</ele>
        <time>2016-08-21T12:30:36Z</time>
      </trkpt>
      <trkpt lat="48.30013" lon="7.30882">
        <ele>740.78</ele>
        <time>2016-08-21T12:31:02Z</time>
      </trkpt>
      <trkpt lat="48.30008" lon="7.30878">
        <ele>740.99</ele>
        <time>2016-08-21T12:31:28Z</time>
      </trkpt>
      <trkpt lat="48.30008" lon="7.30875">
        <ele>741.05</ele>
        <time>2016-08-21T12:31:55Z</time>
      </trkpt>
      <trkpt lat="48.30012" lon="7.30876">
        <ele>741.51</ele>
        <time>2016-08-21T12:32:21Z</time>
      </trkpt>
      <trkpt lat="48.30012" lon="7.30877">
        <ele>741.88</ele>
        <time>2016-08-21T12:32:31Z</time>
      </trkpt>
      <trkpt lat="48.30015" lon="7.30878">
        <ele>742.27</ele>
        <time>2016-08-21T12:32:56Z</time>
      </trkpt>
      <trkpt lat="48.30017" lon="7.30864">
        <ele>741.73</ele>
        <time>2016-08-21T12:33:18Z</time>
      </trkpt>
      <trkpt lat="48.3002" lon="7.30843">
        <ele>741.01</ele>
        <time>2016-08-21T12:33:42Z</time>
      </trkpt>
      <trkpt lat="48.30025" lon="7.30817">
        <ele>739.9</ele>
        <time>2016-08-21T12:34:06Z</time>
      </trkpt>
      <trkpt lat="48.30033" lon="7.30797">
        <ele>738.17</ele>
        <time>2016-08-21T12:34:30Z</time>
      </trkpt>
      <trkpt lat="48.30037" lon="7.30794">
        <ele>737.23</ele>
        <time>2016-08-21T12:34:39Z</time>
      </trkpt>
      <trkpt lat="48.30048" lon="7.30776">
        <ele>736.5</ele>
        <time>2016-08-21T12:35:02Z</time>
      </trkpt>
      <trkpt lat="48.30051" lon="7.30774">
        <ele>736.32</ele>
        <time>2016-08-21T12:35:07Z</time>
      </trkpt>
      <trkpt lat="48.30061" lon="7.30766">
        <ele>736.3</ele>
        <time>2016-08-21T12:35:27Z</time>
      </trkpt>
      <trkpt lat="48.30064" lon="7.30765">
        <ele>735.43</ele>
        <time>2016-08-21T12:35:30Z</time>
      </trkpt>
      <trkpt lat="48.30084" lon="7.30761">
        <ele>734.98</ele>
        <time>2016-08-21T12:35:50Z</time>
      </trkpt>
      <trkpt lat="48.30084" lon="7.30762">
        <ele>735.22</ele>
        <time>2016-08-21T12:35:51Z</time>
      </trkpt>
      <trkpt lat="48.30099" lon="7.30762">
        <ele>734.7</ele>
        <time>2016-08-21T12:36:07Z</time>
      </trkpt>
      <trkpt lat="48.30104" lon="7.30761">
        <ele>734.83</ele>
        <time>2016-08-21T12:36:11Z</time>
      </trkpt>
      <trkpt lat="48.30116" lon="7.30751">
        <ele>733.19</ele>
        <time>2016-08-21T12:36:29Z</time>
      </trkpt>
      <trkpt lat="48.30123" lon="7.30749">
        <ele>733.86</ele>
        <time>2016-08-21T12:36:39Z</time>
      </trkpt>
      <trkpt lat="48.30135" lon="7.30747">
        <ele>732.91</ele>
        <time>2016-08-21T12:36:57Z</time>
      </trkpt>
      <trkpt lat="48.30143" lon="7.30746">
        <ele>735.38</ele>
        <time>2016-08-21T12:37:03Z</time>
      </trkpt>
      <trkpt lat="48.30145" lon="7.30746">
        <ele>733.36</ele>
        <time>2016-08-21T12:37:05Z</time>
      </trkpt>
      <trkpt lat="48.30158" lon="7.30746">
        <ele>736.27</ele>
        <time>2016-08-21T12:37:15Z</time>
      </trkpt>
      <trkpt lat="48.3017" lon="7.30754">
        <ele>736.74</ele>
        <time>2016-08-21T12:37:22Z</time>
      </trkpt>
      <trkpt lat="48.3018" lon="7.30755">
        <ele>737.05</ele>
        <time>2016-08-21T12:37:26Z</time>
      </trkpt>
      <trkpt lat="48.30192" lon="7.30761">
        <ele>736.11</ele>
        <time>2016-08-21T12:37:43Z</time>
      </trkpt>
      <trkpt lat="48.30193" lon="7.30761">
        <ele>736.94</ele>
        <time>2016-08-21T12:37:45Z</time>
      </trkpt>
      <trkpt lat="48.30208" lon="7.3076">
        <ele>738.43</ele>
        <time>2016-08-21T12:37:54Z</time>
      </trkpt>
      <trkpt lat="48.30232" lon="7.30764">
        <ele>738.32</ele>
        <time>2016-08-21T12:38:17Z</time>
      </trkpt>
      <trkpt lat="48.30257" lon="7.30751">
        <ele>736.56</ele>
        <time>2016-08-21T12:38:43Z</time>
      </trkpt>
      <trkpt lat="48.3027" lon="7.30743">
        <ele>735.12</ele>
        <time>2016-08-21T12:39:04Z</time>
      </trkpt>
      <trkpt lat="48.30287" lon="7.30731">
        <ele>734.69</ele>
        <time>2016-08-21T12:39:24Z</time>
      </trkpt>
      <trkpt lat="48.30309" lon="7.30719">
        <ele>732.89</ele>
        <time>2016-08-21T12:39:44Z</time>
      </trkpt>
      <trkpt lat="48.30319" lon="7.30712">
        <ele>733.01</ele>
        <time>2016-08-21T12:39:59Z</time>
      </trkpt>
      <trkpt lat="48.30321" lon="7.3071">
        <ele>731.68</ele>
        <time>2016-08-21T12:40:02Z</time>
      </trkpt>
      <trkpt lat="48.30338" lon="7.30705">
        <ele>730.94</ele>
        <time>2016-08-21T12:40:22Z</time>
      </trkpt>
      <trkpt lat="48.30358" lon="7.30683">
        <ele>731.09</ele>
        <time>2016-08-21T12:40:37Z</time>
      </trkpt>
      <trkpt lat="48.30362" lon="7.30676">
        <ele>732.04</ele>
        <time>2016-08-21T12:40:43Z</time>
      </trkpt>
      <trkpt lat="48.30364" lon="7.30675">
        <ele>732.76</ele>
        <time>2016-08-21T12:40:46Z</time>
      </trkpt>
      <trkpt lat="48.30379" lon="7.30668">
        <ele>733.17</ele>
        <time>2016-08-21T12:40:59Z</time>
      </trkpt>
      <trkpt lat="48.304" lon="7.30663">
        <ele>732.93</ele>
        <time>2016-08-21T12:41:14Z</time>
      </trkpt>
      <trkpt lat="48.30403" lon="7.30663">
        <ele>732.62</ele>
        <time>2016-08-21T12:41:19Z</time>
      </trkpt>
      <trkpt lat="48.30411" lon="7.30662">
        <ele>733.17</ele>
        <time>2016-08-21T12:41:30Z</time>
      </trkpt>
      <trkpt lat="48.30422" lon="7.30663">
        <ele>734.54</ele>
        <time>2016-08-21T12:41:46Z</time>
      </trkpt>
      <trkpt lat="48.30432" lon="7.30659">
        <ele>734.05</ele>
        <time>2016-08-21T12:42:03Z</time>
      </trkpt>
      <trkpt lat="48.30451" lon="7.30637">
        <ele>733.66</ele>
        <time>2016-08-21T12:42:18Z</time>
      </trkpt>
      <trkpt lat="48.30468" lon="7.30624">
        <ele>733.82</ele>
        <time>2016-08-21T12:42:31Z</time>
      </trkpt>
      <trkpt lat="48.3049" lon="7.30604">
        <ele>734</ele>
        <time>2016-08-21T12:42:50Z</time>
      </trkpt>
      <trkpt lat="48.30513" lon="7.30587">
        <ele>733.59</ele>
        <time>2016-08-21T12:43:12Z</time>
      </trkpt>
      <trkpt lat="48.30522" lon="7.30573">
        <ele>733.91</ele>
        <time>2016-08-21T12:43:26Z</time>
      </trkpt>
      <trkpt lat="48.30528" lon="7.30566">
        <ele>732.33</ele>
        <time>2016-08-21T12:43:33Z</time>
      </trkpt>
      <trkpt lat="48.30529" lon="7.30564">
        <ele>733.82</ele>
        <time>2016-08-21T12:43:35Z</time>
      </trkpt>
      <trkpt lat="48.30536" lon="7.3056">
        <ele>733.07</ele>
        <time>2016-08-21T12:43:45Z</time>
      </trkpt>
      <trkpt lat="48.30549" lon="7.30549">
        <ele>734.67</ele>
        <time>2016-08-21T12:44:00Z</time>
      </trkpt>
      <trkpt lat="48.30565" lon="7.3054">
        <ele>733.79</ele>
        <time>2016-08-21T12:44:12Z</time>
      </trkpt>
      <trkpt lat="48.30575" lon="7.30535">
        <ele>733.69</ele>
        <time>2016-08-21T12:44:26Z</time>
      </trkpt>
      <trkpt lat="48.30584" lon="7.30523">
        <ele>734.89</ele>
        <time>2016-08-21T12:44:44Z</time>
      </trkpt>
      <trkpt lat="48.30609" lon="7.3051">
        <ele>734.31</ele>
        <time>2016-08-21T12:45:06Z</time>
      </trkpt>
      <trkpt lat="48.3063" lon="7.30505">
        <ele>733.93</ele>
        <time>2016-08-21T12:45:25Z</time>
      </trkpt>
      <trkpt lat="48.30642" lon="7.30498">
        <ele>733.69</ele>
        <time>2016-08-21T12:45:39Z</time>
      </trkpt>
      <trkpt lat="48.30658" lon="7.30491">
        <ele>732.42</ele>
        <time>2016-08-21T12:45:53Z</time>
      </trkpt>
      <trkpt lat="48.30665" lon="7.30483">
        <ele>733.58</ele>
        <time>2016-08-21T12:46:10Z</time>
      </trkpt>
      <trkpt lat="48.30665" lon="7.30482">
        <ele>733.05</ele>
        <time>2016-08-21T12:46:11Z</time>
      </trkpt>
      <trkpt lat="48.30682" lon="7.30482">
        <ele>732.95</ele>
        <time>2016-08-21T12:46:32Z</time>
      </trkpt>
      <trkpt lat="48.30698" lon="7.30481">
        <ele>733.09</ele>
        <time>2016-08-21T12:46:51Z</time>
      </trkpt>
      <trkpt lat="48.30712" lon="7.30476">
        <ele>731.16</ele>
        <time>2016-08-21T12:47:11Z</time>
      </trkpt>
      <trkpt lat="48.3072" lon="7.30468">
        <ele>731.13</ele>
        <time>2016-08-21T12:47:23Z</time>
      </trkpt>
      <trkpt lat="48.30727" lon="7.30464">
        <ele>731.34</ele>
        <time>2016-08-21T12:47:33Z</time>
      </trkpt>
      <trkpt lat="48.30739" lon="7.30457">
        <ele>730.67</ele>
        <time>2016-08-21T12:47:47Z</time>
      </trkpt>
      <trkpt lat="48.30757" lon="7.30453">
        <ele>730.97</ele>
        <time>2016-08-21T12:48:02Z</time>
      </trkpt>
      <trkpt lat="48.30771" lon="7.30439">
        <ele>731.83</ele>
        <time>2016-08-21T12:48:19Z</time>
      </trkpt>
      <trkpt lat="48.30779" lon="7.30434">
        <ele>732.14</ele>
        <time>2016-08-21T12:48:27Z</time>
      </trkpt>
      <trkpt lat="48.3078" lon="7.30432">
        <ele>731.54</ele>
        <time>2016-08-21T12:48:29Z</time>
      </trkpt>
      <trkpt lat="48.30793" lon="7.30411">
        <ele>731.57</ele>
        <time>2016-08-21T12:48:49Z</time>
      </trkpt>
      <trkpt lat="48.30809" lon="7.30402">
        <ele>731.08</ele>
        <time>2016-08-21T12:49:07Z</time>
      </trkpt>
      <trkpt lat="48.30814" lon="7.30399">
        <ele>730.39</ele>
        <time>2016-08-21T12:49:11Z</time>
      </trkpt>
      <trkpt lat="48.30828" lon="7.30387">
        <ele>729.5</ele>
        <time>2016-08-21T12:49:25Z</time>
      </trkpt>
      <trkpt lat="48.30836" lon="7.30385">
        <ele>728.75</ele>
        <time>2016-08-21T12:49:31Z</time>
      </trkpt>
      <trkpt lat="48.30844" lon="7.30382">
        <ele>729.45</ele>
        <time>2016-08-21T12:49:39Z</time>
      </trkpt>
      <trkpt lat="48.3086" lon="7.30372">
        <ele>729.13</ele>
        <time>2016-08-21T12:49:54Z</time>
      </trkpt>
      <trkpt lat="48.3088" lon="7.30356">
        <ele>727.68</ele>
        <time>2016-08-21T12:50:14Z</time>
      </trkpt>
      <trkpt lat="48.30893" lon="7.30347">
        <ele>726.7</ele>
        <time>2016-08-21T12:50:28Z</time>
      </trkpt>
      <trkpt lat="48.30908" lon="7.30339">
        <ele>725.2</ele>
        <time>2016-08-21T12:50:45Z</time>
      </trkpt>
      <trkpt lat="48.30921" lon="7.30326">
        <ele>723.31</ele>
        <time>2016-08-21T12:51:03Z</time>
      </trkpt>
      <trkpt lat="48.30922" lon="7.30326">
        <ele>722.83</ele>
        <time>2016-08-21T12:51:04Z</time>
      </trkpt>
      <trkpt lat="48.30936" lon="7.30321">
        <ele>720.95</ele>
        <time>2016-08-21T12:51:23Z</time>
      </trkpt>
      <trkpt lat="48.30955" lon="7.30303">
        <ele>719.8</ele>
        <time>2016-08-21T12:51:42Z</time>
      </trkpt>
      <trkpt lat="48.30973" lon="7.30283">
        <ele>718.18</ele>
        <time>2016-08-21T12:52:02Z</time>
      </trkpt>
      <trkpt lat="48.30988" lon="7.30262">
        <ele>714.9</ele>
        <time>2016-08-21T12:52:21Z</time>
      </trkpt>
      <trkpt lat="48.30994" lon="7.30251">
        <ele>714.26</ele>
        <time>2016-08-21T12:52:34Z</time>
      </trkpt>
      <trkpt lat="48.30998" lon="7.30243">
        <ele>714.45</ele>
        <time>2016-08-21T12:52:40Z</time>
      </trkpt>
      <trkpt lat="48.31006" lon="7.30229">
        <ele>713.27</ele>
        <time>2016-08-21T12:52:54Z</time>
      </trkpt>
      <trkpt lat="48.31019" lon="7.30212">
        <ele>711.61</ele>
        <time>2016-08-21T12:53:10Z</time>
      </trkpt>
      <trkpt lat="48.31027" lon="7.30198">
        <ele>709.77</ele>
        <time>2016-08-21T12:53:27Z</time>
      </trkpt>
      <trkpt lat="48.3103" lon="7.30192">
        <ele>709.54</ele>
        <time>2016-08-21T12:53:31Z</time>
      </trkpt>
      <trkpt lat="48.3104" lon="7.30174">
        <ele>708.06</ele>
        <time>2016-08-21T12:53:45Z</time>
      </trkpt>
      <trkpt lat="48.31047" lon="7.30164">
        <ele>706.93</ele>
        <time>2016-08-21T12:53:54Z</time>
      </trkpt>
      <trkpt lat="48.31051" lon="7.3016">
        <ele>706.47</ele>
        <time>2016-08-21T12:54:08Z</time>
      </trkpt>
      <trkpt lat="48.31058" lon="7.3016">
        <ele>707.41</ele>
        <time>2016-08-21T12:54:30Z</time>
      </trkpt>
      <trkpt lat="48.31065" lon="7.30156">
        <ele>707.08</ele>
        <time>2016-08-21T12:55:00Z</time>
      </trkpt>
      <trkpt lat="48.31067" lon="7.30157">
        <ele>706.97</ele>
        <time>2016-08-21T12:55:26Z</time>
      </trkpt>
      <trkpt lat="48.31067" lon="7.30156">
        <ele>707.35</ele>
        <time>2016-08-21T12:55:33Z</time>
      </trkpt>
      <trkpt lat="48.31065" lon="7.30152">
        <ele>704.55</ele>
        <time>2016-08-21T12:55:40Z</time>
      </trkpt>
      <trkpt lat="48.31064" lon="7.30152">
        <ele>707.82</ele>
        <time>2016-08-21T12:55:47Z</time>
      </trkpt>
      <trkpt lat="48.31063" lon="7.30149">
        <ele>703.28</ele>
        <time>2016-08-21T12:56:08Z</time>
      </trkpt>
      <trkpt lat="48.31063" lon="7.30148">
        <ele>706.48</ele>
        <time>2016-08-21T12:56:09Z</time>
      </trkpt>
      <trkpt lat="48.31063" lon="7.30148">
        <ele>707.36</ele>
        <time>2016-08-21T12:56:11Z</time>
      </trkpt>
      <trkpt lat="48.31063" lon="7.30148">
        <ele>702.47</ele>
        <time>2016-08-21T12:56:16Z</time>
      </trkpt>
      <trkpt lat="48.31063" lon="7.30147">
        <ele>706.95</ele>
        <time>2016-08-21T12:56:17Z</time>
      </trkpt>
      <trkpt lat="48.31063" lon="7.30147">
        <ele>713.47</ele>
        <time>2016-08-21T12:56:18Z</time>
      </trkpt>
      <trkpt lat="48.31063" lon="7.30147">
        <ele>706.86</ele>
        <time>2016-08-21T12:56:19Z</time>
      </trkpt>
      <trkpt lat="48.31064" lon="7.30146">
        <ele>707.88</ele>
        <time>2016-08-21T12:56:36Z</time>
      </trkpt>
      <trkpt lat="48.31067" lon="7.30153">
        <ele>707.57</ele>
        <time>2016-08-21T12:57:02Z</time>
      </trkpt>
      <trkpt lat="48.3107" lon="7.30154">
        <ele>707.11</ele>
        <time>2016-08-21T12:57:29Z</time>
      </trkpt>
      <trkpt lat="48.31077" lon="7.30154">
        <ele>703.96</ele>
        <time>2016-08-21T12:57:49Z</time>
      </trkpt>
      <trkpt lat="48.31087" lon="7.30164">
        <ele>703.41</ele>
        <time>2016-08-21T12:58:05Z</time>
      </trkpt>
      <trkpt lat="48.31095" lon="7.30173">
        <ele>701</ele>
        <time>2016-08-21T12:58:16Z</time>
      </trkpt>
      <trkpt lat="48.31102" lon="7.30197">
        <ele>701.11</ele>
        <time>2016-08-21T12:58:33Z</time>
      </trkpt>
      <trkpt lat="48.31102" lon="7.30198">
        <ele>701.02</ele>
        <time>2016-08-21T12:58:34Z</time>
      </trkpt>
      <trkpt lat="48.31109" lon="7.30215">
        <ele>699.43</ele>
        <time>2016-08-21T12:58:46Z</time>
      </trkpt>
      <trkpt lat="48.31114" lon="7.30231">
        <ele>698.68</ele>
        <time>2016-08-21T12:58:58Z</time>
      </trkpt>
      <trkpt lat="48.31114" lon="7.30235">
        <ele>699.14</ele>
        <time>2016-08-21T12:59:01Z</time>
      </trkpt>
      <trkpt lat="48.31114" lon="7.30248">
        <ele>697.82</ele>
        <time>2016-08-21T12:59:10Z</time>
      </trkpt>
      <trkpt lat="48.31121" lon="7.30267">
        <ele>695.77</ele>
        <time>2016-08-21T12:59:29Z</time>
      </trkpt>
      <trkpt lat="48.31128" lon="7.30275">
        <ele>695.35</ele>
        <time>2016-08-21T12:59:40Z</time>
      </trkpt>
      <trkpt lat="48.31142" lon="7.30282">
        <ele>693.03</ele>
        <time>2016-08-21T12:59:57Z</time>
      </trkpt>
      <trkpt lat="48.31169" lon="7.30283">
        <ele>691.11</ele>
        <time>2016-08-21T13:00:20Z</time>
      </trkpt>
      <trkpt lat="48.31192" lon="7.3028">
        <ele>689.27</ele>
        <time>2016-08-21T13:00:42Z</time>
      </trkpt>
      <trkpt lat="48.31202" lon="7.30272">
        <ele>687.43</ele>
        <time>2016-08-21T13:00:57Z</time>
      </trkpt>
      <trkpt lat="48.31226" lon="7.30269">
        <ele>685.99</ele>
        <time>2016-08-21T13:01:18Z</time>
      </trkpt>
      <trkpt lat="48.31243" lon="7.30263">
        <ele>683.97</ele>
        <time>2016-08-21T13:01:40Z</time>
      </trkpt>
      <trkpt lat="48.31266" lon="7.30254">
        <ele>681.59</ele>
        <time>2016-08-21T13:02:00Z</time>
      </trkpt>
      <trkpt lat="48.31275" lon="7.30251">
        <ele>681.71</ele>
        <time>2016-08-21T13:02:17Z</time>
      </trkpt>
      <trkpt lat="48.31286" lon="7.30253">
        <ele>678.63</ele>
        <time>2016-08-21T13:02:38Z</time>
      </trkpt>
      <trkpt lat="48.31303" lon="7.30259">
        <ele>677.37</ele>
        <time>2016-08-21T13:02:56Z</time>
      </trkpt>
      <trkpt lat="48.31304" lon="7.3026">
        <ele>678.02</ele>
        <time>2016-08-21T13:02:58Z</time>
      </trkpt>
      <trkpt lat="48.31318" lon="7.30265">
        <ele>677.48</ele>
        <time>2016-08-21T13:03:08Z</time>
      </trkpt>
      <trkpt lat="48.3132" lon="7.30267">
        <ele>677.63</ele>
        <time>2016-08-21T13:03:09Z</time>
      </trkpt>
      <trkpt lat="48.31337" lon="7.30279">
        <ele>676.68</ele>
        <time>2016-08-21T13:03:21Z</time>
      </trkpt>
      <trkpt lat="48.31352" lon="7.30293">
        <ele>677.8</ele>
        <time>2016-08-21T13:03:34Z</time>
      </trkpt>
      <trkpt lat="48.31363" lon="7.30302">
        <ele>677.08</ele>
        <time>2016-08-21T13:03:45Z</time>
      </trkpt>
      <trkpt lat="48.31377" lon="7.30306">
        <ele>676.4</ele>
        <time>2016-08-21T13:03:57Z</time>
      </trkpt>
      <trkpt lat="48.31392" lon="7.30309">
        <ele>673.45</ele>
        <time>2016-08-21T13:04:13Z</time>
      </trkpt>
      <trkpt lat="48.31394" lon="7.30309">
        <ele>673.08</ele>
        <time>2016-08-21T13:04:16Z</time>
      </trkpt>
      <trkpt lat="48.31403" lon="7.3031">
        <ele>673.09</ele>
        <time>2016-08-21T13:04:24Z</time>
      </trkpt>
      <trkpt lat="48.31405" lon="7.30311">
        <ele>671.76</ele>
        <time>2016-08-21T13:04:26Z</time>
      </trkpt>
      <trkpt lat="48.31408" lon="7.30313">
        <ele>671.96</ele>
        <time>2016-08-21T13:04:34Z</time>
      </trkpt>
      <trkpt lat="48.31417" lon="7.30313">
        <ele>668.1</ele>
        <time>2016-08-21T13:04:52Z</time>
      </trkpt>
      <trkpt lat="48.31429" lon="7.30314">
        <ele>665.3</ele>
        <time>2016-08-21T13:05:12Z</time>
      </trkpt>
      <trkpt lat="48.3145" lon="7.30319">
        <ele>662.07</ele>
        <time>2016-08-21T13:05:34Z</time>
      </trkpt>
      <trkpt lat="48.31459" lon="7.3032">
        <ele>661.13</ele>
        <time>2016-08-21T13:05:45Z</time>
      </trkpt>
      <trkpt lat="48.31483" lon="7.30328">
        <ele>657.27</ele>
        <time>2016-08-21T13:06:04Z</time>
      </trkpt>
      <trkpt lat="48.31507" lon="7.30336">
        <ele>655.96</ele>
        <time>2016-08-21T13:06:20Z</time>
      </trkpt>
      <trkpt lat="48.31509" lon="7.30337">
        <ele>655.45</ele>
        <time>2016-08-21T13:06:24Z</time>
      </trkpt>
      <trkpt lat="48.31526" lon="7.3034">
        <ele>652.92</ele>
        <time>2016-08-21T13:06:42Z</time>
      </trkpt>
      <trkpt lat="48.31546" lon="7.30343">
        <ele>652.35</ele>
        <time>2016-08-21T13:06:50Z</time>
      </trkpt>
      <trkpt lat="48.31558" lon="7.30348">
        <ele>651.77</ele>
        <time>2016-08-21T13:07:03Z</time>
      </trkpt>
      <trkpt lat="48.31565" lon="7.3035">
        <ele>651.64</ele>
        <time>2016-08-21T13:07:08Z</time>
      </trkpt>
      <trkpt lat="48.31577" lon="7.30357">
        <ele>651.92</ele>
        <time>2016-08-21T13:07:22Z</time>
      </trkpt>
      <trkpt lat="48.31584" lon="7.30356">
        <ele>650.97</ele>
        <time>2016-08-21T13:07:35Z</time>
      </trkpt>
      <trkpt lat="48.31596" lon="7.30355">
        <ele>651.01</ele>
        <time>2016-08-21T13:07:42Z</time>
      </trkpt>
      <trkpt lat="48.31609" lon="7.30352">
        <ele>652.1</ele>
        <time>2016-08-21T13:08:01Z</time>
      </trkpt>
      <trkpt lat="48.31612" lon="7.30351">
        <ele>652.76</ele>
        <time>2016-08-21T13:08:26Z</time>
      </trkpt>
      <trkpt lat="48.31609" lon="7.30353">
        <ele>651.74</ele>
        <time>2016-08-21T13:08:49Z</time>
      </trkpt>
      <trkpt lat="48.31605" lon="7.30356">
        <ele>652.62</ele>
        <time>2016-08-21T13:09:14Z</time>
      </trkpt>
      <trkpt lat="48.31606" lon="7.30355">
        <ele>651.96</ele>
        <time>2016-08-21T13:09:40Z</time>
      </trkpt>
      <trkpt lat="48.31605" lon="7.30352">
        <ele>652.41</ele>
        <time>2016-08-21T13:10:08Z</time>
      </trkpt>
      <trkpt lat="48.31604" lon="7.30355">
        <ele>652.87</ele>
        <time>2016-08-21T13:10:33Z</time>
      </trkpt>
      <trkpt lat="48.31604" lon="7.30355">
        <ele>653.06</ele>
        <time>2016-08-21T13:10:37Z</time>
      </trkpt>
      <trkpt lat="48.31607" lon="7.30357">
        <ele>653.47</ele>
        <time>2016-08-21T13:11:02Z</time>
      </trkpt>
      <trkpt lat="48.31614" lon="7.30357">
        <ele>653.79</ele>
        <time>2016-08-21T13:11:16Z</time>
      </trkpt>
      <trkpt lat="48.31625" lon="7.30357">
        <ele>652.5</ele>
        <time>2016-08-21T13:11:34Z</time>
      </trkpt>
      <trkpt lat="48.31647" lon="7.30361">
        <ele>652.04</ele>
        <time>2016-08-21T13:11:55Z</time>
      </trkpt>
      <trkpt lat="48.31651" lon="7.30362">
        <ele>651.79</ele>
        <time>2016-08-21T13:12:01Z</time>
      </trkpt>
      <trkpt lat="48.31653" lon="7.30364">
        <ele>651.73</ele>
        <time>2016-08-21T13:12:03Z</time>
      </trkpt>
      <trkpt lat="48.31658" lon="7.30367">
        <ele>651.33</ele>
        <time>2016-08-21T13:12:08Z</time>
      </trkpt>
      <trkpt lat="48.31664" lon="7.30369">
        <ele>651.41</ele>
        <time>2016-08-21T13:12:15Z</time>
      </trkpt>
      <trkpt lat="48.3167" lon="7.30371">
        <ele>651.43</ele>
        <time>2016-08-21T13:12:23Z</time>
      </trkpt>
      <trkpt lat="48.31676" lon="7.30375">
        <ele>650.56</ele>
        <time>2016-08-21T13:12:31Z</time>
      </trkpt>
      <trkpt lat="48.31681" lon="7.30376">
        <ele>650.35</ele>
        <time>2016-08-21T13:12:35Z</time>
      </trkpt>
      <trkpt lat="48.31689" lon="7.30381">
        <ele>650.47</ele>
        <time>2016-08-21T13:12:45Z</time>
      </trkpt>
      <trkpt lat="48.31692" lon="7.30381">
        <ele>649.85</ele>
        <time>2016-08-21T13:12:48Z</time>
      </trkpt>
      <trkpt lat="48.317" lon="7.30384">
        <ele>649.66</ele>
        <time>2016-08-21T13:12:54Z</time>
      </trkpt>
      <trkpt lat="48.31705" lon="7.30387">
        <ele>649.58</ele>
        <time>2016-08-21T13:12:58Z</time>
      </trkpt>
      <trkpt lat="48.31716" lon="7.30392">
        <ele>650.05</ele>
        <time>2016-08-21T13:13:10Z</time>
      </trkpt>
      <trkpt lat="48.31724" lon="7.30391">
        <ele>650.07</ele>
        <time>2016-08-21T13:13:15Z</time>
      </trkpt>
      <trkpt lat="48.31729" lon="7.30393">
        <ele>650.47</ele>
        <time>2016-08-21T13:13:19Z</time>
      </trkpt>
      <trkpt lat="48.31735" lon="7.30395">
        <ele>649.31</ele>
        <time>2016-08-21T13:13:24Z</time>
      </trkpt>
      <trkpt lat="48.31749" lon="7.30393">
        <ele>647.77</ele>
        <time>2016-08-21T13:13:37Z</time>
      </trkpt>
      <trkpt lat="48.3176" lon="7.30392">
        <ele>647.58</ele>
        <time>2016-08-21T13:13:48Z</time>
      </trkpt>
      <trkpt lat="48.31761" lon="7.30392">
        <ele>647.13</ele>
        <time>2016-08-21T13:13:49Z</time>
      </trkpt>
      <trkpt lat="48.31771" lon="7.30395">
        <ele>647.22</ele>
        <time>2016-08-21T13:13:59Z</time>
      </trkpt>
      <trkpt lat="48.31773" lon="7.30394">
        <ele>646.83</ele>
        <time>2016-08-21T13:14:01Z</time>
      </trkpt>
      <trkpt lat="48.31784" lon="7.30391">
        <ele>646.38</ele>
        <time>2016-08-21T13:14:12Z</time>
      </trkpt>
      <trkpt lat="48.31798" lon="7.30392">
        <ele>646.04</ele>
        <time>2016-08-21T13:14:26Z</time>
      </trkpt>
      <trkpt lat="48.31808" lon="7.30397">
        <ele>644.5</ele>
        <time>2016-08-21T13:14:37Z</time>
      </trkpt>
      <trkpt lat="48.31822" lon="7.30393">
        <ele>643.23</ele>
        <time>2016-08-21T13:14:49Z</time>
      </trkpt>
      <trkpt lat="48.31828" lon="7.30393">
        <ele>642.95</ele>
        <time>2016-08-21T13:14:58Z</time>
      </trkpt>
      <trkpt lat="48.31831" lon="7.30389">
        <ele>642.77</ele>
        <time>2016-08-21T13:15:02Z</time>
      </trkpt>
      <trkpt lat="48.31836" lon="7.30389">
        <ele>641.74</ele>
        <time>2016-08-21T13:15:07Z</time>
      </trkpt>
      <trkpt lat="48.31839" lon="7.30389">
        <ele>641.74</ele>
        <time>2016-08-21T13:15:09Z</time>
      </trkpt>
      <trkpt lat="48.31848" lon="7.30388">
        <ele>640.38</ele>
        <time>2016-08-21T13:15:19Z</time>
      </trkpt>
      <trkpt lat="48.31859" lon="7.30385">
        <ele>639.96</ele>
        <time>2016-08-21T13:15:31Z</time>
      </trkpt>
      <trkpt lat="48.31864" lon="7.30383">
        <ele>639.71</ele>
        <time>2016-08-21T13:15:35Z</time>
      </trkpt>
      <trkpt lat="48.31872" lon="7.3038">
        <ele>639.22</ele>
        <time>2016-08-21T13:15:42Z</time>
      </trkpt>
      <trkpt lat="48.31874" lon="7.30379">
        <ele>638.61</ele>
        <time>2016-08-21T13:15:44Z</time>
      </trkpt>
      <trkpt lat="48.31876" lon="7.30378">
        <ele>639.04</ele>
        <time>2016-08-21T13:15:46Z</time>
      </trkpt>
      <trkpt lat="48.31887" lon="7.30369">
        <ele>638.06</ele>
        <time>2016-08-21T13:15:54Z</time>
      </trkpt>
      <trkpt lat="48.31889" lon="7.30365">
        <ele>637.85</ele>
        <time>2016-08-21T13:15:57Z</time>
      </trkpt>
      <trkpt lat="48.31898" lon="7.30357">
        <ele>637.19</ele>
        <time>2016-08-21T13:16:07Z</time>
      </trkpt>
      <trkpt lat="48.31905" lon="7.30342">
        <ele>637.27</ele>
        <time>2016-08-21T13:16:18Z</time>
      </trkpt>
      <trkpt lat="48.31911" lon="7.30326">
        <ele>636.45</ele>
        <time>2016-08-21T13:16:28Z</time>
      </trkpt>
      <trkpt lat="48.31918" lon="7.30313">
        <ele>635</ele>
        <time>2016-08-21T13:16:40Z</time>
      </trkpt>
      <trkpt lat="48.31925" lon="7.30297">
        <ele>634.72</ele>
        <time>2016-08-21T13:16:51Z</time>
      </trkpt>
      <trkpt lat="48.31927" lon="7.30295">
        <ele>635.05</ele>
        <time>2016-08-21T13:16:52Z</time>
      </trkpt>
      <trkpt lat="48.31935" lon="7.30277">
        <ele>632.98</ele>
        <time>2016-08-21T13:17:05Z</time>
      </trkpt>
      <trkpt lat="48.31936" lon="7.30268">
        <ele>632.32</ele>
        <time>2016-08-21T13:17:11Z</time>
      </trkpt>
      <trkpt lat="48.31937" lon="7.30263">
        <ele>632.13</ele>
        <time>2016-08-21T13:17:14Z</time>
      </trkpt>
      <trkpt lat="48.31941" lon="7.30251">
        <ele>631.95</ele>
        <time>2016-08-21T13:17:22Z</time>
      </trkpt>
      <trkpt lat="48.31942" lon="7.30247">
        <ele>632.01</ele>
        <time>2016-08-21T13:17:24Z</time>
      </trkpt>
      <trkpt lat="48.31944" lon="7.30242">
        <ele>630.65</ele>
        <time>2016-08-21T13:17:27Z</time>
      </trkpt>
      <trkpt lat="48.31948" lon="7.30229">
        <ele>630.57</ele>
        <time>2016-08-21T13:17:37Z</time>
      </trkpt>
      <trkpt lat="48.31959" lon="7.30202">
        <ele>628.2</ele>
        <time>2016-08-21T13:17:58Z</time>
      </trkpt>
      <trkpt lat="48.31959" lon="7.30177">
        <ele>625.65</ele>
        <time>2016-08-21T13:18:15Z</time>
      </trkpt>
      <trkpt lat="48.31961" lon="7.30148">
        <ele>623.56</ele>
        <time>2016-08-21T13:18:33Z</time>
      </trkpt>
      <trkpt lat="48.3196" lon="7.30115">
        <ele>620.49</ele>
        <time>2016-08-21T13:18:56Z</time>
      </trkpt>
      <trkpt lat="48.31962" lon="7.30095">
        <ele>617.47</ele>
        <time>2016-08-21T13:19:11Z</time>
      </trkpt>
      <trkpt lat="48.31961" lon="7.30084">
        <ele>615.83</ele>
        <time>2016-08-21T13:19:19Z</time>
      </trkpt>
      <trkpt lat="48.31954" lon="7.30061">
        <ele>614.92</ele>
        <time>2016-08-21T13:19:31Z</time>
      </trkpt>
      <trkpt lat="48.3195" lon="7.30033">
        <ele>613.15</ele>
        <time>2016-08-21T13:19:51Z</time>
      </trkpt>
      <trkpt lat="48.31941" lon="7.30007">
        <ele>611.39</ele>
        <time>2016-08-21T13:20:06Z</time>
      </trkpt>
      <trkpt lat="48.31926" lon="7.29972">
        <ele>609.21</ele>
        <time>2016-08-21T13:20:28Z</time>
      </trkpt>
      <trkpt lat="48.31911" lon="7.29943">
        <ele>605.91</ele>
        <time>2016-08-21T13:20:50Z</time>
      </trkpt>
      <trkpt lat="48.31901" lon="7.29923">
        <ele>602.84</ele>
        <time>2016-08-21T13:21:07Z</time>
      </trkpt>
      <trkpt lat="48.31882" lon="7.29904">
        <ele>600.88</ele>
        <time>2016-08-21T13:21:30Z</time>
      </trkpt>
      <trkpt lat="48.3188" lon="7.29901">
        <ele>599.53</ele>
        <time>2016-08-21T13:21:33Z</time>
      </trkpt>
      <trkpt lat="48.31861" lon="7.299">
        <ele>597.53</ele>
        <time>2016-08-21T13:21:49Z</time>
      </trkpt>
      <trkpt lat="48.31846" lon="7.29903">
        <ele>596.11</ele>
        <time>2016-08-21T13:22:03Z</time>
      </trkpt>
      <trkpt lat="48.31825" lon="7.29914">
        <ele>593.08</ele>
        <time>2016-08-21T13:22:23Z</time>
      </trkpt>
      <trkpt lat="48.31804" lon="7.29929">
        <ele>590.57</ele>
        <time>2016-08-21T13:22:47Z</time>
      </trkpt>
      <trkpt lat="48.31792" lon="7.29936">
        <ele>589.72</ele>
        <time>2016-08-21T13:23:02Z</time>
      </trkpt>
      <trkpt lat="48.31778" lon="7.29946">
        <ele>588.34</ele>
        <time>2016-08-21T13:23:16Z</time>
      </trkpt>
      <trkpt lat="48.31764" lon="7.29945">
        <ele>586.04</ele>
        <time>2016-08-21T13:23:30Z</time>
      </trkpt>
      <trkpt lat="48.31769" lon="7.29929">
        <ele>584.56</ele>
        <time>2016-08-21T13:23:51Z</time>
      </trkpt>
      <trkpt lat="48.31772" lon="7.29924">
        <ele>583.8</ele>
        <time>2016-08-21T13:23:56Z</time>
      </trkpt>
      <trkpt lat="48.31774" lon="7.29922">
        <ele>583.91</ele>
        <time>2016-08-21T13:23:59Z</time>
      </trkpt>
      <trkpt lat="48.31782" lon="7.2991">
        <ele>582.23</ele>
        <time>2016-08-21T13:24:13Z</time>
      </trkpt>
      <trkpt lat="48.31791" lon="7.29894">
        <ele>581.14</ele>
        <time>2016-08-21T13:24:30Z</time>
      </trkpt>
      <trkpt lat="48.31795" lon="7.29887">
        <ele>579.75</ele>
        <time>2016-08-21T13:24:37Z</time>
      </trkpt>
      <trkpt lat="48.31798" lon="7.29883">
        <ele>579.84</ele>
        <time>2016-08-21T13:24:41Z</time>
      </trkpt>
      <trkpt lat="48.31805" lon="7.29867">
        <ele>578.5</ele>
        <time>2016-08-21T13:24:54Z</time>
      </trkpt>
      <trkpt lat="48.31815" lon="7.29848">
        <ele>576.9</ele>
        <time>2016-08-21T13:25:14Z</time>
      </trkpt>
      <trkpt lat="48.31828" lon="7.2983">
        <ele>574.63</ele>
        <time>2016-08-21T13:25:31Z</time>
      </trkpt>
      <trkpt lat="48.3184" lon="7.29809">
        <ele>573.61</ele>
        <time>2016-08-21T13:25:48Z</time>
      </trkpt>
      <trkpt lat="48.31851" lon="7.29804">
        <ele>572.98</ele>
        <time>2016-08-21T13:26:01Z</time>
      </trkpt>
      <trkpt lat="48.31859" lon="7.29802">
        <ele>571.27</ele>
        <time>2016-08-21T13:26:11Z</time>
      </trkpt>
      <trkpt lat="48.31861" lon="7.29799">
        <ele>570.92</ele>
        <time>2016-08-21T13:26:16Z</time>
      </trkpt>
      <trkpt lat="48.31872" lon="7.29797">
        <ele>568.33</ele>
        <time>2016-08-21T13:26:28Z</time>
      </trkpt>
      <trkpt lat="48.31884" lon="7.29793">
        <ele>567.48</ele>
        <time>2016-08-21T13:26:40Z</time>
      </trkpt>
      <trkpt lat="48.31893" lon="7.29786">
        <ele>566.46</ele>
        <time>2016-08-21T13:26:53Z</time>
      </trkpt>
      <trkpt lat="48.31907" lon="7.29788">
        <ele>564.39</ele>
        <time>2016-08-21T13:27:05Z</time>
      </trkpt>
      <trkpt lat="48.31917" lon="7.29789">
        <ele>565.29</ele>
        <time>2016-08-21T13:27:16Z</time>
      </trkpt>
      <trkpt lat="48.31919" lon="7.2979">
        <ele>564.35</ele>
        <time>2016-08-21T13:27:19Z</time>
      </trkpt>
      <trkpt lat="48.31929" lon="7.29792">
        <ele>563.61</ele>
        <time>2016-08-21T13:27:28Z</time>
      </trkpt>
      <trkpt lat="48.31938" lon="7.29794">
        <ele>562.74</ele>
        <time>2016-08-21T13:27:36Z</time>
      </trkpt>
      <trkpt lat="48.31947" lon="7.29798">
        <ele>561.67</ele>
        <time>2016-08-21T13:27:47Z</time>
      </trkpt>
      <trkpt lat="48.31956" lon="7.29805">
        <ele>559.36</ele>
        <time>2016-08-21T13:28:01Z</time>
      </trkpt>
      <trkpt lat="48.3197" lon="7.29811">
        <ele>558.1</ele>
        <time>2016-08-21T13:28:16Z</time>
      </trkpt>
      <trkpt lat="48.31975" lon="7.29815">
        <ele>557.41</ele>
        <time>2016-08-21T13:28:26Z</time>
      </trkpt>
      <trkpt lat="48.31988" lon="7.29834">
        <ele>555.1</ele>
        <time>2016-08-21T13:28:49Z</time>
      </trkpt>
      <trkpt lat="48.31993" lon="7.29839">
        <ele>554.55</ele>
        <time>2016-08-21T13:28:59Z</time>
      </trkpt>
      <trkpt lat="48.31997" lon="7.29838">
        <ele>553.58</ele>
        <time>2016-08-21T13:29:05Z</time>
      </trkpt>
      <trkpt lat="48.32003" lon="7.29839">
        <ele>553.88</ele>
        <time>2016-08-21T13:29:10Z</time>
      </trkpt>
      <trkpt lat="48.32008" lon="7.29844">
        <ele>552.87</ele>
        <time>2016-08-21T13:29:41Z</time>
      </trkpt>
      <trkpt lat="48.32011" lon="7.29844">
        <ele>553.02</ele>
        <time>2016-08-21T13:30:05Z</time>
      </trkpt>
      <trkpt lat="48.32007" lon="7.29846">
        <ele>552.35</ele>
        <time>2016-08-21T13:30:31Z</time>
      </trkpt>
      <trkpt lat="48.32006" lon="7.29849">
        <ele>553.59</ele>
        <time>2016-08-21T13:30:51Z</time>
      </trkpt>
      <trkpt lat="48.32006" lon="7.29849">
        <ele>553.19</ele>
        <time>2016-08-21T13:30:56Z</time>
      </trkpt>
      <trkpt lat="48.32003" lon="7.29853">
        <ele>553.55</ele>
        <time>2016-08-21T13:31:21Z</time>
      </trkpt>
      <trkpt lat="48.32005" lon="7.29856">
        <ele>552.39</ele>
        <time>2016-08-21T13:31:39Z</time>
      </trkpt>
      <trkpt lat="48.32006" lon="7.29857">
        <ele>547.21</ele>
        <time>2016-08-21T13:31:41Z</time>
      </trkpt>
      <trkpt lat="48.32006" lon="7.29856">
        <ele>564.35</ele>
        <time>2016-08-21T13:31:42Z</time>
      </trkpt>
      <trkpt lat="48.32006" lon="7.29856">
        <ele>556.12</ele>
        <time>2016-08-21T13:31:43Z</time>
      </trkpt>
      <trkpt lat="48.32005" lon="7.29856">
        <ele>553.73</ele>
        <time>2016-08-21T13:31:45Z</time>
      </trkpt>
      <trkpt lat="48.32004" lon="7.29845">
        <ele>553.77</ele>
        <time>2016-08-21T13:32:08Z</time>
      </trkpt>
      <trkpt lat="48.32" lon="7.29818">
        <ele>552.23</ele>
        <time>2016-08-21T13:32:29Z</time>
      </trkpt>
      <trkpt lat="48.31996" lon="7.29793">
        <ele>550.62</ele>
        <time>2016-08-21T13:32:51Z</time>
      </trkpt>
      <trkpt lat="48.31994" lon="7.29785">
        <ele>551</ele>
        <time>2016-08-21T13:32:58Z</time>
      </trkpt>
      <trkpt lat="48.31982" lon="7.29771">
        <ele>550.85</ele>
        <time>2016-08-21T13:33:09Z</time>
      </trkpt>
      <trkpt lat="48.31977" lon="7.29765">
        <ele>550.55</ele>
        <time>2016-08-21T13:33:13Z</time>
      </trkpt>
      <trkpt lat="48.31959" lon="7.29743">
        <ele>549.62</ele>
        <time>2016-08-21T13:33:31Z</time>
      </trkpt>
      <trkpt lat="48.31947" lon="7.29731">
        <ele>548.4</ele>
        <time>2016-08-21T13:33:46Z</time>
      </trkpt>
      <trkpt lat="48.31943" lon="7.29726">
        <ele>548.79</ele>
        <time>2016-08-21T13:33:53Z</time>
      </trkpt>
      <trkpt lat="48.31928" lon="7.29715">
        <ele>548.6</ele>
        <time>2016-08-21T13:34:04Z</time>
      </trkpt>
      <trkpt lat="48.3192" lon="7.29711">
        <ele>548.53</ele>
        <time>2016-08-21T13:34:09Z</time>
      </trkpt>
      <trkpt lat="48.31913" lon="7.29707">
        <ele>548.09</ele>
        <time>2016-08-21T13:34:14Z</time>
      </trkpt>
      <trkpt lat="48.31898" lon="7.297">
        <ele>547.26</ele>
        <time>2016-08-21T13:34:24Z</time>
      </trkpt>
      <trkpt lat="48.31887" lon="7.29698">
        <ele>547.06</ele>
        <time>2016-08-21T13:34:34Z</time>
      </trkpt>
      <trkpt lat="48.31884" lon="7.29695">
        <ele>548.16</ele>
        <time>2016-08-21T13:34:36Z</time>
      </trkpt>
      <trkpt lat="48.31877" lon="7.29695">
        <ele>547.65</ele>
        <time>2016-08-21T13:34:40Z</time>
      </trkpt>
      <trkpt lat="48.31872" lon="7.29696">
        <ele>546.37</ele>
        <time>2016-08-21T13:34:44Z</time>
      </trkpt>
      <trkpt lat="48.31867" lon="7.29698">
        <ele>547.47</ele>
        <time>2016-08-21T13:34:48Z</time>
      </trkpt>
      <trkpt lat="48.31858" lon="7.29697">
        <ele>547.04</ele>
        <time>2016-08-21T13:34:54Z</time>
      </trkpt>
      <trkpt lat="48.31852" lon="7.29699">
        <ele>546.82</ele>
        <time>2016-08-21T13:34:58Z</time>
      </trkpt>
      <trkpt lat="48.31834" lon="7.29709">
        <ele>546.23</ele>
        <time>2016-08-21T13:35:15Z</time>
      </trkpt>
      <trkpt lat="48.31812" lon="7.2973">
        <ele>544.93</ele>
        <time>2016-08-21T13:35:35Z</time>
      </trkpt>
      <trkpt lat="48.31791" lon="7.29759">
        <ele>544.09</ele>
        <time>2016-08-21T13:35:57Z</time>
      </trkpt>
      <trkpt lat="48.31779" lon="7.2978">
        <ele>544</ele>
        <time>2016-08-21T13:36:10Z</time>
      </trkpt>
      <trkpt lat="48.31772" lon="7.29792">
        <ele>543.8</ele>
        <time>2016-08-21T13:36:17Z</time>
      </trkpt>
      <trkpt lat="48.31766" lon="7.29802">
        <ele>545.27</ele>
        <time>2016-08-21T13:36:24Z</time>
      </trkpt>
      <trkpt lat="48.31753" lon="7.2983">
        <ele>544.32</ele>
        <time>2016-08-21T13:36:40Z</time>
      </trkpt>
      <trkpt lat="48.31742" lon="7.29851">
        <ele>542.84</ele>
        <time>2016-08-21T13:36:56Z</time>
      </trkpt>
      <trkpt lat="48.31723" lon="7.29882">
        <ele>541.58</ele>
        <time>2016-08-21T13:37:20Z</time>
      </trkpt>
      <trkpt lat="48.31707" lon="7.29905">
        <ele>540.9</ele>
        <time>2016-08-21T13:37:41Z</time>
      </trkpt>
      <trkpt lat="48.31687" lon="7.29936">
        <ele>541.35</ele>
        <time>2016-08-21T13:38:00Z</time>
      </trkpt>
      <trkpt lat="48.31674" lon="7.29952">
        <ele>540.83</ele>
        <time>2016-08-21T13:38:11Z</time>
      </trkpt>
      <trkpt lat="48.31659" lon="7.2997">
        <ele>540.53</ele>
        <time>2016-08-21T13:38:25Z</time>
      </trkpt>
      <trkpt lat="48.31642" lon="7.29988">
        <ele>540.29</ele>
        <time>2016-08-21T13:38:38Z</time>
      </trkpt>
      <trkpt lat="48.31625" lon="7.29998">
        <ele>538.9</ele>
        <time>2016-08-21T13:38:52Z</time>
      </trkpt>
      <trkpt lat="48.31624" lon="7.29999">
        <ele>538.53</ele>
        <time>2016-08-21T13:38:53Z</time>
      </trkpt>
      <trkpt lat="48.31605" lon="7.30007">
        <ele>536.95</ele>
        <time>2016-08-21T13:39:09Z</time>
      </trkpt>
      <trkpt lat="48.31596" lon="7.3001">
        <ele>537.15</ele>
        <time>2016-08-21T13:39:17Z</time>
      </trkpt>
      <trkpt lat="48.31577" lon="7.3001">
        <ele>537.87</ele>
        <time>2016-08-21T13:39:32Z</time>
      </trkpt>
      <trkpt lat="48.31566" lon="7.30009">
        <ele>537.59</ele>
        <time>2016-08-21T13:39:42Z</time>
      </trkpt>
      <trkpt lat="48.3156" lon="7.30008">
        <ele>536.97</ele>
        <time>2016-08-21T13:39:46Z</time>
      </trkpt>
      <trkpt lat="48.31539" lon="7.30003">
        <ele>537.42</ele>
        <time>2016-08-21T13:40:03Z</time>
      </trkpt>
      <trkpt lat="48.31528" lon="7.29999">
        <ele>536.79</ele>
        <time>2016-08-21T13:40:11Z</time>
      </trkpt>
      <trkpt lat="48.31509" lon="7.29997">
        <ele>536.57</ele>
        <time>2016-08-21T13:40:26Z</time>
      </trkpt>
      <trkpt lat="48.3149" lon="7.29997">
        <ele>534.7</ele>
        <time>2016-08-21T13:40:43Z</time>
      </trkpt>
      <trkpt lat="48.31474" lon="7.29985">
        <ele>534.5</ele>
        <time>2016-08-21T13:41:03Z</time>
      </trkpt>
      <trkpt lat="48.31456" lon="7.29965">
        <ele>533.15</ele>
        <time>2016-08-21T13:41:21Z</time>
      </trkpt>
      <trkpt lat="48.31456" lon="7.29965">
        <ele>532.86</ele>
        <time>2016-08-21T13:41:22Z</time>
      </trkpt>
      <trkpt lat="48.31442" lon="7.29947">
        <ele>532.91</ele>
        <time>2016-08-21T13:41:31Z</time>
      </trkpt>
      <trkpt lat="48.31425" lon="7.29922">
        <ele>532.54</ele>
        <time>2016-08-21T13:41:39Z</time>
      </trkpt>
      <trkpt lat="48.31409" lon="7.29898">
        <ele>531.75</ele>
        <time>2016-08-21T13:41:49Z</time>
      </trkpt>
      <trkpt lat="48.31402" lon="7.29889">
        <ele>532.57</ele>
        <time>2016-08-21T13:41:52Z</time>
      </trkpt>
      <trkpt lat="48.31399" lon="7.29885">
        <ele>531.98</ele>
        <time>2016-08-21T13:41:53Z</time>
      </trkpt>
      <trkpt lat="48.31393" lon="7.29873">
        <ele>531.96</ele>
        <time>2016-08-21T13:41:57Z</time>
      </trkpt>
      <trkpt lat="48.31393" lon="7.2987">
        <ele>531.81</ele>
        <time>2016-08-21T13:41:58Z</time>
      </trkpt>
      <trkpt lat="48.31393" lon="7.29868">
        <ele>531.64</ele>
        <time>2016-08-21T13:41:59Z</time>
      </trkpt>
      <trkpt lat="48.31392" lon="7.29866">
        <ele>531.4</ele>
        <time>2016-08-21T13:42:00Z</time>
      </trkpt>
      <trkpt lat="48.31392" lon="7.29864">
        <ele>531.33</ele>
        <time>2016-08-21T13:42:01Z</time>
      </trkpt>
      <trkpt lat="48.31388" lon="7.29839">
        <ele>530.03</ele>
        <time>2016-08-21T13:42:14Z</time>
      </trkpt>
      <trkpt lat="48.31388" lon="7.29836">
        <ele>529.96</ele>
        <time>2016-08-21T13:42:15Z</time>
      </trkpt>
      <trkpt lat="48.31388" lon="7.29833">
        <ele>529.51</ele>
        <time>2016-08-21T13:42:16Z</time>
      </trkpt>
      <trkpt lat="48.31389" lon="7.29828">
        <ele>529.39</ele>
        <time>2016-08-21T13:42:18Z</time>
      </trkpt>
      <trkpt lat="48.31388" lon="7.2982">
        <ele>529.23</ele>
        <time>2016-08-21T13:42:21Z</time>
      </trkpt>
      <trkpt lat="48.31388" lon="7.29813">
        <ele>529.12</ele>
        <time>2016-08-21T13:42:24Z</time>
      </trkpt>
      <trkpt lat="48.31388" lon="7.29811">
        <ele>529.26</ele>
        <time>2016-08-21T13:42:25Z</time>
      </trkpt>
      <trkpt lat="48.31389" lon="7.29809">
        <ele>528.85</ele>
        <time>2016-08-21T13:42:26Z</time>
      </trkpt>
      <trkpt lat="48.31389" lon="7.29807">
        <ele>529.12</ele>
        <time>2016-08-21T13:42:27Z</time>
      </trkpt>
      <trkpt lat="48.31388" lon="7.29805">
        <ele>529.24</ele>
        <time>2016-08-21T13:42:28Z</time>
      </trkpt>
      <trkpt lat="48.31388" lon="7.29803">
        <ele>528.92</ele>
        <time>2016-08-21T13:42:29Z</time>
      </trkpt>
      <trkpt lat="48.31387" lon="7.29801">
        <ele>528.99</ele>
        <time>2016-08-21T13:42:30Z</time>
      </trkpt>
      <trkpt lat="48.31388" lon="7.29798">
        <ele>528.89</ele>
        <time>2016-08-21T13:42:31Z</time>
      </trkpt>
      <trkpt lat="48.31388" lon="7.29796">
        <ele>528.49</ele>
        <time>2016-08-21T13:42:32Z</time>
      </trkpt>
      <trkpt lat="48.31388" lon="7.29794">
        <ele>528.84</ele>
        <time>2016-08-21T13:42:33Z</time>
      </trkpt>
      <trkpt lat="48.31388" lon="7.29767">
        <ele>527.33</ele>
        <time>2016-08-21T13:42:46Z</time>
      </trkpt>
      <trkpt lat="48.31388" lon="7.2976">
        <ele>526.33</ele>
        <time>2016-08-21T13:42:49Z</time>
      </trkpt>
      <trkpt lat="48.31388" lon="7.29757">
        <ele>526.47</ele>
        <time>2016-08-21T13:42:50Z</time>
      </trkpt>
      <trkpt lat="48.31387" lon="7.29755">
        <ele>526.69</ele>
        <time>2016-08-21T13:42:51Z</time>
      </trkpt>
      <trkpt lat="48.31388" lon="7.29753">
        <ele>526.41</ele>
        <time>2016-08-21T13:42:52Z</time>
      </trkpt>
      <trkpt lat="48.31387" lon="7.2975">
        <ele>526.25</ele>
        <time>2016-08-21T13:42:53Z</time>
      </trkpt>
      <trkpt lat="48.31388" lon="7.29737">
        <ele>525.12</ele>
        <time>2016-08-21T13:43:00Z</time>
      </trkpt>
      <trkpt lat="48.31388" lon="7.29735">
        <ele>524.9</ele>
        <time>2016-08-21T13:43:01Z</time>
      </trkpt>
      <trkpt lat="48.31387" lon="7.29728">
        <ele>524.28</ele>
        <time>2016-08-21T13:43:04Z</time>
      </trkpt>
      <trkpt lat="48.31386" lon="7.29726">
        <ele>524.12</ele>
        <time>2016-08-21T13:43:05Z</time>
      </trkpt>
      <trkpt lat="48.31386" lon="7.29724">
        <ele>524.44</ele>
        <time>2016-08-21T13:43:06Z</time>
      </trkpt>
      <trkpt lat="48.31387" lon="7.29712">
        <ele>522.93</ele>
        <time>2016-08-21T13:43:12Z</time>
      </trkpt>
      <trkpt lat="48.31387" lon="7.2971">
        <ele>523.36</ele>
        <time>2016-08-21T13:43:13Z</time>
      </trkpt>
      <trkpt lat="48.31387" lon="7.29708">
        <ele>522.98</ele>
        <time>2016-08-21T13:43:14Z</time>
      </trkpt>
      <trkpt lat="48.31388" lon="7.29702">
        <ele>521.58</ele>
        <time>2016-08-21T13:43:18Z</time>
      </trkpt>
      <trkpt lat="48.31392" lon="7.29687">
        <ele>520.54</ele>
        <time>2016-08-21T13:43:26Z</time>
      </trkpt>
      <trkpt lat="48.31399" lon="7.29674">
        <ele>519.8</ele>
        <time>2016-08-21T13:43:33Z</time>
      </trkpt>
      <trkpt lat="48.31401" lon="7.29661">
        <ele>519.66</ele>
        <time>2016-08-21T13:43:38Z</time>
      </trkpt>
      <trkpt lat="48.31401" lon="7.29655">
        <ele>518.72</ele>
        <time>2016-08-21T13:43:41Z</time>
      </trkpt>
      <trkpt lat="48.31401" lon="7.29653">
        <ele>518.3</ele>
        <time>2016-08-21T13:43:42Z</time>
      </trkpt>
      <trkpt lat="48.31401" lon="7.29648">
        <ele>518.21</ele>
        <time>2016-08-21T13:43:45Z</time>
      </trkpt>
      <trkpt lat="48.31403" lon="7.2964">
        <ele>517.58</ele>
        <time>2016-08-21T13:43:50Z</time>
      </trkpt>
      <trkpt lat="48.31409" lon="7.29615">
        <ele>514.52</ele>
        <time>2016-08-21T13:44:03Z</time>
      </trkpt>
      <trkpt lat="48.31409" lon="7.29613">
        <ele>514.3</ele>
        <time>2016-08-21T13:44:04Z</time>
      </trkpt>
      <trkpt lat="48.31411" lon="7.2961">
        <ele>513.96</ele>
        <time>2016-08-21T13:44:06Z</time>
      </trkpt>
      <trkpt lat="48.31409" lon="7.29608">
        <ele>513.92</ele>
        <time>2016-08-21T13:44:07Z</time>
      </trkpt>
      <trkpt lat="48.31409" lon="7.29606">
        <ele>513.49</ele>
        <time>2016-08-21T13:44:08Z</time>
      </trkpt>
      <trkpt lat="48.31411" lon="7.29605">
        <ele>513.13</ele>
        <time>2016-08-21T13:44:09Z</time>
      </trkpt>
      <trkpt lat="48.31415" lon="7.29585">
        <ele>510.87</ele>
        <time>2016-08-21T13:44:21Z</time>
      </trkpt>
      <trkpt lat="48.31414" lon="7.29577">
        <ele>510.17</ele>
        <time>2016-08-21T13:44:25Z</time>
      </trkpt>
      <trkpt lat="48.31415" lon="7.29576">
        <ele>510.51</ele>
        <time>2016-08-21T13:44:26Z</time>
      </trkpt>
      <trkpt lat="48.31415" lon="7.29549">
        <ele>507.87</ele>
        <time>2016-08-21T13:44:40Z</time>
      </trkpt>
      <trkpt lat="48.31408" lon="7.2952">
        <ele>505.29</ele>
        <time>2016-08-21T13:44:57Z</time>
      </trkpt>
      <trkpt lat="48.31405" lon="7.29495">
        <ele>503.61</ele>
        <time>2016-08-21T13:45:12Z</time>
      </trkpt>
      <trkpt lat="48.31405" lon="7.29493">
        <ele>503.53</ele>
        <time>2016-08-21T13:45:13Z</time>
      </trkpt>
      <trkpt lat="48.31403" lon="7.29485">
        <ele>502.5</ele>
        <time>2016-08-21T13:45:17Z</time>
      </trkpt>
      <trkpt lat="48.31401" lon="7.29476">
        <ele>502.11</ele>
        <time>2016-08-21T13:45:21Z</time>
      </trkpt>
      <trkpt lat="48.31388" lon="7.2945">
        <ele>499.78</ele>
        <time>2016-08-21T13:45:39Z</time>
      </trkpt>
      <trkpt lat="48.31386" lon="7.29446">
        <ele>499.23</ele>
        <time>2016-08-21T13:45:44Z</time>
      </trkpt>
      <trkpt lat="48.31384" lon="7.29441">
        <ele>498.64</ele>
        <time>2016-08-21T13:45:47Z</time>
      </trkpt>
      <trkpt lat="48.31381" lon="7.29438">
        <ele>498.12</ele>
        <time>2016-08-21T13:45:49Z</time>
      </trkpt>
      <trkpt lat="48.31378" lon="7.29433">
        <ele>497.47</ele>
        <time>2016-08-21T13:45:54Z</time>
      </trkpt>
      <trkpt lat="48.31366" lon="7.29422">
        <ele>496.7</ele>
        <time>2016-08-21T13:46:06Z</time>
      </trkpt>
      <trkpt lat="48.31359" lon="7.29413">
        <ele>498.1</ele>
        <time>2016-08-21T13:46:11Z</time>
      </trkpt>
      <trkpt lat="48.31357" lon="7.29412">
        <ele>498.1</ele>
        <time>2016-08-21T13:46:12Z</time>
      </trkpt>
      <trkpt lat="48.31346" lon="7.29402">
        <ele>495.43</ele>
        <time>2016-08-21T13:46:17Z</time>
      </trkpt>
      <trkpt lat="48.31336" lon="7.29395">
        <ele>494.61</ele>
        <time>2016-08-21T13:46:25Z</time>
      </trkpt>
      <trkpt lat="48.31328" lon="7.29387">
        <ele>492.72</ele>
        <time>2016-08-21T13:46:35Z</time>
      </trkpt>
      <trkpt lat="48.31323" lon="7.29386">
        <ele>492.13</ele>
        <time>2016-08-21T13:46:39Z</time>
      </trkpt>
      <trkpt lat="48.31321" lon="7.29384">
        <ele>492.17</ele>
        <time>2016-08-21T13:46:41Z</time>
      </trkpt>
      <trkpt lat="48.3131" lon="7.29376">
        <ele>490.69</ele>
        <time>2016-08-21T13:46:51Z</time>
      </trkpt>
      <trkpt lat="48.31307" lon="7.29375">
        <ele>490.34</ele>
        <time>2016-08-21T13:46:53Z</time>
      </trkpt>
      <trkpt lat="48.31297" lon="7.29369">
        <ele>489.24</ele>
        <time>2016-08-21T13:47:01Z</time>
      </trkpt>
      <trkpt lat="48.3129" lon="7.29362">
        <ele>488.58</ele>
        <time>2016-08-21T13:47:08Z</time>
      </trkpt>
      <trkpt lat="48.31269" lon="7.29354">
        <ele>486.92</ele>
        <time>2016-08-21T13:47:18Z</time>
      </trkpt>
      <trkpt lat="48.31268" lon="7.29353">
        <ele>487.13</ele>
        <time>2016-08-21T13:47:19Z</time>
      </trkpt>
      <trkpt lat="48.31261" lon="7.29348">
        <ele>486.12</ele>
        <time>2016-08-21T13:47:24Z</time>
      </trkpt>
      <trkpt lat="48.31257" lon="7.29347">
        <ele>485.86</ele>
        <time>2016-08-21T13:47:27Z</time>
      </trkpt>
      <trkpt lat="48.31248" lon="7.29346">
        <ele>485.57</ele>
        <time>2016-08-21T13:47:32Z</time>
      </trkpt>
      <trkpt lat="48.31239" lon="7.29341">
        <ele>484.24</ele>
        <time>2016-08-21T13:47:38Z</time>
      </trkpt>
      <trkpt lat="48.31235" lon="7.29341">
        <ele>484.43</ele>
        <time>2016-08-21T13:47:42Z</time>
      </trkpt>
      <trkpt lat="48.31224" lon="7.29339">
        <ele>482.96</ele>
        <time>2016-08-21T13:47:49Z</time>
      </trkpt>
      <trkpt lat="48.3122" lon="7.29338">
        <ele>482.82</ele>
        <time>2016-08-21T13:47:52Z</time>
      </trkpt>
      <trkpt lat="48.31209" lon="7.29337">
        <ele>481.28</ele>
        <time>2016-08-21T13:48:00Z</time>
      </trkpt>
      <trkpt lat="48.31202" lon="7.29336">
        <ele>480.64</ele>
        <time>2016-08-21T13:48:05Z</time>
      </trkpt>
      <trkpt lat="48.31192" lon="7.29334">
        <ele>478.91</ele>
        <time>2016-08-21T13:48:12Z</time>
      </trkpt>
      <trkpt lat="48.31187" lon="7.29333">
        <ele>479.29</ele>
        <time>2016-08-21T13:48:16Z</time>
      </trkpt>
      <trkpt lat="48.31181" lon="7.29335">
        <ele>478.32</ele>
        <time>2016-08-21T13:48:20Z</time>
      </trkpt>
      <trkpt lat="48.31178" lon="7.29335">
        <ele>478.11</ele>
        <time>2016-08-21T13:48:22Z</time>
      </trkpt>
      <trkpt lat="48.31163" lon="7.29329">
        <ele>476.21</ele>
        <time>2016-08-21T13:48:34Z</time>
      </trkpt>
      <trkpt lat="48.3115" lon="7.2933">
        <ele>474.63</ele>
        <time>2016-08-21T13:48:45Z</time>
      </trkpt>
      <trkpt lat="48.31148" lon="7.29328">
        <ele>474.28</ele>
        <time>2016-08-21T13:48:47Z</time>
      </trkpt>
      <trkpt lat="48.31146" lon="7.29329">
        <ele>473.54</ele>
        <time>2016-08-21T13:48:49Z</time>
      </trkpt>
      <trkpt lat="48.31134" lon="7.29331">
        <ele>472.34</ele>
        <time>2016-08-21T13:48:58Z</time>
      </trkpt>
      <trkpt lat="48.31126" lon="7.29329">
        <ele>472.77</ele>
        <time>2016-08-21T13:49:07Z</time>
      </trkpt>
      <trkpt lat="48.31114" lon="7.29331">
        <ele>471.22</ele>
        <time>2016-08-21T13:49:18Z</time>
      </trkpt>
      <trkpt lat="48.31109" lon="7.29331">
        <ele>469.68</ele>
        <time>2016-08-21T13:49:22Z</time>
      </trkpt>
      <trkpt lat="48.31105" lon="7.29332">
        <ele>469.66</ele>
        <time>2016-08-21T13:49:26Z</time>
      </trkpt>
      <trkpt lat="48.31093" lon="7.29343">
        <ele>468.18</ele>
        <time>2016-08-21T13:49:36Z</time>
      </trkpt>
      <trkpt lat="48.31084" lon="7.2935">
        <ele>466.6</ele>
        <time>2016-08-21T13:49:43Z</time>
      </trkpt>
      <trkpt lat="48.31073" lon="7.29356">
        <ele>465.63</ele>
        <time>2016-08-21T13:49:51Z</time>
      </trkpt>
      <trkpt lat="48.31068" lon="7.2936">
        <ele>465.92</ele>
        <time>2016-08-21T13:49:54Z</time>
      </trkpt>
      <trkpt lat="48.31064" lon="7.29362">
        <ele>465.26</ele>
        <time>2016-08-21T13:49:57Z</time>
      </trkpt>
      <trkpt lat="48.31057" lon="7.29366">
        <ele>464.14</ele>
        <time>2016-08-21T13:50:02Z</time>
      </trkpt>
      <trkpt lat="48.31053" lon="7.29368">
        <ele>464.02</ele>
        <time>2016-08-21T13:50:05Z</time>
      </trkpt>
      <trkpt lat="48.3105" lon="7.2937">
        <ele>463.73</ele>
        <time>2016-08-21T13:50:08Z</time>
      </trkpt>
      <trkpt lat="48.31045" lon="7.29368">
        <ele>462.64</ele>
        <time>2016-08-21T13:50:13Z</time>
      </trkpt>
      <trkpt lat="48.3104" lon="7.29369">
        <ele>463.19</ele>
        <time>2016-08-21T13:50:17Z</time>
      </trkpt>
      <trkpt lat="48.31035" lon="7.29373">
        <ele>462</ele>
        <time>2016-08-21T13:50:22Z</time>
      </trkpt>
      <trkpt lat="48.31031" lon="7.29374">
        <ele>461.45</ele>
        <time>2016-08-21T13:50:27Z</time>
      </trkpt>
      <trkpt lat="48.31024" lon="7.29375">
        <ele>459.89</ele>
        <time>2016-08-21T13:50:33Z</time>
      </trkpt>
      <trkpt lat="48.31015" lon="7.29381">
        <ele>458.08</ele>
        <time>2016-08-21T13:50:43Z</time>
      </trkpt>
      <trkpt lat="48.31013" lon="7.29386">
        <ele>457.55</ele>
        <time>2016-08-21T13:50:46Z</time>
      </trkpt>
      <trkpt lat="48.31009" lon="7.29392">
        <ele>457.21</ele>
        <time>2016-08-21T13:50:50Z</time>
      </trkpt>
      <trkpt lat="48.31008" lon="7.29392">
        <ele>457.03</ele>
        <time>2016-08-21T13:50:52Z</time>
      </trkpt>
      <trkpt lat="48.30993" lon="7.29402">
        <ele>454.85</ele>
        <time>2016-08-21T13:51:02Z</time>
      </trkpt>
      <trkpt lat="48.3099" lon="7.29403">
        <ele>454.43</ele>
        <time>2016-08-21T13:51:05Z</time>
      </trkpt>
      <trkpt lat="48.30987" lon="7.29404">
        <ele>453.63</ele>
        <time>2016-08-21T13:51:08Z</time>
      </trkpt>
      <trkpt lat="48.30975" lon="7.29409">
        <ele>453.47</ele>
        <time>2016-08-21T13:51:18Z</time>
      </trkpt>
      <trkpt lat="48.30965" lon="7.29415">
        <ele>451.9</ele>
        <time>2016-08-21T13:51:27Z</time>
      </trkpt>
      <trkpt lat="48.30964" lon="7.29415">
        <ele>451.93</ele>
        <time>2016-08-21T13:51:28Z</time>
      </trkpt>
      <trkpt lat="48.30949" lon="7.29417">
        <ele>450.65</ele>
        <time>2016-08-21T13:51:37Z</time>
      </trkpt>
      <trkpt lat="48.30945" lon="7.29418">
        <ele>449.46</ele>
        <time>2016-08-21T13:51:41Z</time>
      </trkpt>
      <trkpt lat="48.30935" lon="7.29424">
        <ele>449.1</ele>
        <time>2016-08-21T13:51:51Z</time>
      </trkpt>
      <trkpt lat="48.30933" lon="7.29419">
        <ele>447.53</ele>
        <time>2016-08-21T13:52:01Z</time>
      </trkpt>
      <trkpt lat="48.30938" lon="7.29416">
        <ele>448.3</ele>
        <time>2016-08-21T13:52:09Z</time>
      </trkpt>
      <trkpt lat="48.30939" lon="7.29412">
        <ele>446.82</ele>
        <time>2016-08-21T13:52:12Z</time>
      </trkpt>
      <trkpt lat="48.30941" lon="7.29408">
        <ele>447.59</ele>
        <time>2016-08-21T13:52:24Z</time>
      </trkpt>
      <trkpt lat="48.30941" lon="7.29409">
        <ele>448.53</ele>
        <time>2016-08-21T13:52:32Z</time>
      </trkpt>
      <trkpt lat="48.30936" lon="7.2941">
        <ele>448.72</ele>
        <time>2016-08-21T13:52:57Z</time>
      </trkpt>
      <trkpt lat="48.30932" lon="7.29409">
        <ele>450.72</ele>
        <time>2016-08-21T13:53:08Z</time>
      </trkpt>
      <trkpt lat="48.30929" lon="7.29413">
        <ele>449.83</ele>
        <time>2016-08-21T13:53:31Z</time>
      </trkpt>
      <trkpt lat="48.30931" lon="7.2941">
        <ele>450.04</ele>
        <time>2016-08-21T13:53:48Z</time>
      </trkpt>
      <trkpt lat="48.3093" lon="7.29407">
        <ele>449.76</ele>
        <time>2016-08-21T13:54:16Z</time>
      </trkpt>
      <trkpt lat="48.3093" lon="7.29406">
        <ele>450.46</ele>
        <time>2016-08-21T13:54:32Z</time>
      </trkpt>
      <trkpt lat="48.30928" lon="7.29401">
        <ele>450.3</ele>
        <time>2016-08-21T13:54:49Z</time>
      </trkpt>
      <trkpt lat="48.30927" lon="7.29399">
        <ele>450.3</ele>
        <time>2016-08-21T13:55:10Z</time>
      </trkpt>
      <trkpt lat="48.30928" lon="7.294">
        <ele>450.7</ele>
        <time>2016-08-21T13:55:46Z</time>
      </trkpt>
      <trkpt lat="48.30928" lon="7.294">
        <ele>451.04</ele>
        <time>2016-08-21T13:56:21Z</time>
      </trkpt>
      <trkpt lat="48.30927" lon="7.29401">
        <ele>451.72</ele>
        <time>2016-08-21T13:56:44Z</time>
      </trkpt>
      <trkpt lat="48.30928" lon="7.29402">
        <ele>452.18</ele>
        <time>2016-08-21T13:57:04Z</time>
      </trkpt>
      <trkpt lat="48.30928" lon="7.29402">
        <ele>451.83</ele>
        <time>2016-08-21T13:57:22Z</time>
      </trkpt>
      <trkpt lat="48.30929" lon="7.29401">
        <ele>450.63</ele>
        <time>2016-08-21T13:57:42Z</time>
      </trkpt>
      <trkpt lat="48.30928" lon="7.29403">
        <ele>451.36</ele>
        <time>2016-08-21T13:58:04Z</time>
      </trkpt>
      <trkpt lat="48.30932" lon="7.29402">
        <ele>452.79</ele>
        <time>2016-08-21T13:58:29Z</time>
      </trkpt>
      <trkpt lat="48.30932" lon="7.29401">
        <ele>447</ele>
        <time>2016-08-21T13:58:46Z</time>
      </trkpt>
      <trkpt lat="48.30932" lon="7.29401">
        <ele>451.19</ele>
        <time>2016-08-21T13:58:47Z</time>
      </trkpt>
      <trkpt lat="48.30932" lon="7.29401">
        <ele>455.09</ele>
        <time>2016-08-21T13:58:48Z</time>
      </trkpt>
      <trkpt lat="48.30931" lon="7.29402">
        <ele>452.98</ele>
        <time>2016-08-21T13:58:52Z</time>
      </trkpt>
      <trkpt lat="48.30933" lon="7.294">
        <ele>452.88</ele>
        <time>2016-08-21T13:59:00Z</time>
      </trkpt>
      <trkpt lat="48.30934" lon="7.29399">
        <ele>452.26</ele>
        <time>2016-08-21T13:59:26Z</time>
      </trkpt>
      <trkpt lat="48.30943" lon="7.29389">
        <ele>451.29</ele>
        <time>2016-08-21T13:59:46Z</time>
      </trkpt>
      <trkpt lat="48.30952" lon="7.2937">
        <ele>449.33</ele>
        <time>2016-08-21T14:00:06Z</time>
      </trkpt>
      <trkpt lat="48.3096" lon="7.2935">
        <ele>447.12</ele>
        <time>2016-08-21T14:00:26Z</time>
      </trkpt>
      <trkpt lat="48.30969" lon="7.29337">
        <ele>444.51</ele>
        <time>2016-08-21T14:00:40Z</time>
      </trkpt>
      <trkpt lat="48.30979" lon="7.29325">
        <ele>441.4</ele>
        <time>2016-08-21T14:00:55Z</time>
      </trkpt>
      <trkpt lat="48.30992" lon="7.29299">
        <ele>438.5</ele>
        <time>2016-08-21T14:01:17Z</time>
      </trkpt>
      <trkpt lat="48.30995" lon="7.29273">
        <ele>436.58</ele>
        <time>2016-08-21T14:01:34Z</time>
      </trkpt>
      <trkpt lat="48.31003" lon="7.29246">
        <ele>434.9</ele>
        <time>2016-08-21T14:01:53Z</time>
      </trkpt>
      <trkpt lat="48.31014" lon="7.29233">
        <ele>432.72</ele>
        <time>2016-08-21T14:02:06Z</time>
      </trkpt>
      <trkpt lat="48.31027" lon="7.29212">
        <ele>430.11</ele>
        <time>2016-08-21T14:02:26Z</time>
      </trkpt>
      <trkpt lat="48.31027" lon="7.29211">
        <ele>429.57</ele>
        <time>2016-08-21T14:02:27Z</time>
      </trkpt>
      <trkpt lat="48.31042" lon="7.29204">
        <ele>427.3</ele>
        <time>2016-08-21T14:02:42Z</time>
      </trkpt>
      <trkpt lat="48.31049" lon="7.2919">
        <ele>425.86</ele>
        <time>2016-08-21T14:02:49Z</time>
      </trkpt>
      <trkpt lat="48.31063" lon="7.29168">
        <ele>422.82</ele>
        <time>2016-08-21T14:03:08Z</time>
      </trkpt>
      <trkpt lat="48.31073" lon="7.29153">
        <ele>421.16</ele>
        <time>2016-08-21T14:03:21Z</time>
      </trkpt>
      <trkpt lat="48.3109" lon="7.2914">
        <ele>418.21</ele>
        <time>2016-08-21T14:03:43Z</time>
      </trkpt>
      <trkpt lat="48.31109" lon="7.29122">
        <ele>416.33</ele>
        <time>2016-08-21T14:04:06Z</time>
      </trkpt>
      <trkpt lat="48.3113" lon="7.29108">
        <ele>414.25</ele>
        <time>2016-08-21T14:04:26Z</time>
      </trkpt>
      <trkpt lat="48.31144" lon="7.29098">
        <ele>413.22</ele>
        <time>2016-08-21T14:04:39Z</time>
      </trkpt>
      <trkpt lat="48.31147" lon="7.29097">
        <ele>413</ele>
        <time>2016-08-21T14:04:41Z</time>
      </trkpt>
      <trkpt lat="48.31148" lon="7.29094">
        <ele>412.59</ele>
        <time>2016-08-21T14:04:45Z</time>
      </trkpt>
      <trkpt lat="48.3115" lon="7.29093">
        <ele>411.79</ele>
        <time>2016-08-21T14:04:48Z</time>
      </trkpt>
      <trkpt lat="48.31153" lon="7.29091">
        <ele>411.82</ele>
        <time>2016-08-21T14:04:51Z</time>
      </trkpt>
      <trkpt lat="48.31171" lon="7.29088">
        <ele>410.83</ele>
        <time>2016-08-21T14:05:11Z</time>
      </trkpt>
      <trkpt lat="48.31195" lon="7.29078">
        <ele>407.94</ele>
        <time>2016-08-21T14:05:33Z</time>
      </trkpt>
      <trkpt lat="48.31218" lon="7.29072">
        <ele>406.11</ele>
        <time>2016-08-21T14:05:56Z</time>
      </trkpt>
      <trkpt lat="48.31231" lon="7.29058">
        <ele>403.38</ele>
        <time>2016-08-21T14:06:15Z</time>
      </trkpt>
      <trkpt lat="48.31247" lon="7.29037">
        <ele>399.98</ele>
        <time>2016-08-21T14:06:35Z</time>
      </trkpt>
      <trkpt lat="48.31247" lon="7.29036">
        <ele>400.16</ele>
        <time>2016-08-21T14:06:36Z</time>
      </trkpt>
      <trkpt lat="48.31248" lon="7.29034">
        <ele>400.6</ele>
        <time>2016-08-21T14:06:38Z</time>
      </trkpt>
      <trkpt lat="48.3127" lon="7.29037">
        <ele>398.5</ele>
        <time>2016-08-21T14:07:01Z</time>
      </trkpt>
      <trkpt lat="48.31288" lon="7.29031">
        <ele>396.09</ele>
        <time>2016-08-21T14:07:19Z</time>
      </trkpt>
      <trkpt lat="48.31293" lon="7.29029">
        <ele>395.87</ele>
        <time>2016-08-21T14:07:23Z</time>
      </trkpt>
      <trkpt lat="48.31322" lon="7.29017">
        <ele>394.31</ele>
        <time>2016-08-21T14:07:40Z</time>
      </trkpt>
      <trkpt lat="48.31333" lon="7.29007">
        <ele>393.14</ele>
        <time>2016-08-21T14:07:54Z</time>
      </trkpt>
      <trkpt lat="48.31335" lon="7.2901">
        <ele>393.12</ele>
        <time>2016-08-21T14:08:09Z</time>
      </trkpt>
    </trkseg>
  </trk>
</gpx>